[[{"header":{"parameterUnit":"m.s-1","parameterCategory":1,"la1":30.6,"la2":28.766,"lo1":-90.7593,"lo2":-88.6598,"dy":0.0162,"dx":0.0183,"nx":116,"ny":114,"refTime":"2024-05-05T06:00:00:Z","depth":0,"parameterNumber":2,"parameterNumberName":"U-component_of_WINDS"},"data":[0.0,0.0,0.0,0.0,0.0,0.0,0.0,0.0,0.0,0.0,0.0,0.0,0.0,0.0,0.0,0.0,0.0,0.0,0.0,0.0,0.0,0.0,0.0,0.0,0.0,0.0,0.0,0.0,0.0,0.0,0.0,0.0,0.0,0.0,0.0,0.0,0.0,0.0,0.0,0.0,0.0,0.0,0.0,0.0,0.0,0.0,0.0,0.0,0.0,0.0,0.0,0.0,0.0,0.0,0.0,0.0,0.0,0.0,0.0,0.0,0.0,0.0,0.0,0.0,0.0,0.0,0.0,0.0,0.0,0.0,0.0,0.0,0.0,0.0,0.0,0.0,0.0,0.0,0.0,0.0,0.0,0.0,0.0,0.0,0.0,0.0,0.0,0.0,0.0,0.0,0.0,0.0,0.0,0.0,0.0,0.0,0.0,0.0,0.0,0.0,0.0,0.0,0.0,0.0,0.0,0.0,0.0,0.0,0.0,0.0,0.0,0.0,0.0,0.0,0.0,0.0,0.0,0.0,0.0,0.0,0.0,0.0,0.0,0.0,0.0,0.0,0.0,0.0,0.0,0.0,0.0,0.0,0.0,0.0,0.0,0.0,0.0,0.0,0.0,0.0,0.0,0.0,0.0,0.0,0.0,0.0,0.0,0.0,0.0,0.0,0.0,0.0,0.0,0.0,0.0,0.0,0.0,0.0,0.0,0.0,0.0,0.0,0.0,0.0,0.0,0.0,0.0,0.0,0.0,0.0,0.0,0.0,0.0,0.0,0.0,0.0,0.0,0.0,0.0,0.0,0.0,0.0,0.0,0.0,0.0,0.0,0.0,0.0,0.0,0.0,0.0,0.0,0.0,0.0,0.0,0.0,0.0,0.0,0.0,0.0,0.0,0.0,0.0,0.0,0.0,0.0,0.0,0.0,0.0,0.0,0.0,0.0,0.0,0.0,0.0,0.0,0.0,0.0,0.0,0.0,0.0,0.0,0.0,0.0,0.0,0.0,0.0,0.0,0.0,0.0,0.0,0.0,0.0,0.0,0.0,0.0,0.0,0.0,0.0,0.0,0.0,0.0,0.0,0.0,0.0,0.0,0.0,0.0,0.0,0.0,0.0,0.0,0.0,0.0,0.0,0.0,0.0,0.0,0.0,0.0,0.0,0.0,0.0,0.0,0.0,0.0,0.0,0.0,0.0,0.0,0.0,0.0,0.0,0.0,0.0,0.0,0.0,0.0,0.0,0.0,0.0,0.0,0.0,0.0,0.0,0.0,0.0,0.0,0.0,0.0,0.0,0.0,0.0,0.0,0.0,0.0,0.0,0.0,0.0,0.0,0.0,0.0,0.0,0.0,0.0,0.0,0.0,0.0,0.0,0.0,0.0,0.0,0.0,0.0,0.0,0.0,0.0,0.0,0.0,0.0,0.0,0.0,0.0,0.0,0.0,0.0,0.0,0.0,0.0,0.0,0.0,0.0,0.0,0.0,0.0,0.0,0.0,0.0,0.0,0.0,0.0,0.0,0.0,0.0,0.0,0.0,0.0,0.0,0.0,0.0,0.0,0.0,0.0,0.0,0.0,0.0,0.0,0.0,0.0,0.0,0.0,0.0,0.0,0.0,0.0,0.0,0.0,0.0,0.0,0.0,0.0,0.0,0.0,0.0,0.0,0.0,0.0,0.0,0.0,0.0,0.0,0.0,0.0,0.0,0.0,0.0,0.0,0.0,0.0,0.0,0.0,0.0,0.0,0.0,0.0,0.0,0.0,0.0,0.0,0.0,0.0,0.0,0.0,0.0,0.0,0.0,0.0,0.0,0.0,0.0,0.0,0.0,0.0,0.0,0.0,0.0,0.0,0.0,0.0,0.0,0.0,0.0,0.0,0.0,0.0,0.0,0.0,0.0,0.0,0.0,0.0,0.0,0.0,0.0,0.0,0.0,0.0,0.0,0.0,0.0,0.0,0.0,0.0,0.0,0.0,0.0,0.0,0.0,0.0,0.0,0.0,0.0,0.0,0.0,0.0,0.0,0.0,0.0,0.0,0.0,0.0,0.0,0.0,0.0,0.0,0.0,0.0,0.0,0.0,0.0,0.0,0.0,0.0,0.0,0.0,0.0,0.0,0.0,0.0,0.0,0.0,0.0,0.0,0.0,0.0,0.0,0.0,0.0,0.0,0.0,0.0,0.0,0.0,0.0,0.0,0.0,0.0,0.0,0.0,0.0,0.0,0.0,0.0,0.0,0.0,0.0,0.0,0.0,0.0,0.0,0.0,0.0,0.0,0.0,0.0,0.0,0.0,0.0,0.0,0.0,0.0,0.0,0.0,0.0,0.0,0.0,0.0,0.0,0.0,0.0,0.0,0.0,0.0,0.0,0.0,0.0,0.0,0.0,0.0,0.0,0.0,0.0,0.0,0.0,0.0,0.0,0.0,0.0,0.0,0.0,0.0,0.0,0.0,0.0,0.0,0.0,0.0,0.0,0.0,0.0,0.0,0.0,0.0,0.0,0.0,0.0,0.0,0.0,0.0,0.0,0.0,0.0,0.0,0.0,0.0,0.0,0.0,0.0,0.0,0.0,0.0,0.0,0.0,0.0,0.0,0.0,0.0,0.0,0.0,0.0,0.0,0.0,0.0,0.0,0.0,0.0,0.0,0.0,0.0,0.0,0.0,0.0,0.0,0.0,0.0,0.0,0.0,0.0,0.0,0.0,0.0,0.0,0.0,0.0,0.0,0.0,0.0,0.0,0.0,0.0,0.0,0.0,0.0,0.0,0.0,0.0,0.0,0.0,0.0,0.0,0.0,0.0,0.0,0.0,0.0,0.0,0.0,0.0,0.0,0.0,0.0,0.0,0.0,0.0,0.0,0.0,0.0,0.0,0.0,0.0,0.0,0.0,0.0,0.0,0.0,0.0,0.0,0.0,0.0,0.0,0.0,0.0,0.0,0.0,0.0,0.0,0.0,0.0,0.0,0.0,0.0,0.0,0.0,0.0,0.0,0.0,0.0,0.0,0.0,0.0,0.0,0.0,0.0,0.0,0.0,0.0,0.0,0.0,0.0,0.0,0.0,0.0,0.0,0.0,0.0,0.0,0.0,0.0,0.0,0.0,0.0,0.0,0.0,0.0,0.0,0.0,0.0,0.0,0.0,0.0,0.0,0.0,0.0,0.0,0.0,0.0,0.0,0.0,0.0,0.0,0.0,0.0,0.0,0.0,0.0,0.0,0.0,0.0,0.0,0.0,0.0,0.0,0.0,0.0,0.0,0.0,0.0,0.0,0.0,0.0,0.0,0.0,0.0,0.0,0.0,0.0,0.0,0.0,0.0,0.0,0.0,0.0,0.0,0.0,0.0,0.0,0.0,0.0,0.0,0.0,0.0,0.0,0.0,0.0,0.0,0.0,0.0,0.0,0.0,0.0,0.0,0.0,0.0,0.0,0.0,0.0,0.0,0.0,0.0,0.0,0.0,0.0,0.0,0.0,0.0,0.0,0.0,0.0,0.0,0.0,0.0,0.0,0.0,0.0,0.0,0.0,0.0,0.0,0.0,0.0,0.0,0.0,0.0,0.0,0.0,0.0,0.0,0.0,0.0,0.0,0.0,0.0,0.0,0.0,0.0,0.0,0.0,0.0,0.0,0.0,0.0,0.0,0.0,0.0,0.0,0.0,0.0,0.0,0.0,0.0,0.0,0.0,0.0,0.0,0.0,0.0,0.0,0.0,0.0,0.0,0.0,0.0,0.0,0.0,0.0,0.0,0.0,0.0,0.0,0.0,0.0,0.0,0.0,0.0,0.0,0.0,0.0,0.0,0.0,0.0,0.0,0.0,0.0,0.0,0.0,0.0,0.0,0.0,0.0,0.0,0.0,0.0,0.0,0.0,0.0,0.0,0.0,0.0,0.0,0.0,0.0,0.0,0.0,0.0,0.0,0.0,0.0,0.0,0.0,0.0,0.0,0.0,0.0,0.0,0.0,0.0,0.0,0.0,0.0,0.0,0.0,0.0,0.0,0.0,0.0,0.0,0.0,0.0,0.0,0.0,0.0,0.0,0.0,0.0,0.0,0.0,0.0,0.0,0.0,0.0,0.0,0.0,0.0,0.0,0.0,0.0,0.0,0.0,0.0,0.0,0.0,0.0,0.0,0.0,0.0,0.0,0.0,0.0,0.0,0.0,0.0,0.0,0.0,0.0,0.0,0.0,0.0,0.0,0.0,0.0,0.0,0.0,0.0,0.0,0.0,0.0,0.0,0.0,0.0,0.0,0.0,0.0,0.0,0.0,0.0,0.0,0.0,0.0,0.0,0.0,0.0,0.0,0.0,0.0,0.0,0.0,0.0,0.0,0.0,0.0,0.0,0.0,0.0,0.0,0.0,0.0,0.0,0.0,0.0,0.0,0.0,0.0,0.0,0.0,0.0,0.0,0.0,0.0,0.0,0.0,0.0,0.0,0.0,0.0,0.0,0.0,0.0,0.0,0.0,0.0,0.0,0.0,0.0,0.0,0.0,0.0,0.0,0.0,0.0,0.0,0.0,0.0,0.0,0.0,0.0,0.0,0.0,0.0,0.0,0.0,0.0,0.0,0.0,0.0,0.0,0.0,0.0,0.0,0.0,0.0,0.0,0.0,0.0,0.0,0.0,0.0,0.0,0.0,0.0,0.0,0.0,0.0,0.0,0.0,0.0,0.0,0.0,0.0,0.0,0.0,0.0,0.0,0.0,0.0,0.0,0.0,0.0,0.0,0.0,0.0,0.0,0.0,0.0,0.0,0.0,0.0,0.0,0.0,0.0,0.0,0.0,0.0,0.0,0.0,0.0,0.0,0.0,0.0,0.0,0.0,0.0,0.0,0.0,0.0,0.0,0.0,0.0,0.0,0.0,0.0,0.0,0.0,0.0,0.0,0.0,0.0,0.0,0.0,0.0,0.0,0.0,0.0,0.0,0.0,0.0,0.0,0.0,0.0,0.0,0.0,0.0,0.0,0.0,0.0,0.0,0.0,0.0,0.0,0.0,0.0,0.0,0.0,0.0,0.0,0.0,0.0,0.0,0.0,0.0,0.0,0.0,0.0,0.0,0.0,0.0,0.0,0.0,0.0,0.0,0.0,0.0,0.0,0.0,0.0,0.0,0.0,0.0,0.0,0.0,0.0,0.0,0.0,0.0,0.0,0.0,0.0,0.0,0.0,0.0,0.0,0.0,0.0,0.0,0.0,0.0,0.0,0.0,0.0,0.0,0.0,0.0,0.0,0.0,0.0,0.0,0.0,0.0,0.0,0.0,0.0,0.0,0.0,0.0,0.0,0.0,0.0,0.0,0.0,0.0,0.0,0.0,0.0,0.0,0.0,0.0,0.0,0.0,0.0,0.0,0.0,0.0,0.0,0.0,0.0,0.0,0.0,0.0,0.0,0.0,0.0,0.0,0.0,0.0,0.0,0.0,0.0,0.0,0.0,0.0,0.0,0.0,0.0,0.0,0.0,0.0,0.0,0.0,0.0,0.0,0.0,0.0,0.0,0.0,0.0,0.0,0.0,0.0,0.0,0.0,0.0,0.0,0.0,0.0,0.0,0.0,0.0,0.0,0.0,0.0,0.0,0.0,0.0,0.0,0.0,0.0,0.0,0.0,0.0,0.0,0.0,0.0,0.0,0.0,0.0,0.0,0.0,0.0,0.0,0.0,0.0,0.0,0.0,0.0,0.0,0.0,0.0,0.0,0.0,0.0,0.0,0.0,0.0,0.0,0.0,0.0,0.0,0.0,0.0,0.0,0.0,0.0,0.0,0.0,0.0,0.0,0.0,0.0,0.0,0.0,0.0,0.0,0.0,0.0,0.0,0.0,0.0,0.0,0.0,0.0,0.0,0.0,0.0,0.0,0.0,0.0,0.0,0.0,0.0,0.0,0.0,0.0,0.0,0.0,0.0,0.0,0.0,0.0,0.0,0.0,0.0,0.0,0.0,0.0,0.0,0.0,0.0,0.0,0.0,0.0,0.0,0.0,0.0,0.0,0.0,0.0,0.0,0.0,0.0,0.0,0.0,0.0,0.0,0.0,0.0,0.0,0.0,0.0,0.0,0.0,0.0,0.0,0.0,0.0,0.0,0.0,0.0,0.0,0.0,0.0,0.0,-4.1339,0.0,0.0,0.0,0.0,0.0,0.0,0.0,0.0,0.0,0.0,0.0,0.0,0.0,0.0,0.0,0.0,0.0,0.0,0.0,0.0,0.0,0.0,0.0,0.0,-3.4682,-3.4592,-3.4941,-3.466,-3.4761,-3.5498,0.0,0.0,0.0,0.0,0.0,-3.4906,-3.453,-3.4503,-3.4904,-3.4179,-3.4037,-3.445,-3.5424,-3.7195,-3.9554,0.0,0.0,0.0,0.0,0.0,0.0,0.0,0.0,0.0,0.0,0.0,0.0,0.0,0.0,0.0,0.0,0.0,0.0,0.0,0.0,0.0,0.0,0.0,0.0,0.0,0.0,0.0,0.0,0.0,0.0,0.0,0.0,0.0,0.0,0.0,0.0,0.0,0.0,0.0,0.0,0.0,0.0,0.0,0.0,0.0,0.0,0.0,0.0,0.0,0.0,0.0,0.0,0.0,0.0,0.0,0.0,0.0,0.0,0.0,0.0,0.0,0.0,0.0,0.0,0.0,0.0,0.0,0.0,0.0,0.0,0.0,-4.1411,0.0,0.0,0.0,0.0,0.0,0.0,0.0,0.0,0.0,0.0,0.0,0.0,0.0,0.0,0.0,0.0,0.0,0.0,0.0,0.0,0.0,-3.5239,-3.5239,-3.4566,-3.4286,-3.477,-3.4454,-3.4482,-3.5086,-3.4656,0.0,0.0,0.0,-3.3912,-3.42,-3.4271,-3.3932,-3.3213,-3.2639,-3.2228,-3.1915,-3.242,-3.4418,-3.7695,-3.862,0.0,0.0,0.0,0.0,0.0,0.0,0.0,0.0,0.0,0.0,0.0,0.0,0.0,0.0,0.0,0.0,0.0,0.0,0.0,0.0,0.0,0.0,0.0,0.0,0.0,0.0,0.0,0.0,0.0,0.0,0.0,0.0,0.0,0.0,0.0,0.0,0.0,0.0,0.0,0.0,0.0,0.0,0.0,0.0,0.0,0.0,0.0,0.0,0.0,0.0,0.0,0.0,0.0,0.0,0.0,0.0,0.0,0.0,0.0,0.0,0.0,0.0,0.0,-4.2891,-4.3109,-4.2856,-4.3145,-4.3538,-4.4033,-4.442,-4.4329,-4.3828,-4.2474,0.0,0.0,0.0,0.0,0.0,0.0,0.0,0.0,0.0,0.0,0.0,0.0,0.0,0.0,0.0,0.0,0.0,0.0,0.0,-3.3836,-3.3763,-3.3281,-3.2692,-3.2071,-3.2905,-3.3501,-3.3677,-3.4028,-3.422,-3.4168,-3.3356,-3.2659,-3.2206,-3.2017,-3.158,-3.0857,-3.0771,-3.0695,-3.0661,-3.1628,-3.2708,-3.3893,-3.511,-3.7104,-3.9532,0.0,0.0,0.0,0.0,0.0,0.0,0.0,0.0,0.0,0.0,0.0,0.0,0.0,0.0,0.0,0.0,0.0,0.0,0.0,0.0,0.0,0.0,0.0,0.0,0.0,0.0,0.0,0.0,0.0,0.0,0.0,0.0,0.0,0.0,0.0,0.0,0.0,0.0,0.0,0.0,0.0,-4.1669,-4.16,0.0,0.0,0.0,0.0,0.0,0.0,0.0,0.0,0.0,0.0,0.0,0.0,0.0,-4.0063,-4.0735,-4.2062,-4.2414,-4.1821,-4.5259,-4.6249,-4.5043,-4.6508,-4.687,-4.638,-4.7097,0.0,-4.3611,-4.3113,0.0,0.0,0.0,0.0,0.0,0.0,0.0,0.0,0.0,0.0,0.0,0.0,0.0,0.0,0.0,0.0,0.0,0.0,0.0,0.0,0.0,-3.3345,-3.2826,-3.285,-3.3266,-3.3444,-3.3198,-3.3167,-3.312,-3.3112,-3.1819,-3.1157,-3.1244,-3.1012,-3.0258,-2.8998,-2.9114,-2.8916,-2.8496,-2.9476,-3.05,-3.1532,-3.1785,-3.3965,-3.7324,-3.6453,0.0,0.0,0.0,0.0,0.0,0.0,0.0,0.0,0.0,0.0,0.0,0.0,0.0,0.0,0.0,0.0,0.0,0.0,0.0,0.0,0.0,0.0,0.0,0.0,0.0,0.0,0.0,0.0,0.0,0.0,0.0,0.0,0.0,0.0,0.0,0.0,0.0,0.0,0.0,-3.8198,-4.0075,-3.9703,-3.976,-3.9084,0.0,0.0,0.0,0.0,0.0,0.0,0.0,0.0,0.0,-4.1819,-4.1518,-4.2056,-4.3584,-4.4341,-4.4535,-4.4247,-4.6011,-4.6475,-4.5857,-4.6601,-4.6783,-4.6487,-4.6815,-4.6225,-4.4958,-4.3726,-4.2316,-4.0702,0.0,0.0,0.0,0.0,-3.6617,-3.6548,0.0,0.0,0.0,0.0,0.0,0.0,0.0,0.0,0.0,0.0,0.0,0.0,-3.4202,-3.349,-3.308,-3.3367,-3.3593,-3.3547,-3.3182,-3.2917,-3.2803,-3.2934,-3.1109,-3.0338,-3.0809,-3.01,-2.9033,-2.7632,-2.7704,-2.7485,-2.7031,-2.7783,-2.8747,-2.9807,-2.9476,-3.1579,-3.5251,-3.4417,-3.4645,-3.5496,0.0,0.0,0.0,0.0,0.0,0.0,0.0,0.0,0.0,0.0,0.0,0.0,0.0,0.0,0.0,0.0,0.0,0.0,0.0,0.0,0.0,0.0,0.0,0.0,0.0,0.0,0.0,0.0,0.0,0.0,0.0,0.0,0.0,0.0,0.0,0.0,0.0,-3.8153,-3.9549,-3.8451,-3.9609,-3.9272,0.0,0.0,0.0,0.0,0.0,0.0,-4.0547,-4.0701,-4.1673,-4.363,-4.3537,-4.4282,-4.6043,-4.584,-4.5725,-4.5725,-4.5805,-4.5834,-4.5834,-4.6103,-4.6208,-4.6208,-4.6208,-4.6218,-4.6106,-4.4088,-4.2792,-4.182,-3.8921,-3.7279,-3.6561,-3.6734,-3.6734,-3.6698,0.0,0.0,0.0,0.0,0.0,0.0,0.0,0.0,0.0,0.0,0.0,-3.2638,-3.347,-3.327,-3.2815,-3.2058,-3.3054,-3.3682,-3.3652,-3.3879,-3.4138,-3.4364,-3.2009,-3.0732,-3.0881,-2.8933,-2.7625,-2.6954,-2.6655,-2.6673,-2.7021,-2.748,-2.7963,-2.8408,-2.879,-3.0831,-3.3882,-3.2262,-3.3189,-3.5651,-3.4111,0.0,0.0,0.0,0.0,0.0,0.0,0.0,0.0,0.0,0.0,0.0,0.0,0.0,0.0,0.0,0.0,0.0,0.0,0.0,0.0,0.0,0.0,0.0,0.0,0.0,0.0,0.0,0.0,0.0,0.0,0.0,0.0,0.0,0.0,0.0,0.0,0.0,0.0,-4.0024,-4.3166,0.0,0.0,0.0,0.0,-4.0293,-4.1022,-4.2054,-4.3434,-4.3946,-4.4917,-4.636,-4.5602,-4.5518,-4.6284,-4.5008,-4.4419,-4.4404,-4.4703,-4.4871,-4.4909,-4.5798,-4.6208,-4.6208,-4.6208,-4.6306,-4.629,-4.396,-4.2589,-4.1694,-3.9431,-3.7785,-3.6782,-3.7393,-3.732,-3.6964,0.0,0.0,0.0,0.0,0.0,-3.5758,-3.3786,-3.3228,-3.2556,-3.1179,-3.0995,-3.1467,-3.2727,-3.2298,-3.194,-3.1951,-3.2345,-3.254,-3.2345,-3.2628,-3.2512,-3.1839,-3.1102,-3.0141,-2.893,-2.7438,-2.6484,-2.6131,-2.629,-2.6465,-2.6631,-2.6343,-2.6296,-2.641,-2.6067,-2.6582,-2.7859,-2.9777,-3.1563,-3.3083,-3.1975,-3.2506,0.0,0.0,0.0,0.0,0.0,0.0,0.0,0.0,0.0,0.0,0.0,0.0,0.0,0.0,0.0,0.0,0.0,0.0,0.0,0.0,0.0,0.0,0.0,0.0,0.0,0.0,0.0,0.0,0.0,0.0,0.0,0.0,0.0,0.0,0.0,0.0,0.0,-4.1013,-4.2824,0.0,-4.0473,-4.072,-4.128,-4.1708,-4.2746,-4.3754,-4.4671,-4.4929,-4.5425,-4.6388,-4.5259,-4.499,-4.5663,-4.4347,-4.3648,-4.3648,-4.3775,-4.3849,-4.3849,-4.419,-4.4135,-4.3758,-4.3758,-4.3559,-4.3138,-4.1832,-4.185,-4.2444,-4.0037,-3.8568,-3.7746,-3.7569,-3.7384,-3.7208,0.0,0.0,0.0,-3.6725,-3.6647,-3.595,-3.4054,-3.3517,-3.2784,-3.1382,-3.1019,-3.1371,-3.2569,-3.2005,-3.1653,-3.1973,-3.2,-3.2013,-3.2064,-3.2033,-3.1717,-3.0976,-3.0569,-2.9294,-2.7016,-2.6693,-2.6248,-2.5693,-2.6025,-2.5982,-2.5657,-2.5329,-2.5049,-2.4736,-2.4563,-2.4491,-2.4655,-2.7354,-2.9292,-3.0554,-3.0342,-3.1284,-3.271,0.0,0.0,0.0,0.0,0.0,0.0,0.0,0.0,0.0,0.0,0.0,0.0,0.0,0.0,0.0,0.0,0.0,0.0,0.0,0.0,0.0,0.0,0.0,0.0,0.0,0.0,0.0,0.0,0.0,0.0,0.0,0.0,0.0,0.0,-4.0935,-4.256,-4.1205,-4.3195,-4.3718,-4.1294,-4.2267,-4.3225,-4.3658,-4.4511,-4.5274,-4.5933,-4.5963,-4.6187,-4.6636,-4.5798,-4.5424,-4.5648,-4.4541,-4.3843,-4.3618,-4.3409,-4.329,-4.329,-4.329,-4.297,-4.2396,-4.2396,-4.2077,-4.1427,-4.0709,-4.1148,-4.2127,-4.0477,-3.9244,-3.8337,-3.7971,-3.7526,-3.7,0.0,-3.6992,-3.6788,-3.6809,-3.6809,-3.6312,-3.4951,-3.4389,-3.3841,-3.3123,-3.2501,-3.2382,-3.302,-3.2404,-3.1986,-3.1961,-3.1948,-3.221,-3.2842,-3.2221,-3.1921,-3.2109,-3.0456,-2.8263,-2.543,-2.6795,-2.6945,-2.5693,-2.5693,-2.522,-2.4311,-2.4553,-2.421,-2.3373,-2.4277,-2.4762,-2.4728,-2.5089,-2.6362,-2.8218,-2.9283,-3.0666,-3.1999,0.0,0.0,0.0,0.0,0.0,0.0,0.0,0.0,0.0,0.0,0.0,0.0,0.0,0.0,0.0,0.0,0.0,0.0,0.0,0.0,0.0,0.0,0.0,0.0,0.0,0.0,0.0,0.0,0.0,0.0,0.0,0.0,0.0,-3.9687,-4.2342,-4.3434,-4.0905,-4.4571,-4.6037,-4.2875,-4.484,-4.6309,-4.6309,-4.6309,-4.6636,-4.7279,-4.7309,-4.7309,-4.7309,-4.7264,-4.6935,-4.6264,-4.5589,-4.4915,-4.4272,-4.3604,-4.329,-4.329,-4.3275,-4.294,-4.2366,-4.2351,-4.2061,-4.1538,-4.0704,-4.0476,-4.0656,-4.0625,-3.9742,-3.8407,-3.8565,-3.7691,-3.6372,-3.7089,-3.6811,-3.6606,-3.6705,-3.6768,-3.6492,-3.557,-3.4928,-3.4286,-3.3594,-3.2864,-3.2359,-3.2314,-3.1769,-3.13,-3.1006,-3.0636,-3.0405,-3.0454,-3.0266,-3.0162,-3.0175,-2.782,-2.6667,-2.6943,-2.6489,-2.6062,-2.5693,-2.5693,-2.5077,-2.3854,-2.3169,-2.2286,-2.1262,-2.1037,-2.1037,-2.1324,-2.281,-2.3854,-2.4691,-2.6608,-2.7583,-2.7934,0.0,0.0,0.0,0.0,0.0,0.0,0.0,0.0,0.0,0.0,0.0,0.0,0.0,0.0,0.0,0.0,0.0,0.0,0.0,0.0,0.0,0.0,0.0,0.0,0.0,0.0,0.0,0.0,0.0,0.0,0.0,-4.0457,-4.2132,-4.2198,-4.4246,-4.5678,-4.5439,-4.6531,-4.695,-4.6037,-4.6606,-4.704,-4.704,-4.704,-4.7115,-4.7294,-4.7309,-4.7309,-4.7309,-4.6367,-4.5768,-4.5589,-4.4451,-4.3738,-4.3559,-4.3379,-4.329,-4.329,-4.2851,-4.2306,-4.1662,-4.1145,-4.0589,-4.0024,-3.9787,-3.9718,-3.9713,-3.9214,-3.8772,-3.8292,-3.7424,-3.6544,-3.5744,-3.6685,-3.6504,-3.6444,-3.6602,-3.6705,-3.6547,-3.5868,-3.5193,-3.4759,-3.4849,-3.3532,-3.2685,-3.2898,-3.1995,-3.1273,-3.1026,-3.0186,-2.9748,-2.9883,-2.9025,-2.82,-2.7443,-2.608,-2.5613,-2.6237,-2.5545,-2.5226,-2.5459,-2.5459,-2.4538,-2.2826,-2.2348,-2.1251,-1.9628,-1.9492,-1.9533,-1.9872,-2.1107,-2.1754,-2.2079,-2.4242,-2.5511,-2.619,-2.6511,-2.6998,-2.7582,-2.8258,-3.0448,-3.3122,-3.4164,0.0,0.0,0.0,0.0,0.0,0.0,0.0,0.0,0.0,0.0,0.0,0.0,0.0,0.0,0.0,0.0,0.0,0.0,0.0,0.0,0.0,0.0,0.0,0.0,-4.2551,-4.4152,-4.45,-4.5786,-4.6875,-4.7249,-4.7309,-4.7309,-4.7309,-4.7309,-4.7309,-4.7309,-4.7309,-4.7309,-4.7309,-4.7309,-4.7309,-4.7309,-4.6277,-4.5589,-4.5289,-4.4272,-4.3559,-4.329,-4.329,-4.329,-4.329,-4.294,-4.2417,0.0,-4.11,-4.0442,-3.9813,-3.9529,-3.9388,0.0,0.0,0.0,0.0,0.0,-3.5833,-3.5504,-3.621,-3.6205,-3.6339,-3.6461,-3.6643,-3.6568,-3.6054,-3.5408,-3.5376,-3.645,-3.4561,-3.3375,-3.4128,-3.2829,-3.1792,-3.1495,-3.0289,-2.9706,-3.0134,-2.8186,-2.6394,-2.4998,-2.5144,-2.5039,-2.4473,-2.4492,-2.4678,-2.5116,-2.5116,-2.4013,-2.1971,-2.2014,-2.0871,-1.8828,-1.9166,-1.9452,-1.9766,-2.0027,-2.0113,-2.0369,-2.2033,-2.3771,-2.5355,-2.4825,-2.5353,-2.639,-2.6323,-2.8164,-3.0762,-3.2066,0.0,0.0,0.0,0.0,0.0,0.0,0.0,0.0,0.0,0.0,0.0,0.0,0.0,0.0,0.0,0.0,0.0,0.0,0.0,0.0,0.0,0.0,0.0,0.0,-4.4691,-4.6309,-4.6384,-4.6935,-4.7309,-4.7309,-4.7309,-4.7309,-4.7309,-4.7309,-4.7309,-4.7309,-4.7309,-4.7309,-4.7309,0.0,0.0,0.0,0.0,-4.5873,-4.5185,-4.4526,-4.3873,-4.329,-4.329,-4.329,-4.329,-4.3215,-4.2865,-4.2246,-4.1587,-4.0905,-4.0247,-3.9664,-3.9334,-3.9197,-3.9385,-3.8528,-3.706,-3.5923,-3.5504,-3.5504,-3.6239,-3.6236,-3.6229,-3.6251,-3.6733,-3.6935,-3.6447,-3.6218,-3.6322,-3.6994,-3.6218,-3.5241,-3.4314,-3.3888,-3.2894,-3.0971,-3.0082,-2.9416,-2.882,-2.687,-2.5974,-2.6453,-2.5602,-2.5073,-2.4988,-2.4941,-2.5028,-2.5116,-2.5116,-2.4657,-2.3788,-2.2418,-2.1381,-2.0622,-1.9257,-1.8951,-1.9452,-1.9512,-1.9806,-2.0214,-2.0393,-2.0934,-2.1904,-2.3292,-2.3333,-2.2788,-2.365,-2.6681,-3.0515,-3.2065,-3.4438,-3.7061,-3.8566,-3.7979,0.0,0.0,0.0,0.0,0.0,0.0,0.0,0.0,0.0,0.0,0.0,0.0,0.0,0.0,0.0,0.0,0.0,0.0,0.0,-4.3703,-4.5274,-4.6516,-4.704,-4.7219,-4.7309,-4.7309,-4.7309,-4.7309,-4.7309,-4.7309,-4.7309,-4.7309,-4.7309,-4.7309,-4.7309,-4.7309,-4.7055,-4.6488,-4.5843,-4.517,-4.4511,-4.3813,-4.3424,-4.329,0.0,0.0,-4.3275,-4.2791,-4.2231,-4.1572,-4.0876,-4.0217,-3.9568,-3.9433,-3.8745,-3.7778,-3.7835,-3.7049,-3.5848,-3.5594,-3.5504,-3.5504,-3.591,-3.6014,-3.6122,-3.6204,-3.6676,-3.6995,-3.6834,-3.6525,-3.6485,-3.698,-3.6288,-3.5321,-3.4204,-3.4044,-3.3427,-3.1932,-3.1365,-3.0347,-2.8612,-2.8058,-2.7824,-2.784,-2.7248,-2.6655,-2.6026,-2.5792,-2.5524,-2.5116,-2.5116,-2.485,-2.426,-2.263,-2.1629,-2.1085,-1.9417,-1.9032,-1.9586,-1.9586,-1.9833,-2.0173,-2.0234,-2.0327,-2.0549,-2.1692,-2.1908,-2.1659,-2.2257,-2.4976,-2.8589,-3.0631,-3.3462,-3.643,-3.8121,-3.7993,-3.6978,0.0,0.0,0.0,0.0,0.0,0.0,0.0,0.0,0.0,0.0,0.0,0.0,0.0,0.0,-3.8181,-4.0868,0.0,-4.3988,-4.5983,-4.686,-4.7309,-4.7309,-4.7309,-4.7062,-4.6403,-4.6344,-4.6344,-4.6344,-4.6344,-4.6594,-4.7251,-4.7309,-4.7309,-4.7309,-4.7309,-4.6995,-4.6309,-4.5648,-4.4975,-4.4332,-4.3618,-4.329,-4.329,-4.329,-4.329,-4.329,-4.3,-4.2671,-4.2297,-4.1309,-4.0711,-4.0322,-3.932,-3.8317,-3.7375,-3.706,-3.6357,-3.5504,-3.5504,-3.5504,-3.5504,-3.5588,-3.5773,-3.6019,-3.6144,-3.6594,-3.6939,-3.7052,-3.6646,-3.6519,-3.7031,-3.6231,-3.5292,-3.4495,-3.4318,-3.3858,-3.2874,-3.2716,-3.1754,-2.96,-3.0342,-3.0581,-2.9907,-2.9437,-2.869,-2.7554,-2.7029,-2.6372,-2.5436,-2.5436,-2.5228,-2.4803,-2.3229,-2.2201,-2.1564,-2.004,-1.9493,-1.972,-1.972,-1.9887,-2.0167,-2.0347,-2.0347,-2.0254,-2.0788,-2.1389,-2.197,-2.197,-2.4139,-2.7366,-2.9687,-3.2541,-3.552,-3.7403,-3.7909,-3.7424,-3.5391,-3.5825,0.0,0.0,0.0,0.0,0.0,0.0,0.0,0.0,-3.2995,-3.353,-3.709,-3.8294,-3.9893,-4.3856,-4.4767,-4.5732,-4.8119,-4.8371,-4.8102,-4.7578,-4.7384,-4.6829,-4.5539,-4.5403,-4.5494,-4.5734,-4.5539,-4.5928,-4.7207,-4.7309,-4.7309,-4.7309,-4.7309,-4.6995,-4.6309,-4.5648,-4.4975,-4.4332,-4.3618,-4.329,-4.329,-4.329,-4.329,-4.329,-4.329,-4.323,-4.3075,-4.1758,-4.104,-4.0666,-3.8916,-3.7823,-3.7165,-3.6537,-3.5968,-3.5504,-3.5504,-3.5504,-3.5504,-3.5594,-3.58,-3.5997,-3.6019,-3.656,-3.698,-3.6919,-3.6921,-3.7128,-3.7703,-3.7366,-3.6757,-3.5947,-3.5868,-3.4831,-3.2322,-3.2796,-3.3027,-3.2625,-3.2986,-3.338,-3.3762,-3.1816,-3.0493,-2.9934,-2.8999,-2.7916,-2.6702,-2.6702,-2.6686,-2.6669,-2.4858,-2.3869,-2.3414,-2.1729,-2.0373,-1.9412,-1.9412,-1.9586,-1.9826,-1.9606,-1.98,-2.0322,-2.1412,-2.2481,-2.3384,-2.3384,-2.5855,-2.9374,-3.1438,-3.344,-3.5457,-3.7998,-3.8529,-3.7979,-3.663,-3.5344,-3.3871,-3.1733,-3.1083,-3.1008,-3.1022,-3.0914,-3.1749,0.0,-3.6051,-3.6717,-3.9486,-4.2153,-4.4423,-4.5674,-4.6784,-4.7949,-4.9029,-4.8715,-4.8252,-4.8192,-4.7683,-4.6829,-4.5539,-4.5403,-4.5824,-4.6975,-4.6062,-4.5928,-4.7207,-4.7309,-4.7309,-4.7309,-4.7309,-4.6995,-4.6309,-4.5648,-4.4975,-4.4332,-4.3618,-4.329,-4.329,-4.329,-4.329,-4.329,-4.329,-4.3015,-4.244,-4.1085,-3.9828,-3.8661,-3.7853,-3.715,-3.6522,-3.5863,-3.5564,-3.5504,-3.5504,-3.5504,-3.5504,-3.56,-3.5482,-3.5365,-3.5365,-3.5876,-3.6525,-3.7156,-3.6912,-3.6752,-3.6996,-3.6971,-3.6457,-3.5137,-3.5006,-3.4348,-3.2714,-3.4328,-3.5123,-3.4317,-3.587,-3.6761,-3.6634,-3.5692,-3.4773,-3.3879,-3.3444,-3.2602,-3.1329,-3.064,-3.0458,-3.0645,-2.7531,-2.6156,-2.6209,-2.3798,-2.2517,-2.2295,-2.2485,-2.2759,-2.3004,-2.3184,-2.3139,-2.3076,-2.4367,-2.5448,-2.6125,-2.4892,-2.645,0.0,-3.1687,-3.4193,-3.6657,-3.8626,-3.8608,-3.7708,-3.674,-3.5972,-3.5294,-3.478,-3.3008,-3.1369,-3.175,-3.2035,-3.2769,-3.4701,-3.6094,-3.7731,-4.0312,-4.2658,-4.4685,-4.6196,-4.7273,-4.8183,-4.8981,-4.8977,-4.8775,-4.8341,-4.7713,-4.7121,-4.6594,-4.5824,-4.5584,-4.6166,-4.5734,-4.5928,-4.7207,-4.7309,-4.7309,-4.7309,-4.7309,-4.6815,-4.5753,-4.5454,-4.4796,-4.3708,-4.3424,-4.329,-4.329,-4.329,-4.329,-4.329,-4.294,-4.2207,-4.119,-4.0636,-3.9858,-3.8901,-3.7853,-3.7255,-3.6956,-3.6327,-3.6073,-3.6028,-3.5654,-3.5504,-3.5504,-3.5457,-3.5155,-3.486,-3.4654,-3.503,-3.5723,-3.6859,-3.6576,-3.631,-3.6523,-3.6666,-3.6238,-3.4929,-3.4592,-3.4235,-3.3659,-3.5182,-3.598,-3.5574,-3.7535,-3.8738,-3.88,-3.914,-3.8816,-3.7758,-3.7896,-3.7274,-3.5814,-3.4722,-3.4217,-3.421,-3.1038,-2.937,-2.9009,-2.6949,-2.5763,-2.5332,-2.5752,-2.6073,-2.6284,-2.662,-2.6403,-2.6092,-2.7233,-2.7832,-2.7955,-2.6736,-2.7758,-2.9938,-3.2078,-3.427,-3.638,-3.777,-3.765,-3.6774,-3.5886,-3.5464,-3.5367,-3.5674,-3.416,-3.2544,-3.2686,-3.3188,-3.3743,-3.4261,-3.6014,-3.8216,-4.0351,-4.2618,-4.4726,-4.6206,-4.7393,-4.8319,-4.898,-4.9313,-4.9299,-4.8656,-4.7997,-4.7519,-4.7324,-4.6491,-4.5928,-4.5928,-4.5584,-4.5928,-4.7207,-4.7309,-4.7309,-4.7309,-4.7309,-4.677,-4.5618,-4.5394,-4.4751,-4.3574,-4.3379,-4.329,-4.329,-4.329,-4.329,-4.3275,-4.2671,-4.1782,-4.0666,-4.0472,-3.9918,-3.905,-3.7883,-3.7404,-3.7345,-3.6731,-3.6596,-3.6671,-3.6013,-3.5774,-3.5744,-3.5053,-3.4949,-3.4775,-3.4071,-3.4034,-3.453,-3.5687,-3.5832,-3.6078,-3.6796,-3.6882,-3.6721,-3.627,-3.5604,-3.5151,-3.5128,-3.4494,-3.481,-3.6553,-3.7299,-3.8467,-4.0263,-4.1543,-4.1798,-4.107,-4.1678,-4.106,-3.9064,-3.8126,-3.7262,-3.6488,-3.5443,-3.3788,-3.17,-3.1601,-3.0172,-2.7834,-2.834,-2.8569,-2.8579,-2.8589,-2.8579,-2.8627,-2.9271,-2.886,-2.8034,-2.901,-3.0262,-3.1655,-3.3077,-3.3372,-3.333,-3.4651,-3.5155,-3.5066,-3.4002,-3.305,-3.2361,-3.2431,-3.3079,-3.3672,-3.3368,-3.3776,-3.4428,-3.4889,-3.6709,-3.8642,-3.9517,-4.2807,-4.555,-4.5865,-4.7474,-4.89,-4.9165,-4.9728,-4.9972,-4.9374,-4.8715,-4.8012,-4.7384,-4.7266,-4.7251,0.0,-4.6107,-4.5928,-4.7207,-4.7309,-4.7309,-4.7309,-4.7309,-4.6995,-4.6264,-4.5648,-4.4975,-4.4287,-4.3604,-4.329,-4.329,-4.329,-4.329,-4.3275,-4.2671,-4.2036,-4.1309,-4.0681,-3.9649,-3.8362,-3.7689,-3.7404,-3.7345,-3.6731,-3.6851,-3.73,-3.6686,-3.6462,-3.6372,-3.4955,-3.4559,-3.4037,-3.3299,-3.2846,-3.2874,-3.3734,-3.4743,-3.5687,-3.6396,-3.5838,0.0,0.0,0.0,0.0,0.0,-3.5495,-3.5918,-3.6029,-3.8842,-4.0515,-4.052,-4.3337,-4.4762,-4.4542,-4.5227,-4.5259,-4.4553,-4.345,-4.2521,-4.1715,-3.9561,-3.7882,-3.6748,-3.5633,-3.463,-3.3859,-3.4325,-3.4785,-3.5141,-3.4976,-3.4528,-3.3828,-3.3541,-3.2378,-3.0893,0.0,-3.0651,-3.0489,-3.1558,-3.2837,-3.4051,-3.4498,-3.464,-3.4277,-3.263,-3.2878,-3.377,-3.3987,-3.4753,-3.5394,-3.5084,-3.5479,-3.5862,-3.5514,-3.7472,-3.9499,-4.007,-4.1553,-4.272,-4.2808,-4.4926,-4.6642,-4.6722,-4.8683,-5.0121,-4.9942,-4.9344,-4.8686,-4.8027,-4.7952,0.0,0.0,0.0,0.0,-4.7266,-4.7309,-4.7309,-4.7309,-4.7309,-4.6995,-4.6309,-4.5648,-4.4975,-4.4332,-4.3618,-4.329,-4.329,-4.329,-4.288,-4.2028,-4.1841,-4.1115,-4.0068,-3.9843,-3.9484,-3.899,-3.7868,-3.7659,-3.8003,-3.7345,-3.7494,-3.7973,-3.7345,-3.7105,-3.6941,0.0,-3.3871,-3.3363,-3.2567,-3.2314,0.0,0.0,0.0,0.0,0.0,0.0,0.0,0.0,0.0,0.0,0.0,0.0,-3.5815,-3.6012,-3.8119,-3.9389,-3.9452,-4.2302,-4.3848,-4.3702,-4.4754,-4.5402,-4.5588,-4.5325,-4.5016,-4.4578,-4.3282,-4.2126,-4.1066,-4.0009,-3.9305,-3.8903,-3.8908,-3.8972,-3.9071,-3.8369,-3.7572,-3.667,-3.5738,-3.42,0.0,-3.1959,-3.0669,-2.9387,-3.0497,-3.1623,-3.2725,-3.3535,-3.405,-3.4211,-3.3434,-3.4174,-3.5395,-3.631,-3.6819,-3.7201,-3.7514,-3.7507,-3.7321,-3.6963,-3.8283,-3.9616,-3.9855,-4.0502,-4.0937,-4.0736,-4.2782,-4.4368,-4.4173,-4.6609,-4.8651,-4.9089,-4.8835,-4.8491,-4.8312,-4.8282,-4.8027,0.0,0.0,0.0,-4.7309,-4.7309,-4.7309,-4.7309,-4.7309,-4.6995,-4.6309,-4.5648,-4.4975,-4.4332,-4.3618,-4.329,-4.329,-4.309,-4.2536,-4.1752,-4.125,-4.0561,-3.9738,-3.926,-3.9185,-3.9269,-3.7719,-3.7749,-3.8676,-3.7764,-3.7808,-3.8317,-3.7659,-3.727,-3.6926,0.0,0.0,-3.2828,0.0,0.0,0.0,0.0,0.0,0.0,0.0,0.0,0.0,0.0,0.0,0.0,0.0,0.0,0.0,-3.6368,-3.5402,-3.5539,-3.7274,-3.9003,-3.9715,-3.9347,-4.1052,-4.2141,-4.2561,-4.4086,-4.4879,-4.4971,-4.6406,-4.6097,-4.433,-4.4303,-4.3698,-4.2644,-4.1814,-4.1134,-4.0448,-3.8858,-3.7932,-3.734,-3.6014,-3.4435,-3.2822,-3.227,-3.0528,-2.8686,-3.0029,-2.9921,-2.9646,-3.1925,-3.3498,-3.4812,-3.6126,-3.6593,-3.7139,-3.9098,-3.9258,-3.9193,-4.0439,-3.9721,-3.8802,-3.902,-3.9219,-3.9248,-3.8917,-3.9648,-4.0126,-3.9471,-4.1077,-4.232,-4.1787,-4.3888,-4.6027,-4.7359,-4.7534,-4.7713,-4.8267,-4.8341,-4.8057,-4.7369,0.0,0.0,-4.7309,0.0,-4.7309,-4.7309,-4.7309,-4.7025,-4.6354,-4.5678,-4.499,-4.4377,-4.3633,-4.329,-4.329,-4.2701,-4.241,-4.2306,-4.1025,-4.0397,-4.0232,-3.8975,-3.8796,-3.923,-3.736,-3.7689,-3.923,-3.7913,-3.7793,-3.8257,-3.7599,-3.6985,-3.6387,0.0,0.0,0.0,0.0,0.0,0.0,0.0,0.0,0.0,0.0,0.0,0.0,0.0,0.0,0.0,0.0,0.0,0.0,-3.5014,-3.6298,-3.7019,-3.697,-3.975,-4.124,-4.1137,-4.299,-4.3739,-4.3319,-4.5501,-4.5715,-4.4128,-4.4892,-4.4536,-4.3216,-4.3008,-4.2836,-4.2688,-4.2459,-4.2554,-4.2787,-4.1873,-4.0873,-3.9697,-3.7828,-3.5928,-3.3985,-3.2257,-3.089,-2.9887,-2.998,-3.0576,-3.1673,-3.359,-3.4772,-3.5522,-3.6302,-3.7878,-3.9501,-4.0047,-4.1483,-4.2603,-4.1607,-4.178,-4.1842,-4.0529,-4.0602,-4.04,-3.8639,-3.8217,-3.7441,-3.5183,-3.8065,-4.1032,-4.1963,-4.5552,-4.8864,-5.0668,-5.0526,-4.9927,-4.9164,-4.906,-4.8566,-4.7414,-4.7309,0.0,0.0,-4.7309,-4.7309,-4.7309,-4.7309,-4.7234,-4.7055,-4.5903,-4.5214,-4.505,-4.3858,-4.329,-4.329,-4.3125,-4.2581,-4.1647,-4.128,-4.0322,-3.8916,-3.908,-3.896,-3.8616,-3.8108,-3.8197,-3.8571,-3.7734,-3.7509,-3.7584,-3.6956,-3.6626,-3.6387,0.0,0.0,0.0,0.0,0.0,0.0,0.0,0.0,0.0,0.0,0.0,0.0,0.0,0.0,0.0,0.0,0.0,0.0,0.0,-3.569,-3.6366,-3.6282,-3.7957,-3.8974,-3.9114,-4.1082,-4.1679,-4.0795,-4.3925,-4.4506,-4.2732,-4.4102,-4.4106,-4.293,-4.2752,-4.2634,-4.247,-4.1855,-4.1651,0.0,0.0,-3.9882,-3.8747,-3.8066,-3.6766,-3.5173,-3.4117,-3.3479,-3.3019,-3.2163,-3.2515,-3.3542,-3.4927,-3.6308,-3.7544,-3.8378,-3.9905,-4.1384,-4.1968,-4.3195,-4.3975,-4.2669,-4.3092,-4.3124,-4.064,-4.0318,-3.985,-3.7374,-3.6389,-3.5373,-3.3584,-3.6275,-3.8995,-3.9598,-4.3585,-4.7309,-4.9274,-4.9753,-4.9763,-4.9359,-4.9314,-4.8745,-4.7429,-4.7309,-4.7309,0.0,-4.7309,-4.7309,-4.7309,-4.7309,-4.7309,-4.7309,-4.6292,-4.5469,-4.487,-4.4122,-4.3574,-4.329,-4.3045,-4.2372,-4.1407,-4.1085,-4.0172,-3.8841,0.0,-3.8646,-3.8751,-3.7599,-3.7629,-3.8302,-3.736,-3.7,-3.6956,-3.6611,-3.6297,-3.6013,0.0,0.0,0.0,0.0,0.0,0.0,0.0,0.0,0.0,0.0,-3.2439,-3.2736,-3.282,-3.2767,0.0,0.0,0.0,0.0,0.0,0.0,-3.5131,-3.587,-3.5625,-3.5647,-3.6001,-3.7927,-3.842,-3.7361,-4.1171,-4.2341,-4.0995,-4.3215,-4.3629,-4.2528,-4.2479,-4.2223,-4.1696,-4.0431,-3.9607,-3.911,-3.8339,-3.75,-3.6784,0.0,0.0,-3.6399,-3.6541,-3.6573,-3.6403,-3.5463,-3.5168,-3.5378,-3.6196,-3.7878,-3.9809,-4.1141,-4.1998,-4.2812,-4.4097,-4.4578,-4.4594,-4.3933,-4.4203,-4.3815,-4.065,-3.9674,-3.8643,-3.5813,-3.474,-3.4007,-3.3225,-3.5171,-3.6883,-3.6831,-4.0351,-4.3923,-4.6404,-4.7634,-4.8537,-4.9209,-4.9314,-4.8745,-4.7429,-4.7309,-4.7309,-4.7309,-4.7309,-4.7309,-4.7309,-4.7309,-4.7219,-4.704,-4.6576,-4.5592,-4.4197,-4.4272,-4.3947,-4.329,-4.2761,-4.2141,-4.1392,-4.0786,-4.0068,-3.9179,-3.8048,0.0,-3.899,-3.6791,-3.6821,-3.8153,-3.7045,-3.6552,-3.6477,-3.6387,-3.5998,-3.5504,0.0,0.0,0.0,0.0,0.0,0.0,0.0,0.0,0.0,0.0,-3.2721,-3.2792,0.0,0.0,0.0,0.0,0.0,0.0,0.0,0.0,0.0,-3.7483,-3.7148,-3.714,-3.7579,-3.8935,-3.9157,-3.8198,-4.0899,-4.117,-3.9154,-4.0249,-4.0364,-3.9606,-3.927,-3.9138,-3.9129,-3.8546,-3.8587,-3.9025,-3.8866,-3.875,-3.8674,0.0,0.0,0.0,-3.6886,-3.6239,-3.6061,-3.7853,-3.806,-3.7637,-3.8245,-3.9025,-4.0085,-4.1824,-4.2727,-4.3526,-4.4787,-4.6128,-4.7028,-4.6445,-4.6352,-4.5842,-4.3593,-4.1558,-3.9165,-3.5662,-3.4734,-3.386,-3.1709,-3.3528,-3.6294,-3.9058,-4.0906,-4.3754,-4.8794,-4.8827,-4.8536,-4.9209,-4.9314,-4.8745,-4.7429,-4.7309,0.0,0.0,-4.7309,-4.7309,-4.7309,-4.7309,-4.68,-4.5678,-4.6082,-4.5367,-4.3484,-4.4007,-4.3947,-4.329,-4.317,-4.2536,-4.1422,-4.1265,-4.0247,-3.8556,-3.8317,0.0,-3.7764,-3.7853,-3.7764,-3.7554,-3.733,-3.6941,-3.6417,-3.5878,-3.5609,-3.5504,0.0,0.0,0.0,0.0,0.0,0.0,0.0,-3.3124,-3.3917,-3.4566,-3.43,-3.4261,-3.477,-3.4152,-3.4061,0.0,0.0,0.0,0.0,0.0,0.0,0.0,0.0,0.0,-3.9193,-4.0895,-4.1083,-3.9659,0.0,-4.1529,-3.9331,-3.9717,-3.9349,-3.8348,-3.7929,-3.7597,-3.7409,-3.7359,-3.7516,-3.7963,-3.9114,-3.9403,0.0,0.0,0.0,0.0,0.0,-3.8018,-3.8265,-3.8355,-3.9033,-4.001,-4.1002,-4.1936,-4.2875,-4.3736,-4.4451,-4.5048,-4.5645,-4.6399,-4.6982,-4.6903,-4.6471,-4.5395,-4.2846,-4.0404,-3.77,-3.4164,-3.319,-3.2528,-3.0919,-3.3022,-3.5436,-3.6735,-3.9598,-4.3027,-4.675,-4.7892,-4.8534,-4.9239,-4.9314,-4.8745,-4.7429,-4.7309,-4.7309,-4.7309,-4.7309,-4.7309,-4.7309,-4.7309,-4.686,-4.5858,-4.6157,-4.5487,-4.3828,-4.4152,-4.3947,-4.329,-4.329,-4.2641,-4.1422,-4.1422,-4.0487,-3.8886,-3.8182,0.0,-3.7868,-3.718,-3.6911,-3.6896,-3.6552,-3.6237,-3.5938,-3.5624,-3.5504,-3.5504,0.0,0.0,0.0,0.0,0.0,0.0,-3.28,-3.3466,-3.4405,-3.5771,-3.6245,-3.6309,-3.5941,-3.4877,-3.4423,0.0,0.0,0.0,0.0,0.0,0.0,0.0,0.0,0.0,0.0,0.0,0.0,-4.116,-4.2758,0.0,0.0,0.0,0.0,0.0,-3.7863,-3.7373,-3.6998,-3.696,-3.7057,0.0,0.0,-3.9702,0.0,0.0,0.0,0.0,0.0,-3.9736,-4.0121,-3.8861,-3.9662,-4.1433,-4.2881,-4.3768,-4.428,-4.4475,-4.504,-4.5721,-4.6179,-4.6566,-4.6982,-4.7503,-4.6754,-4.5097,-4.2252,-3.9409,-3.6413,-3.3028,-3.1827,-3.1216,-3.0676,-3.2549,-3.4179,-3.4092,-3.7444,-4.0962,-4.3615,-4.5545,-4.7223,-4.8533,-4.8669,-4.8298,-4.737,-4.7309,0.0,-4.7309,-4.7309,-4.7309,-4.7309,-4.7309,-4.6935,-4.6127,-4.6247,-4.5577,-4.4122,-4.4242,-4.3947,-4.329,-4.329,-4.2641,-4.1422,-4.1422,-4.0666,-3.9313,-3.8138,0.0,0.0,-3.6746,-3.6342,-3.6626,-3.6118,-3.5833,-3.5699,-3.5549,-3.5504,-3.5504,0.0,0.0,0.0,0.0,0.0,0.0,-3.28,-3.4409,-3.5883,-3.6689,-3.802,-3.8517,-3.7593,-3.6483,-3.599,0.0,0.0,0.0,0.0,0.0,0.0,0.0,0.0,0.0,0.0,0.0,0.0,-4.2326,-4.3667,0.0,0.0,0.0,0.0,0.0,0.0,-3.8874,-3.8874,-3.7793,0.0,0.0,0.0,0.0,0.0,0.0,0.0,0.0,0.0,-3.9753,-3.9392,-4.095,-4.1058,-4.0734,-4.2203,-4.1725,-4.0734,-4.1538,-4.2505,-4.3766,-4.5765,-4.7399,-4.8798,-4.9834,-4.8797,-4.6967,-4.4678,-4.0958,-3.7098,-3.3774,-3.2009,-3.1044,-3.1125,-3.1341,-3.2215,-3.4293,-3.4602,-3.6352,-4.1249,-4.175,-4.2856,-4.6249,-4.6671,-4.6821,-4.7282,-4.7309,-4.7309,-4.7309,-4.7309,-4.7309,-4.7309,-4.7309,-4.6711,-4.5424,-4.5992,-4.5352,-4.3409,-4.4018,-4.3947,-4.329,-4.329,-4.2641,-4.1422,-4.1422,-4.0666,-3.9379,-3.8631,0.0,0.0,-3.8197,-3.7808,-3.7315,-3.7255,-3.6896,-3.6327,-3.5729,-3.5504,-3.5504,0.0,0.0,0.0,0.0,0.0,0.0,-3.28,-3.3557,-3.4816,-3.6988,-3.7804,-3.8477,-3.9307,-3.8591,-3.7717,-3.6869,-3.6795,0.0,0.0,0.0,0.0,0.0,0.0,0.0,0.0,0.0,-4.3611,-4.3865,-4.4814,0.0,0.0,0.0,0.0,0.0,0.0,-3.9987,-3.9244,-3.892,0.0,0.0,0.0,0.0,0.0,0.0,0.0,0.0,0.0,0.0,-3.9844,-4.0223,-4.0169,-3.9883,-3.9243,-3.897,-3.9394,-4.2313,-4.3721,-4.4776,-4.6452,-4.737,-4.8141,-4.9191,-4.7549,-4.5321,-4.3867,-4.0453,-3.6779,-3.3811,-3.2376,-3.1554,-3.1254,-3.1201,-3.1631,-3.296,-3.3596,-3.5162,-3.8727,-3.99,-4.1376,-4.3933,-4.4509,-4.4789,0.0,0.0,-4.6447,-4.7251,-4.7309,-4.7309,-4.7309,-4.7309,-4.6696,-4.5334,-4.5559,-4.4945,-4.3305,-4.3544,-4.3544,-4.329,-4.294,-4.2267,-4.1407,-4.0965,-4.0292,-3.9343,-3.8691,0.0,0.0,-3.7958,-3.7419,-3.6851,-3.6851,-3.6462,-3.5863,-3.5609,-3.5504,-3.5392,0.0,0.0,0.0,0.0,0.0,-3.2041,-3.28,-3.3283,-3.4525,-3.7167,-3.7702,-3.8527,-4.036,-3.9638,-3.8809,-3.8204,-3.7733,0.0,0.0,0.0,0.0,0.0,0.0,0.0,0.0,0.0,-4.447,-4.529,-4.5924,-4.6062,0.0,0.0,-4.4491,-4.2829,0.0,0.0,0.0,0.0,0.0,0.0,0.0,0.0,0.0,0.0,0.0,0.0,0.0,0.0,0.0,0.0,0.0,-3.9486,-3.7657,-3.757,-3.8692,-4.1671,-4.3369,-4.4614,-4.6013,-4.686,-4.7538,-4.8569,-4.6686,-4.4328,-4.3406,-4.0435,-3.7157,-3.4619,-3.3193,-3.2273,-3.1757,-3.1461,-3.1469,-3.2073,-3.2907,-3.4303,-3.6533,-3.7808,-3.925,-4.1256,-4.18,-4.2304,-4.291,-4.4092,-4.5207,-4.6107,-4.6315,-4.6445,-4.6445,-4.6311,-4.5921,-4.5319,-4.511,-4.4466,-4.3305,-4.329,-4.329,-4.329,-4.2671,-4.2051,-4.1392,-4.0696,-4.0038,-3.9358,-3.8901,0.0,0.0,-3.7973,-3.733,-3.6746,-3.6552,-3.6088,-3.5504,-3.5504,-3.5504,-3.5392,0.0,0.0,0.0,0.0,0.0,-3.2041,-3.28,-3.4197,-3.5732,-3.7305,-3.8151,-3.9118,-4.0525,-3.9207,-3.9071,-4.118,-3.9917,0.0,0.0,0.0,0.0,0.0,0.0,0.0,-4.2313,-4.3563,-4.4941,-4.6483,-4.6941,-4.7557,-4.8251,-4.7443,-4.6103,-4.4345,0.0,0.0,0.0,0.0,0.0,0.0,0.0,0.0,-4.1426,0.0,0.0,0.0,0.0,0.0,0.0,0.0,0.0,0.0,0.0,-3.8178,-3.8407,-3.8437,-4.0153,-4.2357,-4.3909,-4.5798,-4.7538,-4.8569,-4.7037,-4.5021,-4.4103,-4.1505,-3.8708,-3.6671,-3.4576,-3.3033,-3.282,-3.209,-3.1616,-3.2036,-3.2396,-3.3212,-3.487,-3.4931,-3.5627,-3.8047,-3.836,-3.9253,-4.1602,-4.2879,-4.3551,-4.3551,-4.4075,0.0,-4.4422,-4.392,-4.4164,-4.5248,-4.4661,-4.4003,-4.3305,-4.329,-4.329,-4.329,-4.2671,-4.2051,-4.1392,-4.0696,-4.0038,0.0,0.0,0.0,0.0,-3.8661,-3.7988,-3.7345,-3.6731,-3.6088,-3.5504,-3.5504,-3.5504,-3.5504,0.0,0.0,0.0,0.0,0.0,0.0,-3.2179,-3.299,-3.418,-3.5735,-3.6559,-3.7757,-3.9667,-3.9361,-3.9464,-4.0568,-4.0103,0.0,0.0,0.0,0.0,0.0,0.0,-4.3318,-4.387,-4.513,-4.6273,-4.731,-4.8332,-4.9238,-4.9994,-4.9187,-4.8118,-4.6844,-4.6022,-4.4703,0.0,0.0,0.0,0.0,0.0,-4.1613,-4.0802,0.0,0.0,0.0,0.0,0.0,0.0,0.0,0.0,0.0,0.0,0.0,0.0,-3.8257,-3.9586,-4.1308,-4.3145,-4.4067,-4.4548,-4.4467,-4.3515,-4.2323,-4.1094,-3.9346,-3.7562,-3.5948,-3.5086,-3.4325,-3.345,-3.2776,-3.2539,-3.2899,-3.2425,-3.2377,-3.355,-3.462,-3.568,-3.6879,-3.8357,-3.9899,0.0,0.0,-4.243,-4.2923,-4.3134,-4.3055,-4.2666,-4.2018,-4.2207,-4.3407,-4.3259,-4.2809,-4.2167,-4.29,-4.3105,-4.2671,-4.2051,-4.1392,-4.0681,-4.0023,-3.9619,0.0,0.0,0.0,0.0,-3.7311,-3.6783,-3.6679,-3.5835,-3.548,-3.5504,-3.5504,-3.5504,-3.5466,0.0,0.0,0.0,0.0,0.0,0.0,-3.1903,-3.2679,-3.3904,-3.5421,-3.6284,-3.771,-4.0167,-3.9819,-3.988,-4.1095,-4.1044,0.0,0.0,0.0,0.0,0.0,-4.3278,-4.3805,-4.4598,-4.5646,-4.6711,-4.7754,-4.8792,-4.9816,-5.0839,-5.0297,-4.9327,-4.7974,-4.7481,-4.5981,0.0,0.0,0.0,0.0,-4.2198,-4.1706,-4.0489,0.0,0.0,0.0,0.0,0.0,0.0,0.0,0.0,0.0,0.0,0.0,0.0,0.0,-3.8296,-3.9684,-4.198,-4.2916,-4.32,-4.2821,-4.2043,-4.1062,-3.9676,-3.8328,-3.7107,-3.6225,-3.5217,-3.4466,-3.4489,-3.3362,-3.2631,-3.3216,-3.2676,-3.2536,-3.3694,-3.4632,-3.5483,-3.6295,-3.7965,0.0,0.0,-4.0622,-4.0984,-4.1242,-4.1464,0.0,-4.0759,-4.0114,-4.0145,-4.0892,-4.1339,-4.161,-4.1601,-4.2056,-4.2322,-4.2396,-4.1482,-4.0786,-4.0382,-3.9723,-3.9388,0.0,0.0,0.0,0.0,-3.6391,-3.5738,-3.5849,-3.496,-3.4743,-3.4986,-3.5359,-3.5504,-3.5451,0.0,0.0,0.0,0.0,0.0,0.0,0.0,-3.3233,-3.47,-3.6111,-3.6991,-3.8599,-4.1464,-4.0347,-4.0229,-4.2296,-4.2334,0.0,0.0,0.0,0.0,-4.2373,-4.3089,-4.3844,-4.4598,-4.537,-4.6476,-4.7877,-4.8624,-4.9643,-5.0976,-5.0918,-4.9931,-4.8176,-4.8121,-4.6539,0.0,0.0,0.0,0.0,-4.2245,-4.1739,0.0,0.0,0.0,0.0,0.0,0.0,0.0,0.0,0.0,0.0,0.0,0.0,0.0,0.0,0.0,0.0,0.0,-4.204,-4.3006,-4.2946,-4.2102,-4.0867,-3.9422,-3.8125,0.0,-3.7121,-3.4992,-3.3724,-3.5591,-3.3707,-3.2176,-3.3053,-3.3003,-3.333,-3.4806,-3.4974,-3.5341,-3.6405,-3.745,0.0,-3.8015,-3.8994,-3.9408,-3.8906,-3.931,0.0,-3.8766,-3.8274,-3.7958,-3.7919,-3.8996,-4.0119,-4.1265,-4.0775,-4.1026,-4.2115,-4.089,-4.0293,-4.0307,-3.9694,-3.9388,0.0,0.0,0.0,0.0,-3.5904,-3.5004,-3.4952,-3.4257,-3.4027,-3.4211,-3.5166,-3.5504,-3.5519,0.0,0.0,0.0,0.0,0.0,0.0,0.0,0.0,0.0,0.0,-3.6991,-3.7996,-3.925,-3.9403,-3.9621,0.0,0.0,0.0,0.0,0.0,0.0,-4.2478,-4.3144,-4.3853,-4.4664,-4.5909,-4.7244,-4.864,-4.9943,-5.0998,-5.1806,-5.174,-5.1108,-4.9958,-4.9236,-4.7673,0.0,0.0,0.0,0.0,-4.2642,-4.2013,0.0,0.0,0.0,0.0,-4.0489,-4.0401,0.0,0.0,0.0,0.0,0.0,0.0,0.0,0.0,-3.6824,-3.7115,-3.78,0.0,-4.0202,-3.9679,-3.9709,-3.9377,0.0,-3.6779,-3.6223,-3.5146,-3.4423,-3.4015,-3.4303,-3.3498,-3.2833,-3.2946,-3.2534,-3.2676,-3.3991,-3.5952,-3.7324,-3.7588,-3.8617,-3.8956,-3.809,-3.8642,-3.8831,-3.8253,-3.7969,-3.7591,-3.7032,-3.6879,-3.6612,-3.6146,-3.6383,-3.7116,-3.8303,-3.9015,-3.9458,-3.9615,-3.9324,-3.9325,-3.9649,-3.9448,-3.9388,0.0,0.0,0.0,-3.75,-3.5729,-3.5132,-3.5274,-3.437,-3.4461,-3.518,-3.5392,-3.5504,-3.5579,0.0,0.0,0.0,0.0,0.0,0.0,0.0,0.0,0.0,0.0,-3.6948,-3.7816,-3.89,-3.9545,-3.9887,0.0,0.0,0.0,0.0,-4.1971,-4.2823,-4.2542,-4.2783,-4.36,-4.5135,-4.5935,-4.7031,-4.8449,-4.9976,-5.1034,-5.1643,-5.2005,-5.1773,-5.0973,-4.9135,-4.7352,-4.5673,-4.4906,-4.4179,-4.3453,-4.2769,0.0,0.0,0.0,0.0,0.0,-4.0436,-4.0296,0.0,-3.9925,-3.8899,-3.7686,0.0,0.0,0.0,0.0,-3.5644,-3.5875,-3.5585,-3.6841,-3.8258,-3.8303,-3.8113,-3.7513,-3.61,-3.5295,-3.4598,-3.3725,-3.3047,-3.2773,-3.3448,-3.3247,-3.2962,-3.279,-3.3339,-3.4058,-3.4909,-3.6094,-3.7161,-3.7914,-3.8542,-3.8781,0.0,-3.8693,-3.858,-3.7688,0.0,-3.6996,-3.6443,-3.6119,-3.5855,-3.5508,-3.5257,-3.5717,-3.6942,-3.7225,-3.7634,-3.8085,-3.8245,-3.844,-3.8671,-3.9177,-3.9245,0.0,0.0,0.0,-3.6858,-3.5199,-3.4666,-3.4758,-3.4211,-3.4312,-3.4872,-3.5326,-3.5504,-3.5549,0.0,0.0,0.0,0.0,0.0,0.0,0.0,0.0,0.0,0.0,0.0,0.0,0.0,0.0,0.0,0.0,0.0,-4.2015,-4.0561,-4.1769,-4.2604,-4.2695,-4.2278,-4.3142,-4.5437,-4.5588,-4.6391,-4.7888,-4.9487,-5.0535,-5.1104,-5.206,-5.2096,-5.1199,-4.865,-4.6688,-4.5294,-4.4905,-4.4337,-4.3617,-4.2923,0.0,0.0,0.0,0.0,0.0,0.0,0.0,0.0,-3.9768,-3.8442,-3.688,-3.688,0.0,0.0,0.0,0.0,0.0,-3.3929,-3.5169,-3.6797,-3.7658,-3.6987,-3.593,-3.5157,-3.4016,-3.2983,-3.2576,-3.1514,-3.1239,-3.304,-3.2956,-3.2695,-3.2806,-3.4521,-3.6037,-3.6568,-3.6358,-3.6586,-3.7864,-3.8153,0.0,-3.8642,-3.8693,-3.8304,-3.7262,0.0,-3.6908,-3.643,-3.5843,-3.5458,-3.537,-3.4756,-3.4971,-3.5956,-3.5489,-3.5763,-3.6796,-3.7172,-3.7429,-3.7685,-3.8583,-3.8728,-3.8212,0.0,0.0,-3.6399,-3.499,-3.4332,-3.4245,-3.4245,-3.4245,-3.4312,-3.518,-3.5504,-3.5504,0.0,0.0,0.0,0.0,0.0,0.0,0.0,0.0,0.0,0.0,0.0,0.0,0.0,0.0,0.0,0.0,-4.2494,-4.2674,-4.1229,-4.2767,-4.3579,-4.3217,-4.2081,-4.2433,-4.4538,-4.4771,-4.586,-4.7898,-4.9406,-5.0404,-5.0964,-5.2397,-5.1963,-4.9938,-4.8873,-4.7254,-4.5302,-4.5467,-4.5105,-4.4384,-4.3647,0.0,0.0,0.0,0.0,0.0,0.0,0.0,0.0,-3.9717,-3.8442,-3.688,-3.688,0.0,0.0,0.0,0.0,0.0,-3.3259,-3.4241,-3.54,-3.6224,-3.6245,-3.5741,-3.4406,-3.3567,-3.2688,-3.1322,-3.0863,-3.1293,-3.3279,-3.2448,-3.2017,-3.3665,-3.4836,-3.6056,-3.755,-3.8504,-3.8793,-3.809,0.0,-3.8906,-3.7575,-3.7864,-3.7877,0.0,0.0,-3.6505,-3.6417,-3.5843,-3.5282,-3.4818,-3.3859,-3.3449,-3.3609,-3.3946,-3.4474,-3.5071,-3.5142,-3.5819,-3.6956,-3.7104,-3.7344,-3.7554,0.0,-3.706,-3.6477,-3.6224,-3.5785,-3.5279,-3.5279,-3.5279,-3.5279,-3.5424,-3.5504,-3.5504,0.0,0.0,0.0,0.0,0.0,0.0,0.0,0.0,0.0,0.0,0.0,0.0,0.0,0.0,0.0,0.0,-4.2528,-4.2618,-4.1933,-4.296,-4.3448,-4.3092,-4.2186,-4.2643,-4.4742,-4.4509,-4.568,-4.8332,-4.9078,-5.021,-5.1664,-5.2272,-5.1383,-4.9235,-4.8417,-4.7121,-4.5503,-4.5207,-4.4891,-4.4542,0.0,0.0,0.0,0.0,0.0,0.0,0.0,0.0,0.0,0.0,-3.7184,-3.6273,-3.59,0.0,0.0,0.0,0.0,0.0,-3.1915,-3.2458,-3.332,-3.4526,-3.5462,-3.6091,-3.5866,-3.4803,-3.343,-3.1959,-3.1672,-3.1939,-3.2739,-3.3254,-3.4306,-3.6751,-3.6241,-3.6072,-3.7776,-3.7425,-3.7149,0.0,0.0,-3.7713,-3.7224,-3.7412,0.0,0.0,0.0,0.0,-3.5491,-3.4951,-3.4537,-3.4286,-3.3194,-3.2754,-3.3124,-3.2717,-3.3001,-3.3839,-3.4428,-3.5143,-3.6014,-3.6539,-3.685,-3.6911,0.0,-3.6552,-3.5953,-3.5953,-3.5774,-3.5504,-3.5504,-3.5504,-3.5504,-3.5504,-3.5504,-3.5504,0.0,0.0,0.0,0.0,0.0,0.0,0.0,0.0,0.0,0.0,0.0,0.0,0.0,0.0,0.0,0.0,-4.2535,-4.2631,-4.2402,-4.3115,-4.3413,-4.3172,-4.2652,-4.3136,-4.4737,-4.4159,-4.5235,-4.8162,-4.8808,-5.0385,-5.2809,-5.2243,-5.0965,-4.9115,-4.8277,-4.7066,-4.5669,-4.5094,-4.4767,-4.4542,0.0,0.0,0.0,0.0,0.0,0.0,0.0,0.0,0.0,0.0,0.0,0.0,0.0,0.0,0.0,-3.262,-3.2045,-3.1421,-3.0931,-3.1268,-3.2012,-3.3237,-3.43,-3.5421,-3.6781,-3.5556,-3.3943,-3.3216,-3.3073,-3.3068,-3.2968,-3.4455,-3.636,-3.8404,-3.7262,-3.6561,-3.8015,-3.6759,-3.6107,-3.7249,-3.6998,-3.6908,-3.7161,-3.7073,0.0,0.0,0.0,0.0,-3.4705,-3.4198,-3.3897,-3.3897,-3.2679,-3.229,-3.2867,-3.1763,-3.1763,-3.291,-3.3604,-3.4139,-3.453,-3.5302,-3.5655,-3.5589,-3.5589,-3.541,-3.5133,-3.5133,-3.5279,-3.5504,-3.5504,-3.5504,-3.5504,-3.5504,-3.5504,-3.5504,0.0,0.0,0.0,0.0,0.0,0.0,0.0,0.0,0.0,0.0,0.0,0.0,0.0,0.0,-4.1441,-4.2219,-4.2929,-4.3043,-4.2361,-4.3523,-4.4143,-4.392,-4.3701,-4.3663,-4.3793,-4.3276,-4.4174,-4.6575,-4.8692,-5.1329,-5.4319,-5.2671,-5.1203,-4.9883,-4.9078,-4.7598,-4.5703,-4.5652,-4.5229,-4.4615,-4.4542,0.0,0.0,0.0,0.0,0.0,0.0,0.0,0.0,0.0,0.0,0.0,0.0,0.0,-3.1915,-3.1876,-3.1356,-3.0828,-3.11,-3.1784,-3.2516,-3.3003,-3.2374,-3.2393,-3.5545,-3.4597,-3.3343,-3.4578,-3.4838,-3.4913,-3.5215,-3.5834,-3.6232,-3.5859,-3.696,-3.8065,-3.8718,0.0,-3.8417,-3.8002,-3.7914,-3.7701,-3.7224,0.0,0.0,0.0,0.0,0.0,-3.468,-3.4198,-3.3897,-3.3897,-3.2303,-3.1712,-3.2277,-3.121,-3.121,-3.2265,-3.1833,-3.1869,-3.2246,-3.2309,-3.255,-3.2889,-3.2889,-3.3353,-3.4095,-3.4095,-3.4658,-3.5504,-3.5504,-3.5504,-3.5504,-3.5504,-3.5504,-3.5504,0.0,0.0,0.0,0.0,0.0,0.0,0.0,0.0,0.0,0.0,0.0,-4.197,-4.3706,0.0,-4.1264,-4.2844,-4.2828,-4.2787,-4.2948,-4.3924,-4.4188,-4.3534,-4.3754,-4.3609,-4.3042,-4.3507,-4.455,-4.6109,-4.9021,-5.1161,-5.2431,-5.1764,-5.0463,-4.866,-4.8392,-4.7563,-4.6346,-4.5889,-4.5551,-4.5229,-4.4801,-4.4179,0.0,0.0,0.0,0.0,0.0,0.0,0.0,0.0,-3.4632,-3.4278,-3.3096,-3.2318,-3.1759,-3.1487,-3.1087,-3.0583,-3.0075,-3.0964,-3.2022,-3.2018,-3.1672,-3.2288,-3.6008,-3.5932,-3.5115,-3.5256,-3.586,-3.6301,-3.6081,-3.6797,-3.7211,-3.6659,-3.7676,-3.8492,-3.8354,-3.8329,-3.8128,-3.7563,-3.7199,-3.6958,-3.6732,0.0,0.0,0.0,0.0,0.0,-3.3721,-3.3508,-3.3219,-3.2855,-3.1901,-3.1486,-3.17,-3.0633,-3.0482,-3.1223,-3.1336,-3.1634,-3.2,-3.2,-3.2233,-3.2593,-3.2593,-3.282,-3.3136,-3.3136,-3.3719,-3.461,-3.5246,-3.4773,-3.3837,-3.5067,-3.51,-3.4658,0.0,0.0,0.0,0.0,0.0,0.0,0.0,0.0,-4.2975,0.0,0.0,0.0,0.0,-4.2287,0.0,0.0,-4.2946,-4.2861,-4.3358,-4.4156,-4.4191,-4.3234,-4.357,-4.3441,-4.2727,-4.3632,-4.4664,-4.5849,-4.918,-5.0942,-5.1211,-5.1189,-5.0255,-4.8578,-4.8122,-4.7631,-4.7073,-4.6109,-4.5703,-4.5652,-4.4919,-4.431,0.0,0.0,0.0,0.0,0.0,0.0,0.0,0.0,-3.3649,-3.3551,-3.1986,-3.1474,-3.1383,-3.1061,-3.0971,-3.083,-2.9974,-3.0643,-3.1612,-3.1653,-3.1524,-3.2365,-3.6081,-3.637,-3.6044,-3.6709,-3.7036,-3.7023,-3.6505,-3.6973,-3.7312,-3.6759,-3.7751,-3.8391,-3.7826,-3.7751,-3.755,-3.6985,-3.6631,-3.6405,0.0,0.0,0.0,0.0,0.0,0.0,0.0,-3.2905,-3.2616,-3.2227,-3.1524,-3.1148,-3.1148,-3.0244,-2.998,-3.0357,-3.0721,-3.1055,-3.1318,-3.1318,-3.1463,-3.1733,-3.1733,-3.1865,-3.2177,-3.2177,-3.2713,-3.3636,-3.4327,-3.3754,-3.2749,-3.409,-3.4158,-3.3705,0.0,0.0,0.0,0.0,0.0,0.0,0.0,0.0,-4.3156,-4.2953,-4.2962,0.0,0.0,0.0,0.0,0.0,-4.3392,-4.3392,-4.3375,-4.414,-4.4174,-4.3218,-4.3266,-4.3211,-4.3009,-4.3391,-4.4308,-4.5705,-4.9032,-5.0834,-5.1201,-5.1194,-5.0794,-4.9999,-4.8578,-4.7889,-4.7787,-4.6346,-4.572,-4.5652,-4.4919,-4.4615,-4.4514,0.0,0.0,0.0,0.0,0.0,0.0,0.0,-3.3797,-3.3008,-3.1868,-3.1125,-3.066,-3.0444,-3.1006,-3.1569,-3.0999,-3.1133,-3.1524,-3.2064,-3.1813,-3.229,-3.5651,-3.5516,-3.568,-3.9007,-3.8354,-3.701,-3.6518,-3.6417,-3.6182,-3.5596,-3.6875,-3.7814,-3.7249,-3.7186,-3.6973,-3.6468,-3.6405,-3.6405,0.0,0.0,0.0,0.0,0.0,0.0,0.0,-3.2528,-3.2215,-3.2202,-3.1173,-3.062,-3.0608,-3.0068,-2.9792,-2.9792,-2.9792,-2.9792,-2.9792,-2.9792,-2.9792,-2.9792,-2.9792,-3.0317,-3.118,-3.1217,-3.1742,-3.2571,-3.2593,-3.2593,-3.2571,-3.2593,-3.2593,-3.2713,0.0,0.0,0.0,0.0,0.0,0.0,0.0,0.0,-4.5319,-4.4602,-4.4087,0.0,0.0,0.0,0.0,0.0,0.0,-4.32,-4.2658,-4.3878,-4.3809,-4.2022,-4.3278,-4.3513,-4.2533,-4.368,-4.505,-4.6526,-4.7684,-4.8631,-4.9438,-4.9593,-4.9252,-4.8578,-4.8646,-4.8105,-4.7107,-4.665,-4.6177,-4.5652,-4.4919,-4.4615,-4.4519,0.0,0.0,0.0,0.0,0.0,0.0,0.0,0.0,0.0,-3.185,-3.1378,-3.0971,-2.9491,-3.0047,-3.0779,-2.9047,-3.0233,-3.1825,-3.1235,-3.2428,-3.4198,-3.6003,-3.5818,-3.5984,-3.8592,-3.7293,-3.5904,-3.6816,-3.6124,-3.543,-3.5506,-3.6609,-3.7236,-3.6732,-3.6935,-3.6973,-3.6468,-3.6405,0.0,0.0,0.0,0.0,0.0,0.0,0.0,0.0,-3.2528,-3.2039,-3.165,-3.0972,-3.0432,-3.0043,-2.988,-2.9792,-2.9792,-2.9792,-2.9792,-2.9792,-2.9792,-2.9792,-2.9792,-2.9792,-2.9972,-3.0279,-3.0932,-3.097,-3.0784,-3.2069,-3.1792,-3.0771,-3.2105,-3.2177,-3.1852,0.0,0.0,0.0,0.0,0.0,0.0,-4.5245,-4.6016,-4.6136,-4.4832,-4.4841,-4.4915,0.0,0.0,0.0,-4.3842,-4.3876,-4.3555,-4.2794,-4.3893,-4.3643,-4.1486,-4.2799,-4.3128,-4.216,-4.3756,-4.491,-4.5491,-4.6269,-4.7093,-4.7841,-4.8298,-4.8425,-4.8376,-4.8798,-4.8342,-4.7225,-4.6921,-4.6363,-4.5652,-4.4919,-4.4615,-4.4564,0.0,0.0,0.0,0.0,0.0,0.0,0.0,0.0,0.0,-3.2074,-3.1545,-3.1266,-3.0107,-3.0152,-3.0521,-3.0172,-3.0651,-3.1484,-3.2616,-3.3122,-3.3659,-3.4775,-3.5551,-3.6346,-3.7502,-3.5881,-3.4734,-3.6149,-3.5055,0.0,-3.5628,-3.598,-3.6146,-3.636,-3.6694,-3.6646,-3.6107,-3.6031,0.0,0.0,0.0,0.0,0.0,0.0,0.0,0.0,-3.2403,-3.1863,-3.111,-3.0783,-3.0357,-2.9804,-2.9792,-2.9792,-2.9792,-2.9792,-2.9792,-2.9792,-2.9792,-2.9792,-2.9792,-2.9792,-2.9792,-2.9818,-3.0419,-3.0317,-2.9895,-3.1057,-3.102,-3.0457,-3.1206,-3.1365,-3.1352,0.0,0.0,-4.3972,-4.5512,0.0,0.0,-4.5253,-4.6023,-4.5989,-4.4331,-4.5319,-4.5785,0.0,0.0,0.0,-4.4598,-4.4615,-4.4248,-4.3443,-4.4147,-4.3643,-4.1486,-4.2074,-4.2365,-4.209,-4.3678,-4.4128,-4.329,-4.4933,-4.5912,-4.6378,-4.714,-4.7996,-4.8861,-4.8903,-4.8494,-4.7736,-4.7005,-4.6261,-4.5551,-4.4886,-4.4615,-4.4598,-4.453,0.0,0.0,0.0,0.0,0.0,0.0,0.0,0.0,-3.267,-3.1819,-3.1492,-3.1533,-3.0893,-3.0597,-3.2785,-3.1621,-3.079,-3.4883,-3.3643,-3.1762,-3.2766,-3.4705,-3.6176,-3.5817,-3.4411,-3.3652,-3.4973,-3.3661,-3.3189,-3.581,-3.5223,-3.4836,-3.6061,-3.631,-3.6182,-3.5633,-3.552,0.0,0.0,0.0,0.0,0.0,0.0,0.0,0.0,-3.219,-3.1687,-3.0721,-3.0595,-3.0306,-2.9792,-2.9792,-2.9792,-2.9792,-2.9792,-2.9792,-2.9792,-2.9792,-2.9792,-2.9792,-2.9792,-2.9792,-2.9792,-2.9792,-2.9792,-2.9792,-2.9895,-3.0457,-3.1106,-3.0241,-3.052,-3.1315,0.0,0.0,-4.4462,-4.4812,0.0,0.0,-4.5904,-4.6179,-4.6189,-4.5699,-4.5426,-4.5111,-4.4643,-4.4643,0.0,-4.4598,-4.4615,-4.4248,-4.3443,-4.4147,-4.3643,-4.1486,-4.2019,-4.2725,-4.3517,-4.3778,-4.3692,-4.329,-4.3874,-4.4488,-4.519,-4.5699,-4.6666,-4.7917,-4.8068,-4.7733,-4.6989,-4.6261,-4.55,-4.4835,-4.4666,-4.4615,-4.4547,-4.391,-4.3371,0.0,0.0,0.0,0.0,0.0,0.0,0.0,-3.4832,-3.3087,-3.132,-3.0535,-3.0396,-3.0314,-2.9546,-3.0006,-3.0911,-3.1698,-3.2381,-3.2886,-3.3099,-3.2729,-3.263,-3.3571,-3.3722,-3.4009,-3.4982,-3.391,-3.326,-3.4592,-3.4581,-3.4483,-3.4775,-3.5715,-3.6367,-3.6194,-3.5805,0.0,0.0,0.0,0.0,0.0,0.0,0.0,-3.2893,-3.2051,-3.1461,-3.1235,-3.0407,-2.9917,-2.9792,-2.9792,-2.9792,0.0,-2.9792,-2.9792,-2.9792,-2.9792,-2.9792,-2.9792,-2.9792,-2.9792,-2.9792,-2.9792,-2.9792,-2.9856,-3.062,-3.1007,-3.118,-3.097,-3.1499,-3.2321,0.0,0.0,0.0,0.0,0.0,0.0,0.0,0.0,-4.6957,-4.564,-4.5821,-4.5578,-4.4175,-4.4028,0.0,0.0,-4.3809,-4.3707,-4.2929,-4.3944,-4.3885,-4.2315,-4.2479,-4.2803,-4.3302,-4.3154,-4.2998,-4.2865,-4.2368,-4.3054,-4.4796,-4.4708,-4.5725,-4.7589,-4.7331,-4.7052,-4.6735,-4.6007,-4.5263,-4.4615,-4.4615,-4.4615,-4.4513,-4.3724,-4.32,-4.2699,-4.1258,0.0,0.0,0.0,0.0,0.0,0.0,0.0,-3.2946,-3.1774,-3.0894,-3.0351,-3.0778,-3.0141,-2.9473,-2.9772,-3.1036,-3.2001,-3.1328,-3.0419,-2.9966,-3.0685,-3.1032,-3.1528,-3.2654,-3.1696,-3.132,-3.3101,-3.2855,-3.2917,-3.4227,-3.4981,-3.547,-3.5583,0.0,0.0,0.0,0.0,0.0,0.0,0.0,-3.2842,-3.2303,-3.1964,-3.1424,-3.0645,-3.0344,-3.0055,-2.9792,-2.9792,-2.9792,-2.9792,-2.9792,-2.9792,-2.9792,-2.9792,-2.9792,-2.9792,-2.9792,-2.9792,-2.9792,-2.9792,-3.0075,-3.052,-3.1007,-3.1742,-3.25,-3.2033,-3.2464,-3.3206,0.0,0.0,0.0,0.0,0.0,0.0,0.0,0.0,0.0,-4.5086,-4.6004,-4.5976,-4.3667,-4.3392,-4.3115,0.0,0.0,0.0,-4.2337,-4.3506,-4.3872,-4.3057,-4.2858,-4.2659,-4.2454,-4.2293,-4.2231,-4.2231,-4.11,-4.1941,-4.4533,-4.3923,-4.4899,-4.7139,-4.6454,-4.631,-4.6553,-4.5681,-4.5042,-4.4615,-4.4615,-4.453,-4.4327,-4.3521,-4.2828,-4.2185,-4.1322,-4.0848,-4.0496,-3.9464,0.0,0.0,0.0,0.0,-3.4644,-3.3294,-3.1542,-3.0432,-3.252,-3.0396,-2.7831,-2.8668,-2.9677,-3.0228,-2.9051,-2.8545,-2.8291,-2.8291,-2.8495,-2.9006,-3.012,-2.9408,-2.9355,-3.1571,-3.1019,-3.1081,-3.3365,-3.408,-3.4426,-3.4507,0.0,0.0,0.0,0.0,0.0,0.0,0.0,-3.2516,-3.1587,-3.1788,-3.1323,-2.998,-3.0281,-3.0256,-2.9792,-2.9792,-2.9792,-2.9792,-2.9792,-2.9792,-2.9792,-2.9792,-2.9792,-2.9792,-2.9792,-2.9792,-2.9792,-2.9792,-3.0343,-3.1217,-3.1389,-3.25,-3.391,-3.3136,-3.3449,-3.4129,0.0,0.0,0.0,0.0,0.0,0.0,0.0,0.0,0.0,0.0,-4.4973,-4.468,-4.3521,-4.3392,-4.3115,-4.2354,-4.2388,-4.2405,-4.2303,0.0,0.0,-4.2334,-4.2181,-4.2032,-4.1814,-4.1618,-4.1504,-4.1504,-4.1324,-4.203,-4.3482,-4.3113,-4.3847,-4.5421,-4.4914,-4.5114,-4.5773,-4.4378,-4.4102,-4.4615,-4.4615,-4.4181,-4.3487,-4.2726,-4.2388,-4.21,-4.0756,-4.1026,-4.1808,-4.0425,-3.9937,0.0,0.0,0.0,-3.4198,-3.2684,-3.1336,-3.0223,-2.9775,-2.8498,-2.7496,-2.8506,-2.844,-2.8183,-2.8344,-2.833,-2.8291,-2.8291,-2.9197,-3.0068,-3.0266,-3.0162,-3.0162,-3.0514,-3.0421,-3.0421,-3.0773,-3.2917,-3.4208,-3.3732,0.0,0.0,0.0,0.0,0.0,0.0,-3.2616,-3.2265,-3.2114,-3.1286,-3.0733,-3.0507,-3.0118,-2.9867,-2.9792,-2.9792,-2.9792,-2.9792,-2.9792,-2.9792,-2.9792,-2.9792,-2.9792,-2.9792,-2.9792,-2.9792,-2.9792,-2.9792,-3.0343,-3.1278,-3.2105,-3.3066,-3.3993,-3.3842,-3.4428,-3.5166,0.0,0.0,0.0,0.0,0.0,0.0,0.0,0.0,0.0,0.0,0.0,-4.4918,-4.3555,-4.3047,-4.2489,-4.1745,-4.1677,-4.1863,-4.2269,-4.233,-4.2291,-4.2141,-4.2024,-4.189,-4.1708,-4.1138,-4.0831,-4.0831,-4.0083,-4.0756,-4.2761,-4.2266,-4.3216,-4.539,-4.4423,-4.4375,-4.487,-4.3434,-4.3043,-4.337,-4.337,-4.3132,-4.2709,-4.1965,-4.1677,-4.1491,-4.0003,-4.0426,-4.1457,-3.9969,-3.9976,-4.0153,-3.7587,0.0,0.0,0.0,-3.174,-3.1149,-3.0211,-2.9409,-2.8861,-2.8775,-2.8746,-2.8489,-2.7744,-2.7773,-2.7939,-2.7939,-2.8446,-2.8914,-2.9167,-2.9207,-2.9408,-3.0172,-3.0317,-3.0824,-3.2404,-3.3624,-3.433,-3.4206,0.0,0.0,0.0,0.0,0.0,0.0,-3.2353,-3.1951,-3.1348,-3.0871,-3.047,-3.0168,-2.9917,-2.9792,-2.9792,-2.9792,-2.9792,-2.9792,-2.9792,-2.9792,-2.9792,-2.9792,-2.9792,-2.9792,-2.9792,-2.9792,-2.9792,-2.9792,-3.0671,-3.2033,-3.2464,-3.3498,-3.4839,-3.4839,-3.5133,-3.5439,0.0,0.0,0.0,0.0,0.0,0.0,0.0,0.0,0.0,0.0,0.0,-4.5015,-4.3555,0.0,0.0,0.0,-4.1035,-4.1153,-4.1694,-4.1914,-4.1811,-4.1321,-4.1518,-4.1319,-4.0713,-4.0177,-3.9813,-3.9634,-3.8796,-3.97,-4.2141,-4.1826,-4.2977,-4.5317,-4.4151,-4.3795,-4.3962,-4.2556,-4.2119,-4.2315,-4.1937,-4.178,-4.1745,-4.1136,-4.0912,-4.0781,-3.9665,-3.9868,-4.051,-3.958,-3.9699,-3.9806,-3.7503,-3.6589,0.0,0.0,0.0,-3.1439,-3.0481,-2.9861,-2.9456,-2.9094,-2.8868,-2.8495,-2.7632,-2.7513,-2.75,-2.75,-2.75,-2.7637,-2.8057,-2.8223,-2.8644,-2.9608,-2.9817,-3.0628,-3.3005,-3.3674,-3.3933,-3.4176,0.0,0.0,0.0,0.0,0.0,0.0,-3.1964,-3.1461,-3.0658,-3.0482,-3.0218,-2.9804,-2.9792,-2.9792,-2.9792,-2.9792,-2.9792,-2.9792,-2.9792,-2.9792,-2.9792,-2.9792,-2.9792,-2.9792,-2.9792,-2.9792,-2.9792,-2.9792,-3.0771,-3.2249,-3.2249,-3.3429,-3.5133,-3.5133,-3.5279,-3.5504,0.0,0.0,0.0,0.0,0.0,0.0,0.0,0.0,0.0,0.0,0.0,-4.4344,-4.3504,-4.2743,-4.1999,-4.1271,-4.0544,-4.018,-4.0214,-4.0865,-4.0611,-3.9213,-4.0302,0.0,-3.7967,-3.8302,-3.8182,-3.7569,-3.8123,-3.9439,-4.1482,-4.2066,-4.3054,-4.4353,-4.3847,-4.3403,-4.2993,-4.1653,-4.1511,-4.2107,-4.0677,-4.0228,-4.0398,-4.0211,-4.0147,-4.0146,-4.0079,-3.9656,-3.9208,-3.9842,-3.9157,-3.7896,-3.7001,-3.6243,-3.5295,0.0,0.0,0.0,-2.9181,-2.8292,-2.7949,-2.9302,-2.8166,-2.7019,-2.8393,-2.7844,-2.7051,-2.7051,-2.7051,-2.7178,-2.7669,-2.8027,-2.8344,-2.8398,-2.8398,-2.89,-3.0317,-3.1633,-3.2518,-3.2771,0.0,0.0,0.0,0.0,0.0,0.0,-3.1273,-3.067,-3.062,-3.0118,-2.9829,-2.9792,-2.9792,-2.9792,-2.9792,-2.9792,-2.9792,-2.9792,-2.9792,-2.9792,-2.9792,-2.9792,-2.9792,-2.9792,-2.9792,-2.9792,-2.9792,-2.9792,-3.0381,-3.1278,-3.1278,-3.2429,-3.4061,-3.4061,-3.4691,-3.5504,0.0,0.0,0.0,0.0,0.0,0.0,0.0,0.0,0.0,0.0,0.0,0.0,0.0,-4.2743,-4.1999,-4.1271,-4.0536,-4.0096,-4.0096,-4.0367,-4.05,-4.0471,-4.0287,-4.0071,-3.984,-3.8886,-3.8272,-3.8033,-3.7449,-3.8407,-4.0741,-4.0561,-4.1399,-4.3084,-4.2884,-4.2576,-4.2053,-4.0268,-3.9789,-4.0167,-3.9644,-3.9179,-3.8823,-3.8879,-3.9086,-3.9225,-3.8454,-3.8841,-3.9673,-3.9469,-3.9039,-3.8376,-3.716,-3.5974,-3.4632,-3.2463,-3.1087,-3.0362,-3.0708,-3.014,-2.9467,-2.9403,-2.9535,-2.9175,-2.7059,-2.7197,-2.7469,-2.6389,-2.6416,-2.6748,-2.7168,-2.7598,-2.8275,-2.9409,-2.9555,-3.0068,-3.1378,-3.1977,-3.2184,0.0,0.0,0.0,0.0,0.0,0.0,0.0,0.0,-3.0809,-3.0118,-2.9892,-2.9792,-2.9792,-2.9792,-2.9792,-2.9792,-2.9792,-2.9792,-2.9792,-2.9792,-2.9792,-2.9792,-2.9792,-2.9792,-2.9792,-2.9792,-2.9792,-2.9792,-2.9792,-3.0343,-3.1217,-3.1217,-3.1997,-3.3171,-3.3774,-3.4245,-3.461,0.0,0.0,0.0,-4.6882,0.0,-4.5464,-4.6027,-4.5031,-4.415,-4.3931,0.0,0.0,0.0,0.0,-4.2269,-4.1288,-4.0536,-4.0096,-4.0096,-4.0096,-4.0236,-4.058,-4.0065,-3.985,-3.9947,-3.8724,-3.7958,-3.7749,-3.7105,-3.7808,-3.9723,-3.9738,-4.0561,-4.2051,-4.1564,-4.146,-4.1468,-3.9679,-3.8971,-3.8891,-3.8184,-3.7794,-3.7671,-3.7903,-3.8393,-3.8913,-3.8539,-3.8975,-3.9765,-3.9724,-3.9242,-3.8434,-3.7227,-3.5529,-3.3664,-3.2002,-3.1117,-3.0803,-3.1291,-3.0984,-3.0441,-3.0187,-3.0149,-2.9703,-2.787,-2.7619,-2.7509,-2.6532,-2.6403,-2.6546,-2.675,-2.7041,-2.7722,-2.9197,-2.9568,-3.012,-3.1429,-3.1633,-3.1598,0.0,0.0,0.0,0.0,0.0,0.0,0.0,0.0,0.0,-3.0105,-2.9892,-2.9792,-2.9792,-2.9792,-2.9792,-2.9792,-2.9792,-2.9792,-2.9792,-2.9792,-2.9792,-2.9792,-2.9792,-2.9792,-2.9792,-2.9792,-2.9792,-2.9792,-2.9792,-3.0177,-3.0733,-3.0733,-3.1291,-3.2249,-3.3171,-3.3739,-3.4129,-4.4373,-4.488,-4.5369,-4.5405,-4.4827,-4.4427,-4.4641,-4.3996,-4.3227,-4.2583,0.0,0.0,0.0,0.0,0.0,-4.139,-4.0578,-4.0163,-4.013,-4.0113,-3.9841,-3.9265,-3.9596,-3.92,-3.7997,-3.7597,-3.7105,-3.6507,-3.7075,-3.7704,-3.8392,-3.9679,-4.0651,-4.1265,-3.9963,-4.0098,-4.1205,-3.9888,-3.9082,-3.8506,-3.6397,-3.6099,-3.6969,-3.7421,-3.8228,-3.9256,-4.0487,-4.0132,-3.9322,-4.0725,-3.9707,-3.7745,-3.7003,-3.4866,-3.2465,-3.171,-3.1511,-3.1351,0.0,0.0,0.0,-3.1598,-2.9729,-2.8338,-3.1085,-2.9241,-2.7106,-2.749,-2.7112,-2.6682,-2.6468,-2.6407,-2.6701,-2.7542,-2.7988,-2.8731,-3.0047,-3.0203,-3.0551,0.0,0.0,0.0,0.0,0.0,0.0,0.0,-3.126,-3.0645,-3.062,-3.0093,-2.9792,-2.9792,-2.9792,-2.9792,-2.9792,-2.9792,-2.9792,-2.9792,-2.9792,-2.9792,-2.9792,-2.9792,-2.9792,-2.9792,-2.9792,-2.9792,-2.9792,-2.9792,-2.9792,-2.9792,-2.9792,-3.0343,-3.1278,-3.2213,-3.3136,-3.4095,-4.4289,-4.4343,-4.4556,-4.5073,-4.4295,-4.3783,-4.4393,-4.3507,-4.2707,0.0,0.0,0.0,-4.2741,-4.3116,-4.3223,-4.2817,-4.2117,-4.1457,-4.0933,-4.0417,-4.006,-4.0005,-3.9884,-3.966,-3.9434,-3.8102,-3.733,-3.715,-3.6402,-3.6596,-3.7689,-3.7599,-3.8422,-3.9933,-3.9065,-3.8871,-3.914,-3.7838,-3.7552,-3.7922,-3.7294,-3.7189,-3.7486,-3.7682,-3.8153,-3.8827,-3.9409,-3.9376,-3.9243,-4.0718,-3.9172,-3.6378,-3.4631,-3.3461,-3.2614,-3.194,-3.1597,-3.1467,-3.1278,0.0,0.0,0.0,0.0,0.0,-2.9243,-2.9057,-2.8814,-2.763,-2.7422,-2.7252,-2.6702,-2.6894,-2.7033,-2.6791,-2.7363,-2.799,-2.8388,-2.8658,-2.8956,0.0,0.0,0.0,0.0,0.0,0.0,0.0,-3.2177,-3.1436,-3.0658,-3.0093,-2.9792,-2.9792,-2.9792,-2.9792,-2.9792,-2.9792,-2.9792,-2.9792,-2.9792,-2.9792,-2.9792,-2.9792,-2.9792,-2.9792,-2.9792,-2.9792,-2.9792,-2.9792,-2.9792,-2.9792,-2.9792,-2.9972,-3.0317,-3.1254,-3.2177,-3.3136,-4.4004,-4.3949,-4.4011,-4.4427,-4.3685,-4.318,-4.3721,-4.2938,-4.2217,0.0,0.0,0.0,-4.2441,-4.3016,-4.3305,-4.3004,-4.2574,-4.2117,-4.1694,-4.0967,-4.0481,-4.0304,-3.9719,-3.9437,-3.9511,-3.8113,-3.7404,-3.7404,-3.6941,-3.6821,-3.703,-3.7494,-3.8018,-3.8571,-3.8153,-3.7838,-3.7509,-3.6207,-3.6259,-3.7203,-3.7162,-3.7172,-3.7248,-3.7821,-3.8292,-3.8747,-3.9487,-3.9755,-3.9877,-4.08,-3.8896,-3.5905,-3.4654,-3.3376,-3.233,-3.1912,-3.167,-3.1511,-3.1511,-3.1511,-3.1439,-3.1263,0.0,0.0,-3.0521,-3.037,-3.0175,-2.9547,-2.9068,-2.8538,-2.7878,-2.7377,-2.6966,-2.6585,-2.6903,-2.7256,-2.7669,-2.8027,-2.8291,0.0,0.0,0.0,0.0,-3.2144,-3.2834,-3.3383,-3.2667,-3.1637,-3.0344,-2.9967,-2.9792,-2.9792,-2.9792,-2.9792,-2.9792,-2.9792,-2.9792,-2.9792,-2.9792,-2.9792,-2.9792,-2.9792,-2.9792,-2.9792,-2.9792,-2.9792,-2.9792,-2.9792,-2.9792,-2.9792,-2.9792,-2.9792,-2.9895,-3.0871,-3.1536,-3.2213,0.0,-4.369,-4.3651,-4.3651,-4.3064,-4.2689,-4.291,-4.2412,-4.1833,0.0,-4.1942,-4.251,-4.267,-4.3217,-4.3303,-4.2719,-4.2512,-4.2375,-4.2206,-4.1583,-4.0875,-4.0122,-3.9253,-3.8757,-3.8602,-3.7837,-3.7375,-3.73,-3.7898,-3.7629,-3.6626,-3.8227,-3.8422,-3.7404,-3.718,-3.6776,-3.6211,-3.5013,-3.5192,-3.6267,-3.6342,-3.6507,-3.6821,-3.7958,-3.8512,-3.8847,-4.022,-4.0597,-4.0458,-4.046,-3.8497,0.0,-3.5765,0.0,0.0,-3.1829,-3.1775,-3.169,-3.154,-3.1555,-3.1735,-3.2287,-3.1411,0.0,-3.3124,-3.2178,-3.1096,-3.2027,-3.1151,-3.0034,-2.9354,-2.7983,-2.6868,-2.6795,-2.669,-2.6883,-2.7454,-2.793,-2.8223,0.0,0.0,0.0,-3.128,-3.2517,-3.3408,-3.3737,-3.2794,-3.1549,-3.0055,-2.9917,-2.9854,-2.9792,-2.9792,-2.9792,-2.9792,-2.9792,-2.9792,-2.9792,-2.9792,-2.9792,-2.9792,-2.9792,-2.9792,-2.9792,-2.9792,-2.9792,-2.9792,-2.9792,-2.9792,-2.9792,-2.9792,-2.9792,-2.9895,-3.0733,-3.1106,-3.1426,-4.366,-4.3518,-4.3384,-4.3384,-4.2947,-4.2612,-4.2689,-4.2257,-4.1873,-4.1778,-4.2543,-4.3334,-4.3974,-4.4262,-4.4399,-4.4252,-4.3633,-4.2774,-4.1566,-4.1312,-4.0454,-3.8774,-3.885,-3.846,-3.7353,-3.7537,-3.7316,-3.6671,-3.6791,-3.6985,-3.721,-3.6567,-3.6686,-3.7345,-3.5759,-3.5013,-3.4878,-3.4623,-3.4653,-3.4953,-3.5474,-3.6626,-3.8048,-3.8302,-3.8427,-3.8642,-4.0151,-3.9687,-3.8162,-3.7198,-3.6815,-3.6366,0.0,0.0,0.0,-3.2101,0.0,0.0,0.0,0.0,0.0,0.0,-3.16,0.0,-3.1857,-3.1484,-3.1048,-3.111,-3.0795,-3.0304,-2.9661,-2.882,-2.8036,-2.7357,-2.7821,-2.7885,-2.6794,-2.7305,-2.7836,0.0,0.0,0.0,-3.0398,-3.134,-3.2193,-3.2883,-3.2463,-3.1876,-3.1122,-3.0683,-3.0256,-2.9804,-2.9792,-2.9792,-2.9792,-2.9792,-2.9792,-2.9792,-2.9792,-2.9792,-2.9792,-2.9792,-2.9792,-2.9792,-2.9792,-2.9792,-2.9792,-2.9792,-2.9792,-2.9792,-2.9792,-2.9792,-2.983,-2.9998,-3.0558,-3.1254,-4.3463,-4.3384,-4.329,-4.329,-4.3099,-4.2953,-4.2953,-4.2498,-4.2176,-4.2251,-4.279,-4.3142,-4.3148,-4.3642,-4.3845,-4.3512,-4.3104,-4.2465,-4.1475,-4.0938,-3.9972,-3.8485,-3.8173,-3.784,-3.7461,-3.7292,-3.7124,-3.6941,-3.6941,-3.6776,-3.6462,-3.6362,-3.641,-3.6432,-3.566,-3.4989,-3.4347,-3.4097,-3.3962,-3.4049,-3.5756,-3.703,-3.7943,-3.8257,-3.8392,-3.8462,-3.8903,-3.8452,-3.76,-3.7328,-3.68,0.0,-3.481,-3.4074,-3.3412,0.0,-3.2841,-3.3215,0.0,0.0,0.0,-3.1791,0.0,0.0,0.0,-3.208,-3.2121,-3.2294,-3.1878,-3.1368,-3.1114,-2.9971,-2.8985,-2.8686,-2.852,-2.807,-2.7054,-2.7875,-2.8603,0.0,0.0,0.0,-3.0162,-3.0662,-3.1312,-3.224,-3.2535,-3.2164,-3.106,-3.0758,-3.0357,-2.9817,-2.9792,-2.9792,-2.9792,-2.9792,-2.9792,-2.9792,-2.9792,-2.9792,-2.9792,-2.9792,-2.9792,-2.9792,-2.9792,-2.9792,-2.9792,-2.9792,-2.9792,-2.9792,-2.9792,-2.9792,-2.9792,-2.9792,-3.0113,-3.0558,-4.329,-4.329,-4.329,-4.329,-4.329,-4.329,-4.329,-4.2895,-4.2629,-4.2715,-4.2977,-4.2895,-4.2319,-4.2715,-4.2903,-4.256,-4.2226,-4.1917,-4.1578,-4.0773,-3.985,-3.8847,-3.7878,-3.753,-3.7918,-3.7149,-3.6857,-3.7045,-3.7165,-3.6668,-3.5648,-3.6274,-3.6147,-3.5373,-3.5324,-3.482,-3.3903,-3.3576,-3.3337,-3.3433,-3.5918,-3.6965,-3.712,-3.7778,-3.8018,-3.7958,-3.7419,-3.7361,-3.7614,-3.806,-3.7106,-3.5752,-3.5656,-3.4836,0.0,0.0,0.0,0.0,0.0,0.0,0.0,0.0,0.0,-3.1891,0.0,0.0,0.0,-3.3424,0.0,0.0,0.0,0.0,0.0,0.0,0.0,0.0,0.0,-2.9049,0.0,-2.904,0.0,0.0,0.0,-2.9795,-3.0432,-3.1958,-3.2421,-3.2109,-3.0834,-3.0758,-3.047,-2.9817,-2.9792,-2.9792,-2.9792,-2.9792,-2.9792,-2.9792,-2.9792,-2.9792,-2.9792,-2.9792,-2.9792,-2.9792,-2.9792,-2.9792,-2.9792,-2.9792,-2.9792,-2.9792,-2.9792,-2.9792,-2.9792,-2.9792,-2.9792,-2.9895,-4.329,-4.329,-4.329,-4.329,-4.329,-4.329,-4.329,-4.323,-4.3185,-4.3225,-4.3437,-4.3579,-4.3503,-4.2697,-4.2558,-4.3602,-4.2142,-4.1312,-4.176,-4.1262,-4.0678,-3.9941,-3.8848,-3.8167,-3.8013,-3.733,-3.6567,-3.5729,-3.6312,-3.644,-3.6108,-3.4918,-3.4557,-3.4792,-3.2932,-3.2432,-3.2987,-3.3081,-3.3019,-3.3016,-3.462,-3.5443,0.0,-3.6447,-3.6701,-3.6686,-3.6611,-3.6963,-3.7346,0.0,-3.6598,-3.6192,0.0,-3.4926,-3.5026,-3.3785,0.0,0.0,0.0,0.0,0.0,0.0,-3.2031,0.0,0.0,0.0,-3.2006,-3.2181,0.0,0.0,0.0,0.0,0.0,0.0,0.0,0.0,-3.0224,-3.0536,-2.9926,-2.7498,0.0,0.0,0.0,-2.7997,-2.9387,-3.2405,-3.1689,-3.1192,-3.1295,-3.1298,-3.0846,-2.9829,-2.9792,-2.9792,-2.9792,-2.9792,-2.9792,-2.9792,-2.9792,-2.9792,-2.9792,-2.9792,-2.9792,-2.9792,-2.9792,-2.9792,-2.9792,-2.9792,-2.9792,-2.9792,-2.9792,-2.9792,-2.9792,-2.9792,-2.9792,-2.983,-4.329,-4.329,-4.317,-4.2836,-4.2776,-4.2776,-4.2776,-4.309,-4.329,-4.329,-4.3384,-4.3463,-4.3463,-4.2816,-4.2569,-4.3113,-4.2095,-4.1214,-4.0714,-4.0495,-3.9991,-3.9029,-3.8278,-3.7964,-3.8097,-3.7004,-3.6345,-3.619,-3.6001,-3.5601,-3.5035,-3.425,-3.3779,-3.3596,-3.25,-3.2006,-3.2006,-3.2541,-3.2283,-3.1654,-3.3016,-3.3451,0.0,-3.5049,-3.5758,-3.5923,-3.5923,-3.6088,-3.6267,0.0,-3.5923,0.0,0.0,0.0,0.0,0.0,0.0,0.0,0.0,0.0,0.0,0.0,0.0,0.0,-3.2031,0.0,-3.2066,0.0,0.0,0.0,0.0,0.0,0.0,0.0,-3.1928,0.0,0.0,0.0,-3.0381,0.0,0.0,0.0,0.0,0.0,0.0,0.0,-3.2487,-3.2407,-3.1872,-3.1562,-3.1047,-3.0294,-2.9955,-2.9792,-2.9792,-2.9792,-2.9792,-2.9792,-2.9792,-2.9792,-2.9792,-2.9792,-2.9792,-2.9792,-2.9792,-2.9792,-2.9792,-2.9792,-2.9792,-2.9792,-2.9792,-2.9792,-2.9792,-2.9792,-2.9792,-2.9792,-4.329,-4.3155,-4.2865,-4.2246,-4.2126,-4.2186,-4.2366,-4.2761,-4.3135,-4.3275,-4.329,-4.3364,-4.3544,-4.3133,-4.3016,-4.3572,-4.255,-4.1603,-4.0885,-4.0383,-3.9867,-3.9263,-3.8417,-3.8219,-3.8741,-3.7131,-3.6334,-3.6441,-3.5794,-3.5041,-3.4068,-3.367,-3.305,-3.2249,-3.1807,-3.1548,-3.1514,-3.2128,-3.1889,-3.1219,-3.2022,-3.2071,-3.1842,-3.364,-3.465,-3.51,-3.51,-3.5279,-3.5504,-3.5504,-3.5504,0.0,-3.5504,0.0,0.0,0.0,0.0,0.0,-3.3739,0.0,0.0,0.0,0.0,0.0,0.0,0.0,0.0,0.0,0.0,0.0,0.0,0.0,0.0,0.0,0.0,-3.2713,0.0,-3.1687,0.0,0.0,0.0,0.0,0.0,0.0,0.0,0.0,0.0,-3.266,-3.2198,-3.1549,-3.0997,-3.062,-3.008,-2.9792,-2.9792,-2.9792,-2.9792,-2.9792,-2.9792,-2.9792,-2.9792,-2.9792,-2.9792,-2.9792,-2.9792,-2.9792,-2.9792,-2.9792,-2.9792,-2.9792,-2.9792,-2.9792,-2.9792,-2.9792,-2.9792,-2.9792,-4.329,-4.2821,-4.2231,-4.1572,-4.1414,-4.1662,-4.2306,-4.2425,-4.2626,-4.32,-4.329,-4.3544,-4.4212,-4.3703,-4.4077,-4.6022,-4.3863,-4.2635,-4.3264,-4.1656,-4.1019,-4.1837,-4.0126,-3.9474,-4.0206,-3.8105,-3.6561,-3.5718,-3.5587,-3.492,-3.3788,-3.2996,-3.2055,-3.0944,-3.0203,-3.056,-3.1692,-3.1935,-3.2212,-3.2503,-3.2159,-3.1693,-3.1349,0.0,-3.3255,-3.4061,-3.4061,0.0,0.0,-3.5504,-3.5504,0.0,0.0,0.0,0.0,0.0,0.0,0.0,0.0,0.0,0.0,-3.344,0.0,0.0,0.0,0.0,-3.3011,0.0,0.0,0.0,0.0,0.0,0.0,0.0,0.0,0.0,0.0,0.0,0.0,0.0,0.0,0.0,0.0,0.0,0.0,0.0,0.0,0.0,-3.2148,-3.121,-3.0633,-3.062,-3.008,-2.9792,-2.9792,-2.9792,-2.9792,-2.9792,-2.9792,-2.9792,-2.9792,-2.9792,-2.9792,-2.9792,-2.9792,-2.9792,-2.9792,-2.9792,-2.9792,-2.9792,-2.9792,-2.9792,-2.9792,-2.9792,-2.9792,-2.9792,-4.1858,-4.1123,-4.0573,-4.0529,-3.9712,-3.9301,-3.992,-4.0513,-4.141,-4.2896,-4.2761,-4.3112,-4.4758,-4.4766,-4.49,-4.5589,-4.4825,-4.4032,-4.3389,-4.2911,-4.2387,-4.1843,-4.0561,-3.9994,-4.0238,-3.8113,-3.6854,-3.6561,-3.5197,-3.4042,-3.3106,-3.1781,-3.0631,-2.9676,-2.9364,-2.9454,-2.991,-3.1083,0.0,0.0,0.0,-3.0839,-3.0394,0.0,0.0,-3.3066,-3.3066,-3.3276,0.0,-3.3581,-3.4007,-3.4509,-3.4509,-3.4953,-3.5504,-3.5504,-3.5504,0.0,0.0,0.0,-3.4502,-3.3185,0.0,0.0,0.0,0.0,0.0,0.0,0.0,0.0,0.0,0.0,0.0,0.0,0.0,0.0,0.0,0.0,0.0,0.0,0.0,0.0,0.0,0.0,0.0,0.0,-3.1331,0.0,0.0,-3.1198,-3.062,-3.062,-3.008,-2.9792,-2.9792,-2.9792,-2.9792,-2.9792,-2.9792,-2.9792,-2.9792,-2.9792,-2.9792,-2.9792,-2.9792,-2.9792,-2.9792,-2.9792,-2.9792,-2.9792,-2.9792,-2.9792,-2.9792,-2.9792,-2.9792,-2.9792,-4.1348,-3.9815,-3.8769,-3.9221,-3.8699,-3.8419,-3.9043,-4.0025,-4.1139,-4.2491,-4.2361,-4.2662,-4.4138,-4.47,-4.506,-4.5296,-4.5516,-4.5095,-4.3723,-4.3793,-4.3322,-4.2104,-4.1398,-4.1,-4.0922,-3.8981,-3.7773,-3.735,-3.5545,-3.4017,-3.2684,-3.1514,-3.0278,-2.9031,-2.9151,-2.9239,-2.9315,-3.0583,-3.1088,0.0,0.0,-3.0368,0.0,0.0,-3.1291,-3.2105,0.0,-3.2321,-3.2593,-3.2593,-3.2996,-3.3484,-3.3484,-3.3973,-3.4457,-3.4457,-3.4457,-3.4389,-3.3951,-3.3962,0.0,-3.2486,-3.2312,0.0,-3.164,0.0,0.0,0.0,0.0,0.0,0.0,0.0,0.0,0.0,0.0,0.0,0.0,-3.3428,0.0,0.0,0.0,0.0,0.0,0.0,0.0,-3.2615,-3.1696,0.0,0.0,0.0,-3.0407,-3.0608,-3.008,-2.9792,-2.9792,-2.9792,-2.9792,-2.9792,-2.9792,-2.9585,-2.9197,-2.9624,-2.9573,-2.9236,-2.9624,-2.9792,-2.9792,-2.9792,-2.9792,-2.9792,-2.9792,-2.9792,-2.9792,-2.9792,-2.9792,-2.9792,-4.1579,-3.8946,-3.6974,-3.7629,-3.8249,-3.8867,-3.9498,-4.0651,-4.159,-4.1924,-4.198,-4.2155,-4.2509,-4.3627,-4.4606,-4.5255,-4.5888,-4.5672,-4.4415,-4.4366,-4.3904,-4.2834,-4.269,-4.2493,-4.2222,0.0,0.0,0.0,-3.6542,-3.4718,-3.2648,-3.2083,-3.0788,-2.8913,-2.9503,-2.9754,-2.9792,-3.0369,-3.0896,-3.1311,-3.0821,-3.0281,-2.9792,-2.9792,-3.0343,-3.1143,-3.1143,-3.1706,-3.2464,-3.2464,-3.25,-3.2522,-3.2522,-3.2558,-3.2593,-3.2593,-3.2593,-3.2593,-3.2593,-3.2144,-3.1633,-3.1605,0.0,0.0,0.0,0.0,-3.2427,0.0,0.0,0.0,0.0,0.0,0.0,0.0,0.0,0.0,0.0,0.0,0.0,0.0,0.0,0.0,0.0,0.0,-3.1538,-3.2817,-3.1483,-3.0836,0.0,0.0,-3.003,-3.0557,-3.0068,-2.9792,-2.9792,-2.9792,-2.9792,-2.9792,-2.9753,-2.9157,-2.8136,-2.9157,-2.9067,-2.8176,-2.9236,-2.9753,-2.9792,-2.9792,-2.9792,-2.9792,-2.9792,-2.9792,-2.9792,-2.9792,-2.9792,-2.9792,-3.9326,-3.7745,-3.6475,-3.6673,-3.6614,-3.6561,-3.6555,-3.7286,-3.8464,-3.9965,-4.0518,-4.1377,-4.3036,-4.3551,-4.3808,-4.3962,-4.5018,-4.5287,-4.4429,-4.5261,-4.5207,-4.3956,-4.3539,-4.3084,-4.2521,-4.0673,-3.9567,-3.9264,-3.587,-3.3916,-3.3292,-3.0841,-2.9403,-2.89,-2.9051,-2.9113,-2.9214,-3.0193,-3.0696,-3.0809,-3.067,-3.0281,0.0,0.0,-2.9934,-3.0177,-3.0177,-3.0317,-3.0533,-3.0533,-3.0983,-3.1573,-3.1573,-3.2033,-3.2593,-3.2593,-3.2593,-3.2593,-3.2593,-3.2483,-3.2226,-3.1702,-3.1481,-3.1213,0.0,0.0,0.0,0.0,0.0,0.0,0.0,0.0,0.0,0.0,0.0,0.0,0.0,0.0,0.0,-3.2443,0.0,0.0,0.0,-3.235,-3.2203,-3.1708,-3.1279,-3.0984,0.0,0.0,0.0,-2.9993,-2.9867,-2.9792,-2.9792,-2.9792,-2.9792,-2.9792,-2.8937,-2.8386,-2.8084,-2.7585,-2.7626,-2.8136,-2.8426,-2.9028,-2.9792,-2.9792,-2.9792,-2.9792,-2.9792,-2.9792,-2.9792,-2.9792,-2.9792,-2.9792,-3.8395,-3.7332,-3.6361,-3.5994,-3.6007,-3.6184,-3.6547,-3.7047,-3.7788,-3.8958,-3.9388,-3.9931,-4.0962,-4.2041,-4.2689,-4.2689,-4.3834,-4.428,-4.3613,0.0,0.0,-4.3522,-4.3275,-4.2986,-4.265,-4.1187,0.0,-3.9688,-3.6201,-3.4215,-3.3564,-3.0991,-2.934,-2.8549,-2.9089,-2.9038,-2.8599,-2.9779,-3.0256,-3.0256,-3.0256,0.0,0.0,-2.9792,-2.9792,-2.9792,-2.9792,-2.9792,-2.9792,-2.9792,-3.0139,-3.0595,-3.0595,-3.0945,-3.1378,-3.1378,-3.1378,-3.1378,-3.1378,-3.1378,-3.1299,-3.0894,-3.0814,-3.0735,-3.044,-3.0648,-3.1213,0.0,0.0,0.0,0.0,0.0,0.0,0.0,0.0,0.0,0.0,0.0,0.0,0.0,-3.2876,0.0,0.0,-3.2763,-3.2617,-3.1961,-3.1486,0.0,0.0,0.0,0.0,-2.9415,-2.9666,-2.9792,-2.9792,-2.9792,-2.9792,-2.9792,-2.8636,-2.7844,-2.736,-2.676,-2.6842,-2.7441,-2.7884,-2.8767,-2.9792,-2.9792,-2.9792,-2.9792,-2.9792,-2.9792,-2.9792,-2.9792,-2.9792,-2.9792,-3.8018,-3.7333,-3.6518,-3.5742,-3.6107,-3.6861,-3.7925,-3.8251,-3.8381,-3.8504,-3.8623,-3.8633,-3.8277,-4.0087,-4.1369,-4.1369,-4.2509,-4.2998,-4.243,-4.2601,-4.2583,-4.231,-4.2481,-4.2566,-4.2573,-4.1806,-4.0891,0.0,-3.6996,-3.4956,-3.3702,-3.1706,-2.9909,-2.8373,-2.9352,0.0,0.0,-2.9302,-2.9729,-2.9792,-2.9792,-2.9792,-2.9792,-2.9792,-2.9792,-2.9792,-2.9792,-2.9792,-2.9792,-2.9792,-2.9792,-2.9792,-2.9792,-2.9792,-2.9792,-2.9792,-2.9792,-2.9792,-2.9792,-2.9792,-2.9792,-2.9792,-2.9792,-2.9869,-3.0011,-3.0049,-3.033,-3.1257,-3.2119,-3.2925,0.0,0.0,0.0,0.0,0.0,0.0,0.0,0.0,0.0,0.0,0.0,0.0,0.0,0.0,-3.2842,-3.2559,-3.1745,0.0,0.0,0.0,0.0,-2.9013,-2.9528,0.0,-2.9792,0.0,-2.9792,-2.9792,-2.8518,-2.74,-2.6483,-2.6182,-2.6141,-2.6348,-2.74,-2.8518,-2.9585,-2.9753,-2.9792,-2.9792,-2.9792,-2.9792,-2.9792,-2.9792,-2.9792,-2.9792,-3.6747,-3.6912,-3.6908,-3.6355,-3.6671,-3.7283,-3.7931,-3.8051,-3.8051,-3.8121,-3.8918,-3.9487,-3.9383,-3.9764,-4.0032,-4.0032,-4.1219,0.0,0.0,0.0,0.0,-4.1841,-4.2323,-4.2344,-4.1788,-4.1531,-4.1318,-4.1091,-3.7034,-3.4836,-3.4376,-3.156,-2.9998,-2.9503,-2.9704,0.0,-2.9478,-2.9202,0.0,-2.9792,-2.9792,-2.9792,-2.9792,-2.9792,-2.9792,-2.9792,-2.9792,-2.9792,-2.9792,-2.9792,-2.9792,-2.9792,-2.9792,-2.9792,-2.9792,-2.9792,-2.9792,-2.9792,-2.9792,-2.9792,-2.9792,-2.9792,-2.9792,-2.9792,-2.983,-2.9869,-3.0113,-3.1044,-3.1389,-3.1779,-3.2664,0.0,0.0,0.0,0.0,0.0,0.0,0.0,0.0,0.0,0.0,-3.2241,0.0,0.0,0.0,0.0,0.0,0.0,0.0,0.0,0.0,0.0,-2.9741,0.0,0.0,0.0,-2.9792,-2.9792,-2.7758,-2.6678,-2.6431,-2.4563,-2.4221,-2.5168,-2.6295,-2.7412,-2.8466,-2.9404,-2.9792,-2.9792,-2.9792,-2.9792,-2.9792,-2.9792,-2.9792,-2.9792,-3.7098,-3.6973,-3.6908,-3.7161,-3.7425,-3.7801,-3.8366,-3.8693,-3.8668,-3.809,-3.8479,-3.8818,-3.8818,-3.9346,-3.9697,-3.9697,-4.0262,-4.0605,-4.0605,-4.0396,-4.0378,-4.0709,-4.0439,-4.027,-4.021,-4.035,-4.0081,-3.9343,-3.6646,-3.4837,-3.3876,-3.1604,-3.0086,-2.934,0.0,-2.934,0.0,0.0,0.0,-2.9792,-2.9792,-2.9792,-2.9792,-2.9792,-2.9792,-2.9792,-2.9792,-2.9792,-2.9792,-2.9792,-2.9792,-2.9792,-2.9792,-2.9792,-2.9792,-2.9792,-2.9792,-2.9792,-2.9792,-2.9792,-2.9792,-2.9792,-2.9792,-2.9792,-2.9792,-2.9792,-2.9934,-3.0381,-3.0871,-3.1365,-3.1915,-3.2429,0.0,0.0,0.0,0.0,0.0,0.0,0.0,0.0,0.0,0.0,0.0,0.0,0.0,0.0,0.0,0.0,0.0,0.0,0.0,0.0,0.0,0.0,0.0,0.0,0.0,-2.8897,-2.7261,-2.6182,-2.5546,-2.3887,-2.3714,-2.4872,-2.6016,-2.7128,-2.8176,-2.9326,-2.9792,-2.9792,-2.9792,-2.9792,-2.9792,-2.9792,-2.9792,-2.9792,-3.7688,-3.7425,-3.731,-3.7902,-3.8203,-3.8479,-3.8818,-3.9346,-3.9371,-3.8479,-3.8366,-3.8366,-3.8366,-3.9157,-3.9697,-3.9697,-3.9697,-3.9697,-3.9697,-3.863,-3.8432,-3.9364,-3.8556,-3.8287,-3.8724,-3.91,-3.8627,-3.7353,-3.6027,-3.456,0.0,-3.1603,0.0,0.0,0.0,0.0,0.0,0.0,-2.9679,-2.9792,-2.9792,-2.9792,-2.9792,-2.9792,-2.9792,-2.9792,-2.9792,-2.9792,-2.9792,-2.9792,-2.9792,-2.9792,-2.9792,-2.9792,-2.9792,-2.9792,-2.9792,-2.9792,-2.9792,-2.9792,-2.9792,-2.9792,-2.9792,-2.9792,-2.9792,-2.9792,-2.9792,-2.9792,-3.0381,-3.0906,-3.1011,-3.1299,0.0,0.0,0.0,0.0,0.0,0.0,0.0,0.0,0.0,0.0,-3.2437,0.0,0.0,0.0,0.0,-3.0228,-2.9428,-2.953,0.0,0.0,0.0,-2.9526,-2.9321,0.0,-2.8988,0.0,-2.6789,-2.5672,-2.4745,-2.3637,-2.3594,-2.45,-2.5891,-2.725,-2.8518,-2.9443,-2.9792,-2.9792,-2.9792,-2.9792,-2.9792,-2.9792,-2.9792,-2.9792,-3.7337,-3.8404,-3.9094,-3.8165,-3.8856,-3.9383,-3.8994,-3.9346,-3.9647,-3.9546,-3.9534,-3.9534,-3.9534,-3.9634,-3.9697,-3.9697,-3.9697,-3.9697,-3.9697,-3.863,-3.8052,-3.815,-3.8104,-3.8126,-3.8164,-3.8176,-3.7827,0.0,-3.5236,-3.358,0.0,0.0,0.0,0.0,0.0,0.0,0.0,-2.9202,-2.9315,-2.9792,-2.9792,-2.9792,-2.9792,-2.9792,-2.9792,-2.9792,-2.9792,-2.9792,-2.9792,-2.9792,-2.9792,-2.9792,-2.9792,-2.9792,-2.9792,-2.9792,-2.9792,-2.9792,-2.9792,-2.9792,-2.9792,-2.9792,-2.9792,-2.9792,-2.9792,-2.9792,-2.9792,-2.9792,-2.9869,-2.9846,-2.949,-3.0392,-3.1336,0.0,0.0,0.0,0.0,0.0,-3.5963,-3.4244,0.0,0.0,0.0,-3.0352,0.0,0.0,-2.9984,-3.0279,-3.0037,-2.9366,-2.8585,-2.7657,0.0,-2.8572,-2.7729,-2.8067,-2.8215,-2.8084,-2.5983,-2.4914,-2.4745,-2.3637,-2.3178,-2.3387,-2.5568,-2.7678,-2.9663,-2.9753,-2.9792,-2.9792,-2.9792,-2.9792,-2.9792,-2.9792,-2.9792,-2.9792,-3.8605,-3.868,-3.8755,0.0,0.0,0.0,0.0,-3.9546,-3.9697,-3.9697,-3.9697,-3.9697,-3.9697,-3.9697,-3.9697,-3.9697,-3.9697,-3.9697,-3.9697,-3.863,-3.8002,-3.8002,-3.74,-3.7057,-3.7057,-3.7017,-3.6617,0.0,0.0,0.0,0.0,0.0,0.0,0.0,0.0,-2.939,-2.9289,-2.9402,-2.9578,-2.9792,-2.9792,-2.9792,-2.9792,-2.9792,-2.9792,-2.9792,-2.9792,-2.9792,-2.9792,-2.9792,-2.9792,-2.9792,-2.9792,-2.9792,-2.9792,-2.9792,-2.9792,-2.9792,-2.9792,-2.9792,-2.9792,-2.9792,-2.9792,-2.9792,-2.9792,-2.9792,-2.9792,-2.9792,-2.9792,-2.9755,-2.9593,-2.9986,-3.0712,0.0,0.0,0.0,0.0,0.0,0.0,0.0,0.0,-3.1676,0.0,0.0,0.0,0.0,0.0,-3.0317,-2.9416,-2.973,0.0,-2.7412,0.0,-2.7917,-2.691,-2.7065,-2.6789,-2.6108,-2.5199,-2.4457,-2.3757,-2.3299,-2.3464,-2.4211,-2.5808,-2.7383,-2.8819,-2.9534,-2.9792,-2.9792,-2.9792,-2.9792,-2.9792,-2.9792,-2.9792,-2.9792,-3.9295,0.0,-3.8994,0.0,-3.9609,-3.9484,-3.9873,-3.9798,-3.9697,-3.9697,-3.9697,-3.9697,-3.9697,-3.9697,-3.9697,-3.9697,-3.9697,-3.9622,-3.9471,-3.8555,-3.7939,-3.7764,-3.6908,0.0,-3.6405,-3.6167,-3.5646,-3.4755,-3.4568,0.0,0.0,0.0,0.0,0.0,-2.9854,-2.9804,-2.9402,-2.9691,-2.998,-3.0244,-3.0093,-3.003,-2.9991,-2.964,-2.9632,-2.9753,-2.9417,-2.9314,-2.9314,-2.9314,-2.9079,-2.8922,-2.9585,-2.9792,-2.9792,-2.9792,-2.9792,-2.9792,-2.9792,-2.9792,-2.9792,-2.9792,-2.9792,-2.9792,-2.9792,-2.9792,-2.9792,-2.9792,-2.9792,-2.9792,-2.9792,-2.9792,-3.0227,-3.1513,0.0,0.0,0.0,0.0,0.0,0.0,-3.1774,-3.1303,-3.0782,-3.0718,0.0,0.0,0.0,0.0,0.0,0.0,0.0,0.0,0.0,0.0,0.0,-2.595,-2.5588,-2.4787,-2.4457,-2.3877,-2.3091,-2.3091,-2.3714,-2.4872,-2.6016,-2.7128,-2.8176,-2.9326,-2.9792,-2.9792,-2.9792,-2.9792,-2.9792,-2.9792,-2.9792,-2.9792,-3.8932,-3.9747,-4.0488,-4.0513,-4.0501,-4.0501,-4.0513,-4.0049,-3.9697,-3.9697,-3.9697,-3.9697,-3.9697,-3.9697,-3.9697,-3.9697,-3.9697,-3.9471,-3.8919,-3.8329,-3.7764,0.0,0.0,-3.6405,-3.6405,-3.5818,-3.5002,-3.3909,0.0,0.0,-3.1399,0.0,-3.111,-3.0595,-3.0608,-3.0608,-3.0557,-3.0018,-3.0407,-3.1323,-3.0809,-3.0608,-3.0476,-2.9342,-2.9269,-2.9663,-2.8518,-2.8136,-2.8136,-2.8136,-2.74,-2.6935,-2.9131,-2.9792,-2.9792,-2.9792,-2.9792,-2.9792,-2.9792,-2.9792,-2.9792,-2.9792,-2.9792,-2.9792,-2.9792,-2.9792,-2.9792,-2.9792,-2.9792,-2.9792,-2.9792,-2.9792,-2.998,-3.052,0.0,0.0,0.0,0.0,0.0,0.0,-3.1241,-3.0598,-2.9101,-3.0308,0.0,0.0,0.0,0.0,0.0,0.0,0.0,-2.5853,-2.5681,0.0,-2.425,-2.4609,-2.483,-2.4787,-2.3681,-2.3091,-2.3091,-2.3091,-2.3714,-2.4872,-2.6016,-2.7128,-2.8176,-2.9326,-2.9792,-2.9792,-2.9792,-2.9792,-2.9792,-2.9792,-2.9792,-2.9792,-3.9509,-3.9722,-3.9961,-3.9961,-3.9961,-3.9961,-3.9961,-3.981,-3.9697,-3.9697,-3.9697,-3.9697,-3.9697,-3.9697,-3.9697,0.0,-3.9697,-3.9459,0.0,-3.8329,-3.7764,-3.7211,-3.6707,-3.6405,-3.6405,-3.583,-3.532,-3.4969,0.0,0.0,0.0,-3.1951,-3.1662,-3.1148,-3.1148,-3.1148,-3.1135,-3.0959,-3.1085,-3.1373,-3.121,-3.1148,-3.0976,-2.9475,-2.9018,-2.9012,-2.754,-2.7005,-2.7005,-2.7005,-2.676,-2.6637,-2.7342,-2.8039,-2.8806,-2.9573,-2.9792,-2.9792,-2.9792,-2.9236,-2.8636,-2.8636,-2.8636,-2.8636,-2.8636,-2.9236,-2.9792,-2.9792,-2.9792,-2.9792,-2.9792,-2.9792,-2.9854,-3.003,-3.0341,0.0,0.0,0.0,0.0,0.0,-3.0241,-3.0063,0.0,-2.9961,0.0,0.0,0.0,0.0,0.0,0.0,0.0,0.0,-2.527,0.0,-2.347,-2.3567,-2.3637,-2.3637,-2.3256,-2.3091,-2.3091,-2.3091,-2.3299,-2.3757,-2.5683,-2.6678,-2.7168,-2.904,-2.9792,-2.9792,-2.9792,-2.9792,-2.9792,-2.9792,-2.9792,-2.9792,-3.893,-3.8856,-3.9087,-3.9857,-3.9835,-3.976,-3.9973,-3.9823,-3.9697,-3.9697,-3.9697,-3.9697,-3.9697,-3.9697,0.0,-3.9697,-3.9697,-3.9371,-3.8592,-3.8203,-3.7663,-3.6958,-3.6593,-3.6405,-3.6405,0.0,0.0,-3.5495,-3.4449,-3.3432,-3.2541,-3.2541,-3.224,-3.17,-3.17,-3.17,-3.1687,-3.1486,-3.1637,-3.196,-3.1306,-3.1303,-3.1443,-2.9063,-2.8564,-2.8887,-2.6836,-2.6201,-2.6299,-2.597,-2.5676,-2.5551,-2.5779,-2.6326,-2.7064,-2.8251,-2.8542,-2.8542,-2.8542,-2.8039,-2.7481,-2.7481,-2.7481,-2.7602,-2.8016,-2.8976,-2.9792,-2.9792,-2.9792,-2.9792,-2.9792,-2.9792,-2.9792,-2.9792,-2.9792,-2.9792,-2.9792,0.0,0.0,0.0,0.0,0.0,0.0,-2.9222,-2.9348,0.0,0.0,0.0,0.0,0.0,0.0,-2.5349,-2.4556,0.0,-2.3101,-2.3091,-2.3091,-2.3091,-2.3091,-2.3091,-2.3091,-2.3091,-2.3091,-2.3222,-2.5052,-2.6099,-2.6648,-2.841,-2.9404,-2.9792,-2.9792,-2.9792,-2.9792,-2.9792,-2.9792,-2.9792,-3.7358,-3.7358,-3.7952,0.0,-3.9867,0.0,-4.0322,-4.0023,-3.9697,-3.9697,-3.9697,-3.9697,-3.9697,-3.9697,-3.9697,-3.9697,0.0,0.0,0.0,-3.7977,-3.7475,-3.6455,-3.6405,-3.6405,-3.6405,-3.6405,-3.6094,-3.5495,-3.4474,-3.3671,-3.3131,-3.3136,-3.2792,-3.2277,-3.2277,-3.2277,-3.224,-3.1725,-3.2072,-3.2803,-3.1146,-3.107,-3.1637,-2.8185,-2.7944,-2.9036,-2.6313,-2.5615,-2.5844,-2.5056,-2.4381,-2.3929,-2.4524,-2.4712,-2.4956,-2.6152,-2.6524,-2.6524,-2.6524,-2.6431,-2.6389,-2.6389,-2.6389,-2.6678,-2.7855,-2.8937,-2.9702,-2.9792,-2.9792,-2.9792,-2.9792,-2.9792,-2.9792,-2.9792,-2.9792,-2.9792,-2.9792,0.0,0.0,0.0,0.0,0.0,0.0,-2.814,-2.849,0.0,0.0,0.0,0.0,0.0,-2.4284,-2.4777,-2.3671,-2.3091,-2.3091,-2.3091,-2.3091,-2.3091,-2.3091,-2.3091,-2.3091,-2.3091,-2.3091,-2.3178,-2.4296,-2.5462,-2.6595,-2.7643,-2.8767,-2.9792,-2.9792,-2.9792,-2.9792,-2.9792,-2.9792,-2.9792,0.0,0.0,-3.6317,-3.791,-3.8104,-3.8449,-3.9705,-3.9772,-3.9697,-3.9697,-3.9697,-3.9697,-3.9697,-3.9697,-3.9697,-3.9697,-3.9308,-3.8768,-3.8052,-3.7613,-3.7073,-3.6443,-3.6405,-3.6405,-3.6405,-3.6405,-3.6094,-3.5495,-3.4818,-3.4248,-3.3696,-3.3269,-3.3006,-3.2867,-3.2867,-3.2867,-3.2867,-3.2729,-3.2278,-3.1621,-3.118,-3.0634,-2.9816,-2.7691,-2.7179,-2.728,-2.5346,-2.4729,-2.4788,-2.457,-2.4398,-2.4235,-2.4063,-2.4014,-2.4375,-2.6001,-2.6524,-2.6524,-2.6524,-2.5839,-2.521,-2.521,-2.521,-2.5703,-2.7683,-2.8295,-2.8767,-2.9624,-2.9792,-2.9792,-2.9792,-2.9792,-2.9792,-2.9792,-2.9792,-2.9792,-2.9792,-2.9067,0.0,0.0,-2.7387,-2.6955,-2.6701,-2.6915,-2.676,0.0,0.0,0.0,0.0,-2.3417,-2.3475,-2.4777,-2.3671,-2.3091,-2.3091,-2.3091,-2.3091,-2.3091,-2.3091,-2.3091,-2.3091,-2.3091,-2.3091,-2.3178,-2.4296,-2.5462,-2.6595,-2.7643,-2.8767,-2.9792,-2.9792,-2.9792,-2.9792,-2.9792,-2.9792,-2.9792,-3.4346,-3.4292,-3.4736,-3.6217,-3.6487,-3.6984,-3.8465,-3.8687,-3.8908,-3.9633,-3.9697,-3.9697,-3.9697,-3.9697,-3.9697,-3.9697,-3.9421,-3.8894,-3.8065,-3.7726,-3.7199,-3.6443,-3.6405,-3.6405,-3.6405,-3.6405,-3.6094,-3.5495,-3.4944,-3.4449,-3.3884,-3.3332,-3.3124,-3.3124,-3.3124,-3.3124,-3.3081,-3.2469,-3.1821,-3.1078,-3.0,-2.9498,-2.919,-2.7118,-2.6707,-2.7009,-2.5322,-2.4844,-2.4904,-2.4551,-2.4551,-2.4609,-2.3984,-2.3789,-2.3959,-2.4741,-2.4935,-2.4935,-2.4935,-2.451,-2.4006,-2.4006,-2.4414,-2.5115,-2.6315,-2.7389,-2.8267,-2.8897,-2.9443,-2.9792,-2.9792,-2.9792,-2.9792,-2.9792,-2.9566,-2.9286,-2.9069,-2.8261,0.0,-2.6703,-2.6543,-2.6307,-2.5755,-2.6182,-2.6113,-2.5126,0.0,0.0,-2.3458,-2.2998,-2.315,-2.3996,-2.342,-2.3091,-2.3091,-2.3091,-2.3091,-2.3091,-2.3091,-2.3091,-2.3091,-2.3091,-2.3091,-2.3135,-2.3757,-2.4967,-2.6565,-2.7128,-2.8331,-2.9792,-2.9792,-2.9792,-2.9792,-2.9792,-2.9792,-2.9792,-3.2747,-3.2747,-3.3247,-3.4681,-3.4958,-3.5453,-3.6918,-3.7198,-3.7636,-3.8868,-3.9037,-3.9037,-3.9037,-3.9037,-3.9,-3.8914,-3.8901,-3.8686,-3.8028,-3.7852,-3.7337,-3.6455,-3.6405,-3.6405,-3.6405,-3.6405,-3.6132,-3.5621,-3.5069,-3.4562,-3.401,-3.3458,-3.3156,-3.3124,-3.3124,-3.3124,-3.3025,-3.1733,-3.1089,-3.0721,-2.8495,-2.8085,-2.8623,-2.6524,-2.639,-2.7121,-2.5722,-2.541,-2.5577,-2.4873,-2.4863,-2.5029,-2.4238,-2.3984,-2.3896,-2.3413,-2.3237,-2.3179,-2.311,-2.3091,-2.3091,-2.3091,-2.3844,-2.4585,-2.4745,-2.6232,-2.7643,-2.7804,-2.8779,-2.9534,-2.9534,-2.9663,-2.9792,-2.9753,-2.9212,-2.8604,-2.8116,0.0,-2.6382,-2.4988,-2.5504,-2.5599,-2.4628,-2.5431,-2.5599,-2.4628,-2.4542,-2.4125,0.0,-2.3091,-2.3091,-2.3091,-2.3091,-2.3091,-2.3091,-2.3091,-2.3091,-2.3091,-2.3091,-2.3091,-2.3091,-2.3091,-2.3091,-2.3091,-2.3091,-2.4392,-2.6524,-2.6524,-2.7799,-2.9792,-2.9792,-2.9792,-2.9792,-2.9792,-2.9792,-2.9804,-3.1218,-3.1218,-3.172,-3.3191,-3.3462,-3.3957,-3.5398,-3.5617,-3.5727,-3.5956,-3.6011,-3.6011,-3.6011,-3.6011,-3.5828,-3.5459,-3.5413,-3.6132,-3.7891,-3.7136,-3.6581,-3.6417,-3.6405,-3.6405,-3.6405,-3.6405,-3.6367,-3.6279,-3.5692,-3.5094,-3.4575,-3.4035,-3.352,-3.3124,-3.3124,-3.3124,-3.3025,-3.1733,-3.0631,-2.9544,-2.8179,-2.7078,-2.6245,-2.583,-2.583,-2.5955,-2.5703,-2.5625,-2.5664,-2.5528,-2.5528,-2.5499,-2.5029,-2.492,-2.4832,-2.4346,-2.3965,-2.3603,-2.3198,-2.3091,-2.3091,-2.3091,-2.3222,-2.3637,-2.4575,-2.5073,-2.5577,-2.6554,-2.7614,-2.8347,-2.8347,-2.9157,-2.974,-2.9509,-2.8773,-2.8132,-2.7867,0.0,-2.5083,-2.4819,-2.4092,-2.356,-2.3387,-2.3507,-2.3551,-2.3387,-2.3343,-2.3309,-2.3091,-2.3091,-2.3091,-2.3091,-2.3091,-2.3091,-2.3091,-2.3091,-2.3091,-2.3091,-2.3091,-2.3091,-2.3091,-2.3091,-2.3091,-2.3091,-2.3091,-2.4392,-2.6524,-2.6524,-2.7799,-2.9792,-2.9792,-2.9792,-2.9792,-2.9792,-2.9792,-2.9854,-3.0889,-3.0889,-3.1112,-3.1825,-3.193,-3.2426,-3.3912,-3.4136,-3.4403,-3.5178,-3.5288,-3.5288,-3.5288,-3.5288,-3.5087,-3.4636,-3.4356,-3.4523,-3.5375,-3.494,-3.4856,-3.5283,-3.5319,-3.5667,-3.6358,-3.6405,-3.6405,-3.6405,-3.5818,-3.5219,-3.4668,-3.4161,-3.3608,-3.3124,-3.3124,-3.2698,-3.2021,-3.1013,-2.9734,-2.8341,-2.7345,-2.6604,-2.6064,-2.5781,-2.584,-2.6084,-2.6084,-2.5888,-2.5723,-2.6006,-2.5937,-2.5615,-2.5205,-2.5116,-2.5028,-2.4551,-2.4121,-2.3691,-2.3218,-2.3091,-2.3091,-2.3091,-2.3091,-2.3266,-2.3757,-2.4372,-2.4957,-2.5462,-2.6461,-2.725,-2.725,-2.7666,-2.7959,-2.7867,-2.7208,0.0,0.0,-2.5133,-2.424,-2.3943,-2.342,-2.3091,-2.3091,-2.3091,-2.3091,-2.3091,-2.3091,-2.3091,-2.3091,-2.3091,-2.3091,-2.3091,-2.3091,-2.3091,-2.3091,-2.3091,-2.3091,-2.3091,-2.3091,-2.3091,-2.3091,-2.3091,-2.3091,-2.3091,-2.3091,-2.4392,-2.6524,-2.6524,-2.7799,-2.9792,-2.9792,-2.9792,-2.9829,-3.0131,-3.0231,-3.0319,-3.0889,-3.0889,-3.0889,-3.0889,-3.0889,-3.1276,-3.2426,-3.2587,-3.2975,-3.4136,-3.4303,-3.4303,-3.4303,-3.4303,-3.4107,-3.3606,-3.3138,-3.2659,-3.2243,-3.2101,-3.2592,-3.3845,-3.392,-3.441,-3.5403,-3.5763,-3.5918,-3.5918,-3.579,-3.5454,-3.4856,-3.4349,-3.3872,-3.3458,-3.3003,-3.2365,-3.1468,-3.0229,-2.9003,-2.7792,-2.6923,-2.6533,-2.6494,-2.6162,-2.624,-2.6533,-2.6533,-2.6318,-2.6035,-2.6416,-2.6309,-2.5908,-2.5518,-2.5419,-2.5293,-2.4853,-2.4346,-2.3838,-2.3408,-2.3169,-2.3091,-2.3091,-2.3091,-2.3091,-2.3091,-2.38,-2.4414,-2.4414,-2.5294,-2.6099,-2.6099,-2.6307,-2.6472,-2.6431,0.0,0.0,0.0,-2.4178,-2.3608,-2.3139,-2.3091,-2.3091,-2.3091,-2.3091,-2.3091,-2.3091,-2.3091,-2.3091,-2.3091,-2.3091,-2.3091,-2.3091,-2.3091,-2.3091,-2.3091,-2.3091,-2.3091,-2.3091,-2.3091,-2.3091,-2.3091,-2.3091,-2.3091,-2.3091,-2.3091,-2.4221,-2.6141,-2.6389,-2.7504,-2.9079,-2.9585,-2.9699,-2.9692,-3.0365,-3.0696,-3.0871,-3.0889,-3.0889,-3.0889,-3.0889,-3.0889,-3.0947,-3.1054,-3.1054,-3.1112,-3.1228,-3.1218,-3.1218,-3.1218,-3.1218,-3.1041,-3.0567,-3.0132,-2.9697,-2.9263,-2.8868,-2.9796,-3.2342,-3.2431,-3.2482,-3.2582,-3.3859,-3.4532,-3.4532,-3.5726,-3.6019,-3.542,-3.4868,-3.4638,-3.453,-3.2732,-3.2221,-3.2441,-2.9927,-2.8809,-2.859,-2.7441,-2.6973,-2.6963,-2.6934,-2.6943,-2.6973,-2.6973,-2.6943,-2.6924,-2.6953,-2.6943,-2.6846,-2.6426,-2.6289,-2.6211,-2.5723,-2.4992,-2.4277,-2.3857,-2.3447,-2.3091,-2.3091,-2.3091,-2.3091,-2.3091,-2.3178,-2.3222,-2.3222,-2.4135,-2.4914,-2.4914,-2.5797,-2.6431,-2.616,0.0,0.0,-2.4573,-2.3747,-2.3139,-2.3091,-2.3091,-2.3091,-2.3091,-2.3091,-2.3091,-2.3091,-2.3091,-2.3091,-2.3091,-2.3091,-2.3091,-2.3091,-2.3091,-2.3091,-2.3091,-2.3091,-2.3091,-2.3091,-2.3091,-2.3091,-2.3091,-2.3091,-2.3091,-2.3091,-2.3091,-2.38,-2.4999,-2.6058,-2.6607,-2.6935,-2.9,-2.9465,-2.9119,-3.0211,-3.0922,-3.1411,-3.0889,-3.0889,-3.0889,-3.0889,-3.0889,-3.0889,-3.0889,-3.0889,-3.0889,-3.0889,-3.0889,-3.0889,-3.0889,-3.0889,-3.0703,-3.0234,-2.9814,-2.9385,-2.8945,-2.8525,-2.9154,-3.0968,-3.1876,-3.228,-3.228,-3.2844,-3.3514,-3.4385,-3.4933,-3.5301,-3.5495,-3.5282,-3.5006,-3.4623,-3.3109,-3.2078,-3.1472,-2.9874,-2.8613,-2.7662,-2.7501,-2.7412,-2.7393,-2.7119,-2.7178,-2.7412,-2.7412,-2.7246,-2.7051,-2.7334,-2.7236,-2.6943,-2.6523,-2.6562,-2.6699,-2.6269,-2.5518,-2.4727,-2.4297,-2.3672,-2.3091,-2.3091,-2.3091,-2.3091,-2.3091,-2.3091,-2.3091,-2.3091,-2.343,-2.3757,-2.3757,-2.4102,-2.4349,-2.4253,0.0,-2.3714,-2.3647,-2.3309,-2.3091,-2.3091,-2.3091,-2.3091,-2.3091,-2.3091,-2.3091,-2.3091,-2.3091,-2.3091,-2.3091,-2.3091,-2.3091,-2.3091,-2.3091,-2.3091,-2.3091,-2.3091,-2.3227,-2.3545,-2.3227,-2.3374,-2.3916,-2.3335,-2.3247,-2.3525,-2.3218,-2.3757,-2.483,-2.5252,-2.6243,-2.7597,-2.8799,-2.952,-3.0084,-3.1185,-3.1725,-3.1989,-3.0889,-3.0889,-3.0889,-3.0889,-3.0889,-3.0889,-3.0889,-3.0889,-3.0889,-3.0889,-3.0889,-3.0889,-3.0889,-3.0889,-3.0762,-3.0439,-2.9893,-2.9443,-2.9141,-2.8603,-2.8698,-2.9608,-3.0566,-3.1019,-3.1019,-3.148,-3.214,-3.3116,-3.3514,-3.3977,-3.4508,-3.4338,-3.4156,-3.3857,-3.2379,-3.1334,-3.063,-2.9566,-2.8478,-2.7441,-2.7744,-2.7861,-2.7832,-2.7529,-2.7598,-2.7861,-2.7861,-2.7666,-2.7461,-2.7764,-2.7666,-2.7344,-2.6924,-2.6807,-2.6738,-2.6309,-2.5654,-2.5018,-2.4531,-2.3887,-2.3266,-2.313,-2.3091,-2.3091,-2.3091,-2.3091,-2.3091,-2.3091,-2.3091,-2.3091,-2.3091,-2.3091,-2.3091,-2.3091,-2.3091,-2.3091,-2.3091,-2.3091,-2.3091,-2.3091,-2.3091,-2.3091,-2.3091,-2.3091,-2.3091,-2.3091,-2.3091,-2.3091,-2.3091,-2.3091,-2.3159,-2.334,-2.3305,-2.3364,-2.35,-2.3364,-2.3564,-2.3984,-2.3682,-2.3803,-2.4394,-2.3764,-2.3633,-2.3769,-2.3477,-2.3888,-2.484,-2.537,-2.6476,-2.7976,-2.9203,-3.0045,-3.0737,-3.1814,-3.2328,-3.2541,-3.0889,-3.0889,-3.0889,-3.0889,-3.0889,-3.0889,-3.0889,-3.0889,-3.0889,-3.0889,-3.0889,-3.0889,-3.0889,-3.0889,-3.0889,-3.0889,-3.0088,-2.9626,-2.956,-2.8769,-2.8291,-2.8291,-2.8291,-2.8291,-2.8291,-2.9608,-3.0266,-3.0317,-3.1633,-3.228,-3.228,-3.1739,-3.1761,-3.2208,-3.0333,-2.9785,-3.0214,-2.8847,-2.8291,-2.8291,-2.8291,-2.8291,-2.8291,-2.8291,-2.8291,-2.8291,-2.8291,-2.8291,-2.8291,-2.8291,-2.8291,-2.8223,-2.7855,-2.708,-2.6309,-2.583,-2.543,-2.498,-2.4541,-2.4111,-2.3691,-2.3208,-2.3091,-2.3091,-2.3091,-2.3091,-2.3091,-2.3091,-2.3091,-2.3091,-2.3091,-2.3091,-2.3091,-2.3091,-2.3091,-2.3091,-2.3091,-2.3091,-2.3091,-2.3091,-2.3091,-2.3091,-2.3091,-2.3091,-2.3091,-2.3101,-2.3101,-2.3101,-2.3101,-2.3101,-2.3305,-2.3779,-2.3799,-2.3994,-2.4414,-2.4004,-2.4004,-2.4424,-2.4414,-2.4424,-2.4424,-2.4424,-2.4189,-2.3799,-2.3844,-2.4179,-2.4956,-2.663,-2.7296,-2.7606,-3.033,-3.1078,-3.0721,-3.1824,-3.2591,-3.3124,-3.0889,-3.0889,-3.0889,-3.0889,-3.0889,-3.0889,-3.0889,-3.0889,-3.0889,-3.0889,-3.0889,-3.0889,-3.0889,-3.0889,-3.0889,-3.0889,-3.0351,-2.9756,-2.915,-2.8594,-2.8291,-2.8291,-2.8291,-2.8291,-2.8291,-2.8698,-2.9355,-3.0317,-3.0721,-3.1378,-3.228,-3.2135,-3.2146,-3.2219,-3.0726,-3.014,-3.0214,-2.8847,-2.8291,-2.8291,-2.8291,-2.8291,-2.8291,-2.8291,-2.8291,-2.8291,-2.8291,-2.8291,-2.8291,-2.8291,-2.8291,-2.8271,-2.8144,-2.7314,-2.6426,-2.6592,-2.6113,-2.5439,-2.499,-2.456,-2.4053,-2.3276,-2.3091,-2.3091,-2.3091,-2.3091,-2.3091,-2.3091,-2.3091,-2.3091,-2.3091,-2.3091,-2.3091,-2.3091,-2.3091,-2.3091,-2.3091,-2.3091,-2.3091,-2.3091,-2.3091,-2.3091,-2.3091,-2.3091,-2.3218,-2.3574,-2.3867,-2.3906,-2.3613,-2.3877,-2.3965,-2.3799,-2.4072,-2.4443,-2.4863,-2.4443,-2.4443,-2.4873,-2.456,-2.4746,-2.5274,-2.4697,-2.4963,-2.5966,-2.5681,-2.6154,-2.7159,-2.7659,-2.8328,-2.915,-3.0374,-3.1198,-3.1819,-3.2539,-3.293,-3.3131,-3.0889,-3.0889,-3.0889,-3.0889,-3.0889,-3.0889,-3.0889,-3.0889,-3.0889,-3.0889,-3.0889,-3.0889,-3.0889,-3.0889,-3.0889,-3.0889,-3.0312,-2.9658,-2.8965,-2.8525,-2.8369,-2.8535,-2.8545,-2.8467,-2.8301,-2.8457,-2.8866,-2.9503,-2.9686,-3.0087,-3.0721,-3.0721,-3.0721,-3.0669,-2.9859,-2.9503,-2.946,-2.8644,-2.8291,-2.8291,-2.8291,-2.8291,-2.8291,-2.8291,-2.8291,-2.8291,-2.8291,-2.8291,-2.8291,-2.8291,-2.8291,-2.8262,-2.8096,-2.7402,-2.665,-2.6738,-2.6279,-2.5586,-2.5195,-2.4873,-2.4512,-2.3773,-2.3344,-2.3091,-2.3091,-2.3091,-2.3091,-2.3091,-2.3091,-2.3091,-2.3091,-2.3091,-2.3091,-2.3091,-2.3091,-2.3091,-2.3091,-2.3091,-2.3091,-2.3091,-2.3091,-2.3159,-2.3379,-2.3398,-2.3574,-2.4004,-2.4277,-2.4307,-2.4053,-2.4277,-2.4375,-2.4297,-2.4541,-2.4883,-2.5332,-2.5068,-2.5068,-2.5332,-2.5068,-2.5177,-2.5674,-2.5128,-2.5394,-2.6192,-2.5906,-2.6655,-2.8038,-2.8295,-2.9331,-3.0821,-3.1369,-3.1976,-3.2591,-3.2955,-3.3219,-3.3445,-3.0889,-3.0889,-3.0889,-3.0889,-3.0889,-3.0889,-3.0889,-3.0889,-3.0889,-3.0889,-3.0889,-3.0889,-3.0889,-3.0889,-3.0889,-3.0889,-3.0117,-2.9443,-2.9004,-2.8623,-2.8564,-2.8906,-2.8955,-2.8799,-2.8418,-2.8779,-2.8769,-2.835,-2.8769,-2.874,-2.8291,-2.833,-2.833,-2.8291,-2.8291,-2.8291,-2.8291,-2.8291,-2.8291,-2.8291,-2.8291,-2.8291,-2.8291,-2.8291,-2.8291,-2.8291,-2.8291,-2.8291,-2.8291,-2.8291,-2.8291,-2.8223,-2.7855,-2.7393,-2.6982,-2.6523,-2.6103,-2.5645,-2.5244,-2.5145,-2.5018,-2.458,-2.3812,-2.3198,-2.3159,-2.3149,-2.314,-2.3101,-2.3091,-2.3091,-2.3091,-2.3091,-2.3091,-2.3091,-2.3091,-2.3091,-2.3091,-2.3091,-2.3091,-2.3091,-2.3091,-2.3266,-2.375,-2.3857,-2.4062,-2.4443,-2.4512,-2.4512,-2.4473,-2.4512,-2.4697,-2.5106,-2.5155,-2.5322,-2.5684,-2.5693,-2.5693,-2.5693,-2.5693,-2.5693,-2.5693,-2.5693,-2.5556,-2.5307,-2.5449,-2.6514,-2.8271,-2.8922,-3.0391,-3.234,-3.2867,-3.3124,-3.3124,-3.3124,-3.342,-3.3909,-3.0889,-3.0889,-3.0889,-3.0889,-3.0889,-3.0889,-3.0889,-3.0889,-3.0889,-3.0889,-3.0889,-3.0889,-3.0889,-3.0889,-3.0889,-3.0889,-3.0381,-2.9883,-2.9453,-2.9346,-2.918,-2.8926,-2.9248,-2.9385,-2.9297,-2.9385,-2.9219,-2.8779,-2.9219,-2.9043,-2.8301,-2.8633,-2.8603,-2.8291,-2.8291,-2.8291,-2.8291,-2.8291,-2.8291,-2.8291,-2.8291,-2.8291,-2.8291,-2.8291,-2.8291,-2.8291,-2.8291,-2.8291,-2.8291,-2.8291,-2.8291,-2.8223,-2.7855,-2.765,-2.7373,-2.6611,-2.6328,-2.6152,-2.5713,-2.5332,-2.5096,-2.4951,-2.4531,-2.4053,-2.3721,-2.3652,-2.3555,-2.3169,-2.3091,-2.3091,-2.3091,-2.3091,-2.3091,-2.3091,-2.3091,-2.3091,-2.3091,-2.3091,-2.3091,-2.3091,-2.3091,-2.3266,-2.375,-2.4404,-2.4824,-2.4922,-2.5254,-2.5303,-2.4951,-2.5264,-2.5332,-2.5125,-2.541,-2.5586,-2.5693,-2.5693,-2.5693,-2.5693,-2.5693,-2.5693,-2.5693,-2.5693,-2.6196,-2.7112,-2.8064,-2.9228,-3.057,-3.1702,-3.2438,-3.2905,-3.3074,-3.3124,-3.3124,-3.3124,-3.342,-3.396,-3.0889,-3.0889,-3.0889,-3.0889,-3.0889,-3.0889,-3.0889,-3.0889,-3.0889,-3.0889,-3.0889,-3.0889,-3.0889,-3.0889,-3.0889,-3.0889,-3.0459,-3.0107,-2.9883,-2.9687,-2.956,-2.9531,-2.9746,-2.9971,-3.0195,-3.0205,-2.9883,-2.9228,-2.9658,-2.9531,-2.8906,-2.8916,-2.8799,-2.8584,-2.8389,-2.8291,-2.8291,-2.8291,-2.8408,-2.8574,-2.8369,-2.8535,-2.8857,-2.8447,-2.8418,-2.8564,-2.8369,-2.8291,-2.8291,-2.8291,-2.8291,-2.8252,-2.8037,-2.7685,-2.7305,-2.707,-2.6709,-2.6338,-2.6113,-2.5879,-2.5644,-2.5439,-2.5215,-2.4873,-2.4238,-2.4092,-2.4023,-2.3754,-2.3705,-2.3705,-2.3705,-2.3539,-2.3447,-2.3447,-2.3447,-2.3379,-2.312,-2.3452,-2.3627,-2.3477,-2.3578,-2.3916,-2.4355,-2.5,-2.5391,-2.5391,-2.5605,-2.5586,-2.54,-2.5605,-2.5586,-2.54,-2.5567,-2.5693,-2.5693,-2.5693,-2.5693,-2.5693,-2.5693,-2.5693,-2.5693,-2.5693,-2.6062,-2.6706,-2.7352,-2.8669,-3.0406,-3.1057,-3.2021,-3.3124,-3.3124,-3.3124,-3.3106,-3.337,-3.3985,-3.468,-3.0889,-3.0889,-3.0889,-3.0889,-3.0889,-3.0889,-3.0889,-3.0889,-3.0889,-3.0889,-3.0889,-3.0889,-3.0889,-3.0889,-3.0889,-3.0889,-3.0537,-3.0283,-3.0205,-2.9941,-2.9912,-3.0185,-3.0273,-3.0498,-3.0889,-3.0889,-3.0498,-2.9678,-3.0107,-3.0019,-2.9453,-2.9238,-2.9023,-2.8809,-2.8603,-2.8428,-2.8301,-2.8369,-2.8564,-2.8789,-2.8506,-2.8828,-2.9385,-2.875,-2.8682,-2.8877,-2.8525,-2.8359,-2.8291,-2.8291,-2.8291,-2.8281,-2.8203,-2.7744,-2.7275,-2.749,-2.7109,-2.6592,-2.6514,-2.6494,-2.6387,-2.5908,-2.5801,-2.5586,-2.4824,-2.458,-2.4502,-2.4434,-2.4414,-2.4414,-2.4414,-2.4131,-2.3896,-2.3896,-2.3896,-2.3769,-2.3364,-2.3919,-2.4287,-2.3935,-2.4268,-2.4668,-2.5077,-2.5478,-2.5693,-2.5693,-2.5693,-2.5693,-2.5693,-2.5693,-2.5693,-2.5693,-2.5693,-2.5693,-2.5693,-2.5762,-2.5762,-2.5693,-2.5762,-2.5762,-2.5693,-2.5693,-2.5693,-2.5684,-2.5917,-2.7295,-2.9407,-2.9636,-3.1057,-3.3124,-3.3124,-3.3124,-3.3156,-3.3809,-3.4675,-3.5508,-3.0889,-3.0889,-3.0889,-3.0889,-3.0889,-3.0889,-3.0889,-3.0889,-3.0889,-3.0889,-3.0889,-3.0889,-3.0889,-3.0889,-3.0889,-3.0889,-3.083,-3.0625,-3.0225,-3.0518,-3.0557,-3.0215,-3.0586,-3.083,-3.0889,-3.0889,-3.0635,-3.0107,-3.0576,-3.0185,-2.9023,-2.9707,-2.9434,-2.8408,-2.9092,-2.8984,-2.831,-2.8682,-2.8662,-2.8408,-2.8711,-2.8906,-2.9033,-2.9297,-2.9199,-2.8916,-2.8857,-2.8603,-2.8291,-2.8291,-2.8291,-2.8232,-2.7861,-2.792,-2.7988,-2.7305,-2.7285,-2.7464,-2.7031,-2.6934,-2.6826,-2.6406,-2.6299,-2.6172,-2.5625,-2.5264,-2.4873,-2.4492,-2.4414,-2.4414,-2.4414,-2.4375,-2.4336,-2.4336,-2.4336,-2.4316,-2.4248,-2.4346,-2.4394,-2.4336,-2.4717,-2.5047,-2.5106,-2.5478,-2.5693,-2.5693,-2.5693,-2.5693,-2.5693,-2.5693,-2.5693,-2.5693,-2.5693,-2.5693,-2.5693,-2.6113,-2.6113,-2.5693,-2.6123,-2.6103,-2.5693,-2.5693,-2.5693,-2.5781,-2.6849,-2.8132,-2.9498,-3.0541,-3.1821,-3.3124,-3.3124,-3.3124,-3.3206,-3.4223,-3.4969,-3.5558,-3.0889,-3.0889,-3.0889,-3.0889,-3.0889,-3.0889,-3.0889,-3.0889,-3.0889,-3.0889,-3.0889,-3.0889,-3.0889,-3.0889,-3.0889,-3.0889,-3.0889,-3.0801,-3.0596,-3.0771,-3.0801,-3.0596,-3.0781,-3.0889,-3.0889,-3.0889,-3.0791,-3.0586,-3.0791,-3.0459,-2.9639,-3.0019,-2.9775,-2.9023,-2.946,-2.9421,-2.9023,-2.9209,-2.9307,-2.9355,-2.9307,-2.958,-2.999,-2.9687,-2.959,-2.96,-2.9365,-2.9004,-2.8643,-2.8643,-2.8486,-2.8262,-2.8076,-2.7988,-2.791,-2.7773,-2.7695,-2.7679,-2.7432,-2.7373,-2.7275,-2.6846,-2.6562,-2.6338,-2.6143,-2.5762,-2.5391,-2.5195,-2.5156,-2.5156,-2.5156,-2.4951,-2.4775,-2.4775,-2.4775,-2.4697,-2.4453,-2.4844,-2.5156,-2.5156,-2.5322,-2.5439,-2.5439,-2.5625,-2.5693,-2.5693,-2.5693,-2.5693,-2.5693,-2.5693,-2.5801,-2.6094,-2.6103,-2.6211,-2.6395,-2.6641,-2.6641,-2.6455,-2.6406,-2.6162,-2.5693,-2.5693,-2.5693,-2.5781,-2.704,-2.8272,-2.9521,-3.1093,-3.2244,-3.3174,-3.3759,-3.4186,-3.4385,-3.3784,-3.4629,-3.59]},{"header":{"parameterUnit":"m.s-1","parameterCategory":1,"la1":30.6,"la2":28.766,"lo1":-90.7593,"lo2":-88.6598,"dy":0.0162,"dx":0.0183,"nx":116,"ny":114,"refTime":"2024-05-05T06:00:00:Z","depth":0,"parameterNumber":3,"parameterNumberName":"V-component_of_WINDS"},"data":[0.0,0.0,0.0,0.0,0.0,0.0,0.0,0.0,0.0,0.0,0.0,0.0,0.0,0.0,0.0,0.0,0.0,0.0,0.0,0.0,0.0,0.0,0.0,0.0,0.0,0.0,0.0,0.0,0.0,0.0,0.0,0.0,0.0,0.0,0.0,0.0,0.0,0.0,0.0,0.0,0.0,0.0,0.0,0.0,0.0,0.0,0.0,0.0,0.0,0.0,0.0,0.0,0.0,0.0,0.0,0.0,0.0,0.0,0.0,0.0,0.0,0.0,0.0,0.0,0.0,0.0,0.0,0.0,0.0,0.0,0.0,0.0,0.0,0.0,0.0,0.0,0.0,0.0,0.0,0.0,0.0,0.0,0.0,0.0,0.0,0.0,0.0,0.0,0.0,0.0,0.0,0.0,0.0,0.0,0.0,0.0,0.0,0.0,0.0,0.0,0.0,0.0,0.0,0.0,0.0,0.0,0.0,0.0,0.0,0.0,0.0,0.0,0.0,0.0,0.0,0.0,0.0,0.0,0.0,0.0,0.0,0.0,0.0,0.0,0.0,0.0,0.0,0.0,0.0,0.0,0.0,0.0,0.0,0.0,0.0,0.0,0.0,0.0,0.0,0.0,0.0,0.0,0.0,0.0,0.0,0.0,0.0,0.0,0.0,0.0,0.0,0.0,0.0,0.0,0.0,0.0,0.0,0.0,0.0,0.0,0.0,0.0,0.0,0.0,0.0,0.0,0.0,0.0,0.0,0.0,0.0,0.0,0.0,0.0,0.0,0.0,0.0,0.0,0.0,0.0,0.0,0.0,0.0,0.0,0.0,0.0,0.0,0.0,0.0,0.0,0.0,0.0,0.0,0.0,0.0,0.0,0.0,0.0,0.0,0.0,0.0,0.0,0.0,0.0,0.0,0.0,0.0,0.0,0.0,0.0,0.0,0.0,0.0,0.0,0.0,0.0,0.0,0.0,0.0,0.0,0.0,0.0,0.0,0.0,0.0,0.0,0.0,0.0,0.0,0.0,0.0,0.0,0.0,0.0,0.0,0.0,0.0,0.0,0.0,0.0,0.0,0.0,0.0,0.0,0.0,0.0,0.0,0.0,0.0,0.0,0.0,0.0,0.0,0.0,0.0,0.0,0.0,0.0,0.0,0.0,0.0,0.0,0.0,0.0,0.0,0.0,0.0,0.0,0.0,0.0,0.0,0.0,0.0,0.0,0.0,0.0,0.0,0.0,0.0,0.0,0.0,0.0,0.0,0.0,0.0,0.0,0.0,0.0,0.0,0.0,0.0,0.0,0.0,0.0,0.0,0.0,0.0,0.0,0.0,0.0,0.0,0.0,0.0,0.0,0.0,0.0,0.0,0.0,0.0,0.0,0.0,0.0,0.0,0.0,0.0,0.0,0.0,0.0,0.0,0.0,0.0,0.0,0.0,0.0,0.0,0.0,0.0,0.0,0.0,0.0,0.0,0.0,0.0,0.0,0.0,0.0,0.0,0.0,0.0,0.0,0.0,0.0,0.0,0.0,0.0,0.0,0.0,0.0,0.0,0.0,0.0,0.0,0.0,0.0,0.0,0.0,0.0,0.0,0.0,0.0,0.0,0.0,0.0,0.0,0.0,0.0,0.0,0.0,0.0,0.0,0.0,0.0,0.0,0.0,0.0,0.0,0.0,0.0,0.0,0.0,0.0,0.0,0.0,0.0,0.0,0.0,0.0,0.0,0.0,0.0,0.0,0.0,0.0,0.0,0.0,0.0,0.0,0.0,0.0,0.0,0.0,0.0,0.0,0.0,0.0,0.0,0.0,0.0,0.0,0.0,0.0,0.0,0.0,0.0,0.0,0.0,0.0,0.0,0.0,0.0,0.0,0.0,0.0,0.0,0.0,0.0,0.0,0.0,0.0,0.0,0.0,0.0,0.0,0.0,0.0,0.0,0.0,0.0,0.0,0.0,0.0,0.0,0.0,0.0,0.0,0.0,0.0,0.0,0.0,0.0,0.0,0.0,0.0,0.0,0.0,0.0,0.0,0.0,0.0,0.0,0.0,0.0,0.0,0.0,0.0,0.0,0.0,0.0,0.0,0.0,0.0,0.0,0.0,0.0,0.0,0.0,0.0,0.0,0.0,0.0,0.0,0.0,0.0,0.0,0.0,0.0,0.0,0.0,0.0,0.0,0.0,0.0,0.0,0.0,0.0,0.0,0.0,0.0,0.0,0.0,0.0,0.0,0.0,0.0,0.0,0.0,0.0,0.0,0.0,0.0,0.0,0.0,0.0,0.0,0.0,0.0,0.0,0.0,0.0,0.0,0.0,0.0,0.0,0.0,0.0,0.0,0.0,0.0,0.0,0.0,0.0,0.0,0.0,0.0,0.0,0.0,0.0,0.0,0.0,0.0,0.0,0.0,0.0,0.0,0.0,0.0,0.0,0.0,0.0,0.0,0.0,0.0,0.0,0.0,0.0,0.0,0.0,0.0,0.0,0.0,0.0,0.0,0.0,0.0,0.0,0.0,0.0,0.0,0.0,0.0,0.0,0.0,0.0,0.0,0.0,0.0,0.0,0.0,0.0,0.0,0.0,0.0,0.0,0.0,0.0,0.0,0.0,0.0,0.0,0.0,0.0,0.0,0.0,0.0,0.0,0.0,0.0,0.0,0.0,0.0,0.0,0.0,0.0,0.0,0.0,0.0,0.0,0.0,0.0,0.0,0.0,0.0,0.0,0.0,0.0,0.0,0.0,0.0,0.0,0.0,0.0,0.0,0.0,0.0,0.0,0.0,0.0,0.0,0.0,0.0,0.0,0.0,0.0,0.0,0.0,0.0,0.0,0.0,0.0,0.0,0.0,0.0,0.0,0.0,0.0,0.0,0.0,0.0,0.0,0.0,0.0,0.0,0.0,0.0,0.0,0.0,0.0,0.0,0.0,0.0,0.0,0.0,0.0,0.0,0.0,0.0,0.0,0.0,0.0,0.0,0.0,0.0,0.0,0.0,0.0,0.0,0.0,0.0,0.0,0.0,0.0,0.0,0.0,0.0,0.0,0.0,0.0,0.0,0.0,0.0,0.0,0.0,0.0,0.0,0.0,0.0,0.0,0.0,0.0,0.0,0.0,0.0,0.0,0.0,0.0,0.0,0.0,0.0,0.0,0.0,0.0,0.0,0.0,0.0,0.0,0.0,0.0,0.0,0.0,0.0,0.0,0.0,0.0,0.0,0.0,0.0,0.0,0.0,0.0,0.0,0.0,0.0,0.0,0.0,0.0,0.0,0.0,0.0,0.0,0.0,0.0,0.0,0.0,0.0,0.0,0.0,0.0,0.0,0.0,0.0,0.0,0.0,0.0,0.0,0.0,0.0,0.0,0.0,0.0,0.0,0.0,0.0,0.0,0.0,0.0,0.0,0.0,0.0,0.0,0.0,0.0,0.0,0.0,0.0,0.0,0.0,0.0,0.0,0.0,0.0,0.0,0.0,0.0,0.0,0.0,0.0,0.0,0.0,0.0,0.0,0.0,0.0,0.0,0.0,0.0,0.0,0.0,0.0,0.0,0.0,0.0,0.0,0.0,0.0,0.0,0.0,0.0,0.0,0.0,0.0,0.0,0.0,0.0,0.0,0.0,0.0,0.0,0.0,0.0,0.0,0.0,0.0,0.0,0.0,0.0,0.0,0.0,0.0,0.0,0.0,0.0,0.0,0.0,0.0,0.0,0.0,0.0,0.0,0.0,0.0,0.0,0.0,0.0,0.0,0.0,0.0,0.0,0.0,0.0,0.0,0.0,0.0,0.0,0.0,0.0,0.0,0.0,0.0,0.0,0.0,0.0,0.0,0.0,0.0,0.0,0.0,0.0,0.0,0.0,0.0,0.0,0.0,0.0,0.0,0.0,0.0,0.0,0.0,0.0,0.0,0.0,0.0,0.0,0.0,0.0,0.0,0.0,0.0,0.0,0.0,0.0,0.0,0.0,0.0,0.0,0.0,0.0,0.0,0.0,0.0,0.0,0.0,0.0,0.0,0.0,0.0,0.0,0.0,0.0,0.0,0.0,0.0,0.0,0.0,0.0,0.0,0.0,0.0,0.0,0.0,0.0,0.0,0.0,0.0,0.0,0.0,0.0,0.0,0.0,0.0,0.0,0.0,0.0,0.0,0.0,0.0,0.0,0.0,0.0,0.0,0.0,0.0,0.0,0.0,0.0,0.0,0.0,0.0,0.0,0.0,0.0,0.0,0.0,0.0,0.0,0.0,0.0,0.0,0.0,0.0,0.0,0.0,0.0,0.0,0.0,0.0,0.0,0.0,0.0,0.0,0.0,0.0,0.0,0.0,0.0,0.0,0.0,0.0,0.0,0.0,0.0,0.0,0.0,0.0,0.0,0.0,0.0,0.0,0.0,0.0,0.0,0.0,0.0,0.0,0.0,0.0,0.0,0.0,0.0,0.0,0.0,0.0,0.0,0.0,0.0,0.0,0.0,0.0,0.0,0.0,0.0,0.0,0.0,0.0,0.0,0.0,0.0,0.0,0.0,0.0,0.0,0.0,0.0,0.0,0.0,0.0,0.0,0.0,0.0,0.0,0.0,0.0,0.0,0.0,0.0,0.0,0.0,0.0,0.0,0.0,0.0,0.0,0.0,0.0,0.0,0.0,0.0,0.0,0.0,0.0,0.0,0.0,0.0,0.0,0.0,0.0,0.0,0.0,0.0,0.0,0.0,0.0,0.0,0.0,0.0,0.0,0.0,0.0,0.0,0.0,0.0,0.0,0.0,0.0,0.0,0.0,0.0,0.0,0.0,0.0,0.0,0.0,0.0,0.0,0.0,0.0,0.0,0.0,0.0,0.0,0.0,0.0,0.0,0.0,0.0,0.0,0.0,0.0,0.0,0.0,0.0,0.0,0.0,0.0,0.0,0.0,0.0,0.0,0.0,0.0,0.0,0.0,0.0,0.0,0.0,0.0,0.0,0.0,0.0,0.0,0.0,0.0,0.0,0.0,0.0,0.0,0.0,0.0,0.0,0.0,0.0,0.0,0.0,0.0,0.0,0.0,0.0,0.0,0.0,0.0,0.0,0.0,0.0,0.0,0.0,0.0,0.0,0.0,0.0,0.0,0.0,0.0,0.0,0.0,0.0,0.0,0.0,0.0,0.0,0.0,0.0,0.0,0.0,0.0,0.0,0.0,0.0,0.0,0.0,0.0,0.0,0.0,0.0,0.0,0.0,0.0,0.0,0.0,0.0,0.0,0.0,0.0,0.0,0.0,0.0,0.0,0.0,0.0,0.0,0.0,0.0,0.0,0.0,0.0,0.0,0.0,0.0,0.0,0.0,0.0,0.0,0.0,0.0,0.0,0.0,0.0,0.0,0.0,0.0,0.0,0.0,0.0,0.0,0.0,0.0,0.0,0.0,0.0,0.0,0.0,0.0,0.0,0.0,0.0,0.0,0.0,0.0,0.0,0.0,0.0,0.0,0.0,0.0,0.0,0.0,0.0,0.0,0.0,0.0,0.0,0.0,0.0,0.0,0.0,0.0,0.0,0.0,0.0,0.0,0.0,0.0,0.0,0.0,0.0,0.0,0.0,0.0,0.0,0.0,0.0,0.0,0.0,0.0,0.0,0.0,0.0,0.0,0.0,0.0,0.0,0.0,0.0,0.0,0.0,0.0,0.0,0.0,0.0,0.0,0.0,0.0,0.0,0.0,0.0,0.0,0.0,0.0,0.0,0.0,0.0,0.0,0.0,0.0,0.0,0.0,0.0,0.0,0.0,0.0,0.0,0.0,0.0,0.0,0.0,0.0,0.0,0.0,0.0,0.0,0.0,0.0,0.0,0.0,0.0,0.0,0.0,0.0,0.0,0.0,0.0,0.0,0.0,0.0,0.0,0.0,0.0,0.0,0.0,0.0,0.0,0.0,0.0,0.0,0.0,0.0,0.0,0.0,0.0,0.0,0.0,0.0,0.0,0.0,0.0,0.0,0.0,0.0,0.0,0.0,0.0,0.0,0.0,0.0,0.0,0.0,0.0,0.0,0.0,0.0,0.0,0.0,0.0,0.0,0.0,0.0,0.0,0.0,0.0,0.0,0.0,0.0,0.0,0.0,0.0,0.0,0.0,0.0,0.0,0.0,0.0,1.8459,0.0,0.0,0.0,0.0,0.0,0.0,0.0,0.0,0.0,0.0,0.0,0.0,0.0,0.0,0.0,0.0,0.0,0.0,0.0,0.0,0.0,0.0,0.0,0.0,2.0124,2.0123,2.0377,2.0162,2.0221,2.0702,0.0,0.0,0.0,0.0,0.0,2.1759,2.3621,2.4782,2.5127,2.8301,3.1053,3.3268,3.1966,2.9322,2.5625,0.0,0.0,0.0,0.0,0.0,0.0,0.0,0.0,0.0,0.0,0.0,0.0,0.0,0.0,0.0,0.0,0.0,0.0,0.0,0.0,0.0,0.0,0.0,0.0,0.0,0.0,0.0,0.0,0.0,0.0,0.0,0.0,0.0,0.0,0.0,0.0,0.0,0.0,0.0,0.0,0.0,0.0,0.0,0.0,0.0,0.0,0.0,0.0,0.0,0.0,0.0,0.0,0.0,0.0,0.0,0.0,0.0,0.0,0.0,0.0,0.0,0.0,0.0,0.0,0.0,0.0,0.0,0.0,0.0,0.0,0.0,1.9475,0.0,0.0,0.0,0.0,0.0,0.0,0.0,0.0,0.0,0.0,0.0,0.0,0.0,0.0,0.0,0.0,0.0,0.0,0.0,0.0,0.0,2.0757,2.0757,2.0667,2.0754,2.1047,2.0702,2.0617,2.0978,2.0516,0.0,0.0,0.0,2.1139,2.1998,2.4502,2.5978,2.636,3.2214,3.595,3.7699,3.8551,3.6269,3.1281,2.8188,0.0,0.0,0.0,0.0,0.0,0.0,0.0,0.0,0.0,0.0,0.0,0.0,0.0,0.0,0.0,0.0,0.0,0.0,0.0,0.0,0.0,0.0,0.0,0.0,0.0,0.0,0.0,0.0,0.0,0.0,0.0,0.0,0.0,0.0,0.0,0.0,0.0,0.0,0.0,0.0,0.0,0.0,0.0,0.0,0.0,0.0,0.0,0.0,0.0,0.0,0.0,0.0,0.0,0.0,0.0,0.0,0.0,0.0,0.0,0.0,0.0,0.0,0.0,2.5391,2.533,2.5181,2.5036,2.5137,2.5295,2.3123,2.1921,2.1435,2.0602,0.0,0.0,0.0,0.0,0.0,0.0,0.0,0.0,0.0,0.0,0.0,0.0,0.0,0.0,0.0,0.0,0.0,0.0,0.0,2.1297,2.1303,2.1872,2.2155,2.1888,2.1625,2.1497,2.1403,2.0802,2.0561,2.0836,2.0591,2.0856,2.1723,2.3584,2.6264,2.9733,3.6671,4.0184,4.0504,4.1781,4.149,3.9684,3.5186,3.183,2.9386,0.0,0.0,0.0,0.0,0.0,0.0,0.0,0.0,0.0,0.0,0.0,0.0,0.0,0.0,0.0,0.0,0.0,0.0,0.0,0.0,0.0,0.0,0.0,0.0,0.0,0.0,0.0,0.0,0.0,0.0,0.0,0.0,0.0,0.0,0.0,0.0,0.0,0.0,0.0,0.0,0.0,2.5974,2.6121,0.0,0.0,0.0,0.0,0.0,0.0,0.0,0.0,0.0,0.0,0.0,0.0,0.0,2.8118,2.8656,2.9315,2.9424,2.908,2.9391,2.9111,2.8351,2.7601,2.706,2.6777,2.6782,0.0,2.4174,2.2923,0.0,0.0,0.0,0.0,0.0,0.0,0.0,0.0,0.0,0.0,0.0,0.0,0.0,0.0,0.0,0.0,0.0,0.0,0.0,0.0,0.0,2.395,2.4624,2.4754,2.4785,2.4578,2.412,2.2742,2.1973,2.202,2.1563,2.1665,2.2389,2.5907,3.059,3.6455,4.0072,4.2668,4.4302,4.5716,4.5862,4.4825,4.2372,3.8222,3.3094,3.2251,0.0,0.0,0.0,0.0,0.0,0.0,0.0,0.0,0.0,0.0,0.0,0.0,0.0,0.0,0.0,0.0,0.0,0.0,0.0,0.0,0.0,0.0,0.0,0.0,0.0,0.0,0.0,0.0,0.0,0.0,0.0,0.0,0.0,0.0,0.0,0.0,0.0,0.0,0.0,2.6933,2.7031,2.678,2.613,2.52,0.0,0.0,0.0,0.0,0.0,0.0,0.0,0.0,0.0,2.8808,2.9342,3.0068,3.1088,3.1337,3.1401,3.1199,3.1328,3.12,3.0858,3.048,3.0164,2.9973,3.0185,2.9804,2.8849,2.6468,2.5175,2.4638,0.0,0.0,0.0,0.0,2.3836,2.419,0.0,0.0,0.0,0.0,0.0,0.0,0.0,0.0,0.0,0.0,0.0,0.0,2.4565,2.6166,2.7269,2.7567,2.7692,2.7532,2.6991,2.4861,2.3833,2.4315,2.3072,2.3122,2.4893,2.9838,3.522,4.0966,4.2558,4.4524,4.6819,4.8122,4.844,4.7933,4.7633,4.3664,3.7147,3.6189,3.3823,3.0585,0.0,0.0,0.0,0.0,0.0,0.0,0.0,0.0,0.0,0.0,0.0,0.0,0.0,0.0,0.0,0.0,0.0,0.0,0.0,0.0,0.0,0.0,0.0,0.0,0.0,0.0,0.0,0.0,0.0,0.0,0.0,0.0,0.0,0.0,0.0,0.0,0.0,2.849,2.8603,2.7554,2.8252,2.7883,0.0,0.0,0.0,0.0,0.0,0.0,2.919,2.9775,3.0696,3.1991,3.2216,3.2916,3.4148,3.3765,3.3527,3.3527,3.3051,3.2844,3.2844,3.2431,3.228,3.228,3.228,3.2062,3.1466,2.9181,2.7989,2.7549,2.7126,2.6775,2.6502,2.6262,2.6262,2.648,0.0,0.0,0.0,0.0,0.0,0.0,0.0,0.0,0.0,0.0,0.0,2.5385,2.5682,2.829,2.9872,2.957,2.9372,2.9279,2.9254,2.6588,2.5901,2.7952,2.4952,2.539,3.0018,3.5177,3.864,4.0339,4.3818,4.5966,4.6802,4.7597,4.8311,4.8956,4.9615,4.7025,4.2028,4.0197,3.7761,3.4806,3.1809,0.0,0.0,0.0,0.0,0.0,0.0,0.0,0.0,0.0,0.0,0.0,0.0,0.0,0.0,0.0,0.0,0.0,0.0,0.0,0.0,0.0,0.0,0.0,0.0,0.0,0.0,0.0,0.0,0.0,0.0,0.0,0.0,0.0,0.0,0.0,0.0,0.0,0.0,3.0228,3.1434,0.0,0.0,0.0,0.0,2.9141,2.9532,3.0205,3.1196,3.3266,3.4857,3.5896,3.701,3.7941,3.8579,3.7516,3.6943,3.693,3.5162,3.4276,3.4227,3.2894,3.228,3.228,3.228,3.1381,2.9846,3.0002,2.9821,2.933,2.7996,2.7642,2.778,2.6919,2.7052,2.7602,0.0,0.0,0.0,0.0,0.0,1.9567,2.1009,2.163,2.2902,2.5645,2.6473,2.7717,3.0055,3.167,3.2716,3.3087,3.3058,3.2398,3.1032,2.9058,2.7584,2.6776,2.6918,2.9685,3.533,3.7765,4.0299,4.3063,4.4855,4.5838,4.6126,4.7769,4.8684,4.9022,5.0747,5.0524,4.8619,4.5963,4.3144,4.0133,3.7109,3.4179,0.0,0.0,0.0,0.0,0.0,0.0,0.0,0.0,0.0,0.0,0.0,0.0,0.0,0.0,0.0,0.0,0.0,0.0,0.0,0.0,0.0,0.0,0.0,0.0,0.0,0.0,0.0,0.0,0.0,0.0,0.0,0.0,0.0,0.0,0.0,0.0,0.0,3.3211,3.4293,0.0,3.1978,3.239,3.2909,3.325,3.4078,3.4882,3.5612,3.6383,3.7196,3.79,3.7642,3.7751,3.8316,3.7211,3.6707,3.6707,3.6005,3.5667,3.5667,3.515,3.4715,3.4342,3.4342,3.3803,3.2877,3.2683,3.1536,2.9927,3.0791,3.0954,3.0634,2.9951,2.987,2.9996,0.0,0.0,0.0,1.8612,1.8723,1.9418,2.128,2.1975,2.3492,2.6862,2.7868,2.919,3.1728,3.336,3.4468,3.4969,3.4998,3.4481,3.3276,3.0934,2.9191,2.8322,3.0502,3.3773,3.8139,3.9855,4.2005,4.4615,4.5077,4.5575,4.6049,4.7762,4.8767,4.9342,5.1643,5.267,5.2572,5.0776,4.8272,4.5191,4.1955,3.9154,3.6568,0.0,0.0,0.0,0.0,0.0,0.0,0.0,0.0,0.0,0.0,0.0,0.0,0.0,0.0,0.0,0.0,0.0,0.0,0.0,0.0,0.0,0.0,0.0,0.0,0.0,0.0,0.0,0.0,0.0,0.0,0.0,0.0,0.0,0.0,3.4349,3.5633,3.4575,3.6245,3.6684,3.465,3.5466,3.627,3.6634,3.7349,3.799,3.8542,3.8567,3.8755,3.9132,3.8429,3.8115,3.8304,3.7374,3.687,3.6681,3.6505,3.6405,3.6405,3.6405,3.6056,3.5495,3.5495,3.484,3.3847,3.3858,3.2511,3.0537,3.191,3.235,3.2098,3.1162,3.0934,3.1047,0.0,1.7942,1.8442,1.8402,1.8402,1.9155,2.1314,2.2173,2.3586,2.6347,2.8315,2.9737,3.0457,3.3191,3.4984,3.5033,3.5018,3.5229,3.5762,3.2081,3.0825,3.2961,3.5581,3.7421,3.8421,4.1658,4.3756,4.4615,4.4615,4.5265,4.6576,4.7419,4.8557,4.9981,5.236,5.3406,5.3486,5.4266,5.2874,4.9875,4.6187,4.4619,4.3841,0.0,0.0,0.0,0.0,0.0,0.0,0.0,0.0,0.0,0.0,0.0,0.0,0.0,0.0,0.0,0.0,0.0,0.0,0.0,0.0,0.0,0.0,0.0,0.0,0.0,0.0,0.0,0.0,0.0,0.0,0.0,0.0,0.0,3.3375,3.5529,3.6445,3.4324,3.74,3.863,3.5897,3.7626,3.8944,3.8944,3.8944,3.9132,3.9672,3.9697,3.9697,3.9697,3.9659,3.9383,3.8906,3.8253,3.7688,3.7149,3.6669,3.6405,3.6405,3.6392,3.6031,3.547,3.5458,3.4213,3.2234,3.3405,3.285,3.1267,3.1243,3.1612,3.2014,3.0266,3.0048,3.052,1.774,1.8353,1.8803,1.8652,1.8482,1.8895,2.0382,2.1352,2.3181,2.6602,2.8255,3.0308,3.3389,3.4068,3.4762,3.5984,3.5633,3.4747,3.3235,3.2103,3.2415,3.4559,3.6751,3.9166,4.1888,4.3439,4.4355,4.4615,4.4615,4.5009,4.5823,4.7111,4.8482,4.9939,5.2231,5.3576,5.4135,5.4395,5.4373,5.3868,5.0708,4.8753,4.7423,0.0,0.0,0.0,0.0,0.0,0.0,0.0,0.0,0.0,0.0,0.0,0.0,0.0,0.0,0.0,0.0,0.0,0.0,0.0,0.0,0.0,0.0,0.0,0.0,0.0,0.0,0.0,0.0,0.0,0.0,0.0,3.3947,3.5353,3.5487,3.7209,3.8329,3.8128,3.9044,3.9396,3.863,3.9107,3.9471,3.9471,3.9471,3.9534,3.9685,3.9697,3.9697,3.9697,3.8906,3.8404,3.8253,3.7299,3.6782,3.6631,3.648,3.6405,3.6405,3.5956,3.542,3.4881,3.4525,3.3758,3.2847,3.3164,3.3033,3.2519,3.211,3.2033,3.206,3.0782,3.0191,2.9993,1.7498,1.8399,1.9073,1.8851,1.8652,1.8873,1.9933,2.0989,2.268,2.5436,2.7581,2.9754,3.2118,3.2772,3.3462,3.4457,3.382,3.3111,3.254,3.2735,3.3831,3.6008,3.7507,3.9724,4.2815,4.3367,4.3802,4.4096,4.4096,4.4727,4.5908,4.7117,4.8583,5.0311,5.2307,5.3665,5.4414,5.4806,5.5225,5.5517,5.3815,5.2596,5.154,4.9211,4.7962,4.7177,4.4894,4.2984,4.1085,3.786,0.0,0.0,0.0,0.0,0.0,0.0,0.0,0.0,0.0,0.0,0.0,0.0,0.0,0.0,0.0,0.0,0.0,0.0,0.0,0.0,0.0,0.0,0.0,0.0,3.5705,3.7048,3.7423,3.8504,3.9333,3.9647,3.9697,3.9697,3.9697,3.9697,3.9697,3.9697,3.9697,3.9697,3.9697,3.9697,3.9697,3.9697,3.8831,3.8253,3.8002,3.7149,3.6631,3.6405,3.6405,3.6405,3.6405,3.6031,3.5592,0.0,3.4487,3.3935,3.3407,3.3169,3.3124,0.0,0.0,0.0,0.0,0.0,3.0068,2.9792,1.7223,1.8298,1.9271,1.9082,1.8772,1.8834,1.9678,2.0701,2.1891,2.3446,2.6281,2.8317,2.8637,3.0347,3.1516,3.1702,3.0889,3.11,3.2813,3.3741,3.5185,3.7324,3.8351,3.9973,4.2388,4.2422,4.2743,4.3392,4.3392,4.4457,4.6453,4.7209,4.8726,5.0865,5.2302,5.3445,5.4308,5.5023,5.5449,5.5585,5.5577,5.5664,5.5476,5.2341,5.1696,5.2074,4.9246,4.7105,4.5286,4.2942,0.0,0.0,0.0,0.0,0.0,0.0,0.0,0.0,0.0,0.0,0.0,0.0,0.0,0.0,0.0,0.0,0.0,0.0,0.0,0.0,0.0,0.0,0.0,0.0,3.75,3.8944,3.9007,3.9383,3.9697,3.9697,3.9697,3.9697,3.9697,3.9697,3.9697,3.9697,3.9697,3.9697,3.9697,0.0,0.0,0.0,0.0,3.8492,3.7914,3.7362,3.6895,3.6405,3.6405,3.6405,3.6405,3.6342,3.5968,3.537,3.4818,3.4324,3.3771,3.3282,3.3006,3.2744,3.1119,3.0784,3.1097,3.0143,2.9792,2.9792,1.8915,1.9216,1.9518,1.9478,1.8465,1.8014,1.9024,1.9207,2.0082,2.2504,2.4086,2.5958,2.8413,2.9071,2.9813,3.1039,3.0545,3.0594,3.1659,3.4625,3.7009,3.8579,4.1072,4.2671,4.3172,4.32,4.324,4.3392,4.3392,4.4483,4.656,4.6607,4.8163,5.0882,5.1164,5.2068,5.3445,5.361,5.4418,5.5537,5.4909,5.5437,5.6509,5.5887,5.6505,5.7484,5.5716,5.3807,5.1547,4.7988,4.4178,4.0268,3.6678,3.4498,0.0,0.0,0.0,0.0,0.0,0.0,0.0,0.0,0.0,0.0,0.0,0.0,0.0,0.0,0.0,0.0,0.0,0.0,0.0,3.6671,3.799,3.9032,3.9471,3.9622,3.9697,3.9697,3.9697,3.9697,3.9697,3.9697,3.9697,3.9697,3.9697,3.9697,3.9697,3.9697,3.9484,3.9095,3.8467,3.7902,3.7349,3.6845,3.6518,3.6405,0.0,0.0,3.6392,3.5906,3.5357,3.4806,3.4299,3.3746,3.3275,3.3162,3.2583,3.17,3.1327,3.0745,3.008,2.9867,2.9792,2.9792,2.0059,1.9912,1.9715,1.9606,1.8536,1.7844,1.8264,1.8661,1.9246,2.0183,2.2347,2.4332,2.5716,2.6598,2.7555,2.8752,2.9312,3.0281,3.1847,3.4881,3.7602,3.9852,4.1363,4.2348,4.2784,4.24,4.2585,4.3392,4.3392,4.4487,4.6603,4.6917,4.8437,5.0903,5.125,5.2289,5.3812,5.3812,5.4491,5.5614,5.5592,5.5849,5.6267,5.6695,5.7825,5.9106,5.8361,5.693,5.4918,5.1614,4.7789,4.3803,4.0347,3.7827,3.571,0.0,0.0,0.0,0.0,0.0,0.0,0.0,0.0,0.0,0.0,0.0,0.0,0.0,0.0,3.7275,3.8194,0.0,3.8322,3.8755,3.932,3.9697,3.9697,3.9697,3.9929,4.0605,4.0642,4.0642,4.0642,4.0642,4.0415,3.9736,3.9697,3.9697,3.9697,3.9697,3.9433,3.8944,3.8304,3.7739,3.7199,3.6681,3.6405,3.6405,3.6405,3.6405,3.6405,3.6081,3.5805,3.5491,3.4663,3.4161,3.3834,3.2993,3.2152,3.1361,3.1097,3.0507,2.9792,2.9792,2.9792,2.9792,2.0702,2.0342,1.9863,1.9676,1.8696,1.7917,1.7772,1.8421,1.8758,1.8262,2.0918,2.2864,2.2832,2.403,2.5168,2.6033,2.8066,3.0067,3.1951,3.4751,3.7513,4.0142,4.0609,4.1069,4.1629,4.1226,4.1696,4.3182,4.3182,4.4364,4.6648,4.7234,4.8715,5.0957,5.1533,5.266,5.4179,5.4179,5.4638,5.5409,5.5904,5.5904,5.5647,5.5971,5.7206,5.8761,5.8761,5.7565,5.5646,5.3418,4.999,4.6083,4.3027,4.0653,3.8417,3.5623,3.4823,0.0,0.0,0.0,0.0,0.0,0.0,0.0,0.0,3.7956,3.8656,4.1192,4.1336,4.122,4.18,4.1746,4.1358,4.0736,4.0588,4.0362,3.9923,3.976,4.0173,4.1455,4.1604,4.1505,4.1269,4.1455,4.1082,3.9788,3.9697,3.9697,3.9697,3.9697,3.9433,3.8944,3.8304,3.7739,3.7199,3.6681,3.6405,3.6405,3.6405,3.6405,3.6405,3.6405,3.6355,3.6144,3.5039,3.4437,3.4123,3.2654,3.1738,3.1185,3.0658,3.0181,2.9792,2.9792,2.9792,2.9792,2.0654,2.0255,1.9902,1.9863,1.8678,1.7787,1.7957,1.7908,1.8108,1.8798,1.992,2.1061,2.2082,2.2358,2.2891,2.3862,2.7641,3.0132,3.0423,3.4233,3.691,3.7827,3.9554,4.0191,3.9634,4.0468,4.1387,4.2319,4.2319,4.3869,4.6779,4.6751,4.8268,5.1081,5.1035,5.1886,5.3335,5.3335,5.3812,5.4473,5.3867,5.4399,5.5456,5.4184,5.5123,5.7159,5.7159,5.5288,5.2721,5.2065,4.9228,4.5588,4.3233,4.1863,4.0373,3.687,3.5421,3.4543,3.2646,3.3479,3.575,3.9263,4.0287,4.2228,0.0,4.8498,4.7528,5.0768,4.9683,4.7638,4.5973,4.4786,4.3363,4.1506,4.0786,4.0488,4.0438,4.0011,4.0173,4.1455,4.1604,4.1169,4.0032,4.0932,4.1082,3.9788,3.9697,3.9697,3.9697,3.9697,3.9433,3.8944,3.8304,3.7739,3.7199,3.6681,3.6405,3.6405,3.6405,3.6405,3.6405,3.6405,3.6094,3.5533,3.4474,3.342,3.2441,3.1763,3.1173,3.0645,3.0093,2.9842,2.9792,2.9792,2.9792,2.9792,2.0605,2.0024,1.9553,1.9553,1.8428,1.747,1.7277,1.6968,1.6894,1.7251,1.8383,1.9589,2.0853,2.1821,2.2842,2.3987,2.6103,2.8442,3.1035,3.3158,3.5345,3.7606,3.8527,3.9046,3.9232,3.9681,4.035,4.1199,4.1883,4.3097,4.4798,4.6391,4.8049,4.9683,5.0601,5.1632,5.2684,5.3133,5.3781,5.4525,5.4619,5.4511,5.4198,5.3007,5.1888,5.1135,5.2482,5.1495,0.0,4.7535,4.5375,4.3205,4.1694,4.1042,4.0173,3.6981,3.5815,3.5526,3.5238,3.6982,3.9436,4.1565,4.3791,4.6367,5.0021,4.9679,4.9507,5.2893,5.2211,5.0618,4.9323,4.7688,4.5924,4.3909,4.2108,4.0837,4.0563,4.0036,3.989,4.0415,4.1169,4.1406,4.0844,4.1269,4.1082,3.9788,3.9697,3.9697,3.9697,3.9697,3.9283,3.8391,3.814,3.7588,3.6757,3.6518,3.6405,3.6405,3.6405,3.6405,3.6405,3.6031,3.5416,3.4562,3.4098,3.3445,3.2641,3.1763,3.126,3.1009,3.0482,3.0269,3.0231,2.9917,2.9792,2.9792,2.0265,1.9688,1.9174,1.9061,1.8235,1.7424,1.6943,1.6669,1.6499,1.6596,1.7538,1.8664,1.9812,2.1302,2.2553,2.3404,2.4635,2.6929,3.0585,3.1776,3.3674,3.6659,3.6981,3.7321,3.7841,3.7896,3.8263,3.8999,4.0208,4.1325,4.234,4.4741,4.6548,4.7805,4.8995,5.0157,5.1227,5.1934,5.2582,5.3153,5.3684,5.3247,5.2049,5.042,4.8206,4.6182,4.7863,4.7006,4.4805,4.2763,4.1205,3.9964,3.9197,3.8988,3.8583,3.6122,3.5079,3.4983,3.6223,3.8441,4.0822,4.2694,4.5995,4.9211,5.0795,5.0841,5.1294,5.416,5.3698,5.2367,5.1092,4.9507,4.7691,4.5475,4.3151,4.1367,4.0827,4.0275,3.9873,3.971,4.0503,4.1082,4.1082,4.1406,4.1082,3.9788,3.9697,3.9697,3.9697,3.9697,3.9245,3.8278,3.809,3.755,3.6644,3.648,3.6405,3.6405,3.6405,3.6405,3.6392,3.5805,3.4981,3.4123,3.396,3.3495,3.2767,3.1788,3.1386,3.1336,3.0821,3.0708,3.0771,3.0218,3.0018,2.9993,1.943,1.9174,1.8881,1.8499,1.8239,1.7927,1.7454,1.738,1.7499,1.7897,1.7989,1.8359,1.9234,2.0401,2.1173,2.1211,2.3707,2.6112,2.7985,3.0069,3.2064,3.3935,3.4627,3.484,3.4462,3.4587,3.4837,3.525,3.6658,3.8167,3.9733,4.1133,4.315,4.5589,4.5658,4.6684,4.8453,4.9086,4.9359,4.9376,4.9393,4.9376,4.8964,4.5616,4.4229,4.4111,4.4248,4.1941,3.883,3.8557,3.739,3.6056,3.5883,3.5774,3.545,3.4002,3.2549,3.194,3.425,3.5942,3.8143,4.2709,4.6703,5.0446,5.424,5.468,5.4677,5.6306,5.5286,5.3332,5.0715,4.9592,4.8159,4.5448,4.3419,4.1932,4.1338,4.0786,4.0287,3.976,3.9749,3.9736,0.0,4.0882,4.1082,3.9788,3.9697,3.9697,3.9697,3.9697,3.9433,3.8906,3.8304,3.7739,3.7161,3.6669,3.6405,3.6405,3.6405,3.6405,3.6392,3.5805,3.5194,3.4663,3.4135,3.3269,3.219,3.1625,3.1386,3.1336,3.0821,3.0922,3.1298,3.0783,3.0595,3.052,1.9326,1.8911,1.8481,1.808,1.7603,1.7342,1.7467,1.6805,1.6405,1.6827,1.7142,0.0,0.0,0.0,0.0,0.0,2.218,2.3549,2.5937,2.7578,2.9167,3.0673,3.2288,3.3122,3.2959,3.3314,3.3566,3.3726,3.495,3.568,3.6024,3.9131,4.0891,4.1445,4.3322,4.4524,4.5138,4.5862,4.6372,4.674,4.6839,4.6344,4.5405,4.3416,4.0979,3.8491,0.0,3.6772,3.6015,3.4819,3.3561,3.2526,3.2452,3.2444,3.2174,3.0561,3.0525,3.1285,3.2678,3.5675,3.9223,4.256,4.6238,4.9701,5.2282,5.2777,5.3017,5.4028,5.2473,5.0687,4.9791,4.7862,4.6136,4.5217,4.3451,4.215,4.1907,4.1404,4.0852,4.03,4.0237,0.0,0.0,0.0,0.0,3.9749,3.9697,3.9697,3.9697,3.9697,3.9433,3.8944,3.8304,3.7739,3.7199,3.6681,3.6405,3.6405,3.6405,3.5981,3.5265,3.5031,3.45,3.3621,3.3432,3.3131,3.2717,3.1775,3.1599,3.1888,3.1336,3.1461,3.1863,3.1336,3.1135,3.0997,0.0,1.8295,1.7879,1.7545,1.7272,0.0,0.0,0.0,0.0,0.0,0.0,0.0,0.0,0.0,0.0,0.0,0.0,2.2109,2.4462,2.553,2.6756,2.8271,2.9414,2.9785,2.9339,2.9342,2.9133,2.8695,3.0285,3.1156,3.1577,3.4971,3.6862,3.7548,3.9317,4.0348,4.0817,4.1724,4.2252,4.2452,4.28,4.2281,4.1175,3.9518,3.7405,0.0,3.3458,3.325,3.351,3.1857,3.1075,3.0717,3.0328,3.0191,3.0068,2.9385,2.9904,3.1177,3.3199,3.579,3.8607,4.1572,4.4404,4.713,4.9499,5.0117,5.0593,5.194,5.0464,4.8895,4.8655,4.6893,4.5149,4.4077,4.2803,4.1828,4.1374,4.0978,4.0689,4.0538,4.0513,4.03,0.0,0.0,0.0,3.9697,3.9697,3.9697,3.9697,3.9697,3.9433,3.8944,3.8304,3.7739,3.7199,3.6681,3.6405,3.6405,3.6157,3.5692,3.4956,3.4613,3.4035,3.3345,3.2943,3.288,3.3023,3.165,3.1675,3.2453,3.1687,3.1725,3.2152,3.1599,3.1273,3.0984,0.0,0.0,1.7135,0.0,0.0,0.0,0.0,0.0,0.0,0.0,0.0,0.0,0.0,0.0,0.0,0.0,0.0,0.0,2.3393,2.3935,2.4942,2.6649,2.6,2.5119,2.3935,2.3108,2.2171,2.1046,2.3256,2.5069,2.6556,2.8787,3.1166,3.3633,3.3765,3.4449,3.5624,3.6832,3.7037,3.666,3.7362,3.7194,3.6375,3.4176,3.3619,3.3766,3.206,3.1475,3.1305,2.9964,3.0183,3.0833,2.9771,2.9312,2.934,3.0448,3.0773,3.158,3.5358,3.6052,3.6468,3.9826,4.1494,4.3094,4.6194,4.6843,4.7505,4.9924,4.907,4.7714,4.704,4.6429,4.5086,4.2153,4.1739,4.1352,4.0092,3.9885,4.0036,4.0501,4.0563,4.0325,3.9747,0.0,0.0,3.9697,0.0,3.9697,3.9697,3.9697,3.9459,3.8982,3.8329,3.7751,3.7236,3.6694,3.6405,3.6405,3.583,3.5508,3.542,3.4424,3.3897,3.3759,3.2704,3.2554,3.2918,3.1348,3.1625,3.2918,3.1813,3.1712,3.2102,3.1549,3.1035,3.0532,0.0,0.0,0.0,0.0,0.0,0.0,0.0,0.0,0.0,0.0,0.0,0.0,0.0,0.0,0.0,0.0,0.0,0.0,2.0831,2.1918,2.2574,2.2655,2.3181,2.3332,2.3038,2.2738,2.2226,2.1539,2.281,2.3167,2.2667,2.4884,2.6562,2.7731,2.9146,3.0555,3.1949,3.2286,3.2579,3.2757,3.2568,3.2512,3.2506,3.1671,3.1369,3.1485,3.1768,3.164,3.1494,3.2291,3.315,3.389,3.4107,3.3214,3.2266,3.2975,3.3145,3.3293,3.4279,3.5665,3.7116,3.8461,3.9648,4.085,4.2153,4.2786,4.3324,4.3866,4.3197,4.2319,4.156,4.2836,4.3428,4.1508,4.2851,4.3805,4.2894,4.2396,4.1894,4.1163,4.1075,4.0752,3.9785,3.9697,0.0,0.0,3.9697,3.9697,3.9697,3.9697,3.9634,3.9484,3.8517,3.7939,3.7801,3.6883,3.6405,3.6405,3.6267,3.573,3.4868,3.4638,3.3834,3.2654,3.2792,3.2692,3.2403,3.1976,3.2051,3.2365,3.1662,3.1474,3.1537,3.1009,3.0733,3.0532,0.0,0.0,0.0,0.0,0.0,0.0,0.0,0.0,0.0,0.0,0.0,0.0,0.0,0.0,0.0,0.0,0.0,0.0,0.0,2.0605,2.0996,2.0947,2.0878,2.0723,2.0415,2.0204,1.9546,1.8431,1.9614,1.999,1.9643,2.1272,2.2838,2.4351,2.5435,2.6641,2.7911,2.8165,2.8293,0.0,0.0,2.8843,2.9132,2.954,3.0106,3.0778,3.1745,3.2613,3.3601,3.572,3.627,3.6286,3.7372,3.6308,3.4857,3.571,3.5305,3.4726,3.5215,3.6245,3.7228,3.7338,3.8041,3.8914,3.9677,4.0143,4.0552,4.1146,4.0771,4.0158,3.9408,4.173,4.3024,4.0826,4.2644,4.4117,4.3403,4.2493,4.1756,4.1326,4.1288,4.0902,3.9798,3.9697,3.9697,0.0,3.9697,3.9697,3.9697,3.9697,3.9697,3.9697,3.8843,3.8153,3.7651,3.7023,3.6644,3.6405,3.6119,3.5554,3.4668,3.4474,3.3709,3.2591,0.0,3.2428,3.2516,3.1549,3.1574,3.2139,3.1348,3.1047,3.1009,3.0721,3.0457,3.0218,0.0,0.0,0.0,0.0,0.0,0.0,0.0,0.0,0.0,0.0,1.5603,1.5614,1.7774,1.8116,0.0,0.0,0.0,0.0,0.0,0.0,2.0283,2.0762,1.9444,1.836,1.7656,1.7284,1.6209,1.4342,1.5753,1.6679,1.7138,1.7955,1.9653,2.2021,2.2113,2.2806,2.3952,2.4595,2.4629,2.432,2.5376,2.5954,2.6359,0.0,0.0,3.061,3.1765,3.3807,3.6324,3.8871,3.9059,3.8524,4.0288,3.931,3.7695,3.8617,3.7567,3.6243,3.7084,3.724,3.7006,3.6457,3.6682,3.7175,3.7741,3.8063,3.8559,3.9687,3.97,3.938,3.8816,4.1545,4.3089,4.0636,4.2243,4.3636,4.3083,4.1866,4.1089,4.1291,4.1288,4.0902,3.9798,3.9697,3.9697,3.9697,3.9697,3.9697,3.9697,3.9697,3.9622,3.9471,3.9082,3.8341,3.7086,3.7149,3.6958,3.6405,3.5881,3.5282,3.4655,3.4223,3.3621,3.2948,3.1926,0.0,3.2717,3.0871,3.0896,3.2014,3.1085,3.067,3.0608,3.0532,3.0206,2.9792,0.0,0.0,0.0,0.0,0.0,0.0,0.0,0.0,0.0,0.0,1.5915,1.6127,0.0,0.0,0.0,0.0,0.0,0.0,0.0,0.0,0.0,2.1641,2.0485,1.9385,1.843,1.7898,1.6672,1.4615,1.57,1.5701,1.4737,1.5099,1.6155,1.7789,1.8521,1.9727,2.13,2.2142,2.2616,2.2873,2.3066,2.3862,2.4935,0.0,0.0,0.0,3.1364,3.4165,3.6937,3.8352,3.9758,4.1435,4.4288,4.3916,4.2334,4.2007,4.0635,3.8934,3.8083,3.7354,3.666,3.6042,3.597,3.5735,3.452,3.5337,3.6125,3.5352,3.6047,3.679,3.6719,3.943,4.1843,4.2438,4.3867,4.5012,4.5302,4.4255,4.2941,4.1474,4.1288,4.0902,3.9798,3.9697,0.0,0.0,3.9697,3.9697,3.9697,3.9697,3.927,3.8329,3.8668,3.8152,3.6568,3.7008,3.6958,3.6405,3.6304,3.5692,3.468,3.4625,3.3771,3.2353,3.2152,0.0,3.1687,3.1763,3.1687,3.1512,3.1323,3.0997,3.0557,3.0105,2.988,2.9792,0.0,0.0,0.0,0.0,0.0,0.0,0.0,1.638,1.6042,1.6812,1.6822,1.6989,1.7716,1.835,1.9124,0.0,0.0,0.0,0.0,0.0,0.0,0.0,0.0,0.0,1.9221,1.8637,1.7333,1.5224,0.0,1.5579,1.4315,1.4456,1.5105,1.6228,1.7185,1.8439,1.9838,2.1029,2.166,2.1863,2.2526,2.3501,0.0,0.0,0.0,0.0,0.0,3.3783,3.5372,3.7039,3.8609,4.0449,4.3777,4.3807,4.2502,4.2236,4.0821,3.9246,3.8641,3.8164,3.7538,3.6152,3.6389,3.6271,3.3701,3.4432,3.5233,3.3867,3.4822,3.5811,3.5569,3.8578,4.1216,4.1613,4.369,4.5143,4.5047,4.4465,4.3413,4.1499,4.1288,4.0902,3.9798,3.9697,3.9697,3.9697,3.9697,3.9697,3.9697,3.9697,3.932,3.8479,3.873,3.8253,3.6857,3.7048,3.6958,3.6405,3.6405,3.578,3.468,3.468,3.3972,3.2629,3.2039,0.0,3.1775,3.1198,3.0972,3.0959,3.067,3.0407,3.0156,2.9892,2.9792,2.9792,0.0,0.0,0.0,0.0,0.0,0.0,1.744,1.7006,1.6874,1.7592,1.7825,1.8004,1.8214,1.8691,1.9278,0.0,0.0,0.0,0.0,0.0,0.0,0.0,0.0,0.0,0.0,0.0,0.0,1.6213,1.636,0.0,0.0,0.0,0.0,0.0,1.671,1.7826,1.9106,2.0382,2.1126,0.0,0.0,2.3914,0.0,0.0,0.0,0.0,0.0,3.3195,3.374,3.5532,3.6824,3.8217,4.087,4.1808,4.1837,4.1112,4.0288,3.9483,3.9007,3.8728,3.813,3.6204,3.6693,3.6764,3.316,3.4032,3.5087,3.3318,3.428,3.5361,3.5133,3.7775,4.0107,4.0539,4.2602,4.4215,4.4383,4.4271,4.3462,4.1726,4.1567,4.1069,3.9837,3.9697,0.0,3.9697,3.9697,3.9697,3.9697,3.9697,3.9383,3.8705,3.8806,3.8328,3.7023,3.7123,3.6958,3.6405,3.6405,3.578,3.468,3.468,3.4123,3.3061,3.2001,0.0,0.0,3.0834,3.0495,3.0733,3.0306,3.0068,2.9955,2.9829,2.9792,2.9792,0.0,0.0,0.0,0.0,0.0,0.0,1.744,1.7391,1.7453,1.7894,1.8595,1.9047,1.9103,1.95,2.0156,0.0,0.0,0.0,0.0,0.0,0.0,0.0,0.0,0.0,0.0,0.0,0.0,1.7803,1.7256,0.0,0.0,0.0,0.0,0.0,0.0,1.7512,1.9118,1.9779,0.0,0.0,0.0,0.0,0.0,0.0,0.0,0.0,0.0,3.2624,3.3422,3.4058,3.499,3.596,3.5965,3.9251,4.2552,3.9505,4.016,4.1442,3.9433,3.8297,3.7275,3.5711,3.6108,3.5715,3.1503,3.3464,3.5359,3.2758,3.3437,3.4782,3.5648,3.6133,3.7469,4.0778,4.1055,4.1818,4.4721,4.4576,4.3705,4.2473,4.23,4.1606,3.9851,3.9697,3.9697,3.9697,3.9697,3.9697,3.9697,3.9697,3.9195,3.8115,3.8592,3.814,3.6505,3.6935,3.6958,3.6405,3.6405,3.578,3.468,3.468,3.4123,3.3043,3.2416,0.0,0.0,3.2051,3.1725,3.1311,3.126,3.0959,3.0482,2.998,2.9792,2.9792,0.0,0.0,0.0,0.0,0.0,0.0,1.744,1.7469,1.7883,1.8999,1.9418,2.003,2.101,2.1062,2.1069,2.1179,2.119,0.0,0.0,0.0,0.0,0.0,0.0,0.0,0.0,0.0,2.0163,1.8676,1.7596,0.0,0.0,0.0,0.0,0.0,0.0,1.7751,1.8982,2.0153,0.0,0.0,0.0,0.0,0.0,0.0,0.0,0.0,0.0,0.0,3.2481,3.2355,3.304,3.3689,3.2566,3.4858,3.796,3.7683,3.8596,3.9615,3.9411,3.9136,3.8465,3.6984,3.6817,3.605,3.246,3.3125,3.4073,3.2438,3.2946,3.4134,3.5639,3.5893,3.6709,3.9194,4.0038,4.0808,4.2079,4.3069,4.3316,4.2426,4.2701,4.269,0.0,0.0,4.0554,3.9736,3.9697,3.9697,3.9697,3.9697,3.9182,3.804,3.8228,3.7713,3.6417,3.6619,3.6619,3.6405,3.6031,3.5466,3.4668,3.4374,3.3809,3.3086,3.2466,0.0,0.0,3.1851,3.1399,3.0922,3.0922,3.0595,3.0093,2.988,2.9792,2.9895,0.0,0.0,0.0,0.0,0.0,1.7037,1.744,1.7697,1.8357,1.971,1.9994,2.0647,2.2142,2.1915,2.1678,2.1835,2.1675,0.0,0.0,0.0,0.0,0.0,0.0,0.0,0.0,0.0,2.1092,1.981,1.8555,1.7509,0.0,0.0,1.6413,1.6173,0.0,0.0,0.0,0.0,0.0,0.0,0.0,0.0,0.0,0.0,0.0,0.0,0.0,0.0,0.0,0.0,0.0,3.2333,3.0836,3.1946,3.4082,3.5355,3.6796,3.8104,3.8781,3.932,3.9362,3.7861,3.747,3.6623,3.3458,3.3332,3.3603,3.2495,3.2904,3.3861,3.5192,3.5639,3.6281,3.7719,3.8958,3.9898,4.0485,4.1807,4.2553,4.2074,4.2443,4.2768,4.291,4.2486,4.1789,4.0882,4.0349,4.002,4.002,3.9816,3.922,3.8027,3.7852,3.7312,3.6417,3.6405,3.6405,3.6405,3.5805,3.5207,3.4655,3.4148,3.3596,3.3099,3.2641,0.0,0.0,3.1863,3.1323,3.0834,3.067,3.0281,2.9792,2.9792,2.9792,2.9895,0.0,0.0,0.0,0.0,0.0,1.7037,1.744,1.8183,1.8999,1.9783,2.0232,2.0909,2.2003,2.1565,2.1769,2.3239,2.2814,0.0,0.0,0.0,0.0,0.0,0.0,0.0,2.4368,2.3776,2.2837,2.1491,2.0471,1.9154,1.7562,1.7326,1.7123,1.6967,0.0,0.0,0.0,0.0,0.0,0.0,0.0,0.0,3.0306,0.0,0.0,0.0,0.0,0.0,0.0,0.0,0.0,0.0,0.0,3.1402,3.2227,3.2252,3.4904,3.7722,3.7336,3.8429,3.9362,3.7861,3.7751,3.7195,3.3994,3.4214,3.4624,3.2946,3.339,3.4133,3.4284,3.5021,3.5893,3.6772,3.7597,3.8801,4.0827,4.1262,4.1439,4.143,4.1407,4.1454,4.1511,4.2692,4.3456,4.3456,4.1826,0.0,4.0795,4.0158,3.9245,3.8052,3.7475,3.6923,3.6417,3.6405,3.6405,3.6405,3.5805,3.5207,3.4655,3.4148,3.3596,0.0,0.0,0.0,0.0,3.2441,3.1876,3.1336,3.0821,3.0281,2.9792,2.9792,2.9792,2.9792,0.0,0.0,0.0,0.0,0.0,0.0,1.711,1.7541,1.8174,1.8951,1.9439,2.0182,2.1537,2.165,2.1988,2.2894,2.2921,0.0,0.0,0.0,0.0,0.0,0.0,2.501,2.5265,2.4695,2.3577,2.1936,2.1141,1.9894,1.8196,1.7903,1.7811,1.7923,1.7666,1.8803,0.0,0.0,0.0,0.0,0.0,2.9614,3.1238,0.0,0.0,0.0,0.0,0.0,0.0,0.0,0.0,0.0,0.0,0.0,0.0,3.2102,3.3586,3.5359,3.6364,3.7059,3.7215,3.6331,3.5951,3.5278,3.3575,3.287,3.2437,3.2084,3.2221,3.3003,3.479,3.4918,3.551,3.8014,3.7881,3.8076,3.9719,4.1167,4.224,4.2706,4.432,4.5098,0.0,0.0,4.4227,4.2923,4.2295,4.176,4.1292,4.0754,3.9878,3.8657,3.8441,3.8124,3.7553,3.6803,3.6169,3.5805,3.5207,3.4655,3.4135,3.3583,3.3244,0.0,0.0,0.0,0.0,3.2577,3.1904,3.0914,3.1357,3.0842,2.9792,2.9792,2.9792,2.9958,0.0,0.0,0.0,0.0,0.0,0.0,1.6963,1.7376,1.8027,1.8834,1.9292,2.0104,2.1639,2.1789,2.2163,2.3073,2.3399,0.0,0.0,0.0,0.0,0.0,2.5812,2.5803,2.5684,2.5498,2.4641,2.3098,2.2172,2.0953,1.9452,1.8618,1.8259,1.8415,1.8226,1.934,0.0,0.0,0.0,0.0,2.853,2.9886,3.1705,0.0,0.0,0.0,0.0,0.0,0.0,0.0,0.0,0.0,0.0,0.0,0.0,0.0,3.3437,3.4043,3.5382,3.6091,3.6329,3.5931,3.5278,3.4532,3.3962,3.2953,3.2186,3.2332,3.2483,3.3138,3.4867,3.4927,3.5532,3.8127,3.7923,3.8094,3.9801,4.1182,4.2381,4.3254,4.5244,0.0,0.0,4.5815,4.5518,4.4034,4.3314,0.0,4.1931,4.1359,4.0674,3.9922,3.9487,3.8887,3.8121,3.7208,3.6307,3.5495,3.4731,3.4223,3.3884,3.3332,3.3124,0.0,0.0,0.0,0.0,3.2409,3.1967,3.1163,3.1547,3.1146,3.0279,2.9934,2.9792,2.9945,0.0,0.0,0.0,0.0,0.0,0.0,0.0,1.7624,1.8402,1.9201,1.9668,2.047,2.1989,2.1963,2.2299,2.3445,2.4135,0.0,0.0,0.0,0.0,2.68,2.7056,2.6802,2.5879,2.626,2.5895,2.4857,2.3453,2.2233,2.1115,1.9355,1.8482,1.8433,1.8412,1.9575,0.0,0.0,0.0,0.0,2.8495,2.9841,0.0,0.0,0.0,0.0,0.0,0.0,0.0,0.0,0.0,0.0,0.0,0.0,0.0,0.0,0.0,0.0,0.0,3.5432,3.6166,3.6116,3.5328,3.4673,3.4878,3.4103,0.0,3.3351,3.3718,3.4168,3.4671,3.5057,3.5813,3.736,3.7716,3.8596,4.0753,4.1405,4.2117,4.329,4.4631,0.0,4.5304,4.6471,4.6965,4.6264,4.4628,0.0,4.2678,4.2044,4.1697,4.1654,4.0647,3.9511,3.8312,3.7692,3.6778,3.5495,3.4463,3.396,3.3822,3.3307,3.3124,0.0,0.0,0.0,0.0,3.2045,3.1935,3.1818,3.1391,3.118,3.1007,3.0101,2.9792,2.9804,0.0,0.0,0.0,0.0,0.0,0.0,0.0,0.0,0.0,0.0,1.9668,2.0149,2.0869,2.145,2.1906,0.0,0.0,0.0,0.0,0.0,0.0,2.8182,2.7552,2.727,2.737,2.7042,2.6323,2.5253,2.409,2.2839,2.1459,1.9667,1.8791,1.8803,1.8777,2.0052,0.0,0.0,0.0,0.0,2.8358,2.9418,0.0,0.0,0.0,0.0,3.1705,3.1849,0.0,0.0,0.0,0.0,0.0,0.0,0.0,0.0,3.5251,3.5144,3.5327,0.0,3.3734,3.3294,3.3319,3.3409,0.0,3.2971,3.283,3.299,3.3098,3.3573,3.4831,3.4688,3.5132,3.7403,3.7426,3.7923,4.0241,4.2751,4.4481,4.4796,4.6022,4.6426,4.5394,4.6052,4.6277,4.5589,4.4653,4.382,4.3167,4.2989,4.2678,4.2228,4.1947,4.1221,4.0012,3.9015,3.7526,3.5513,3.5253,3.4487,3.3269,3.3174,3.3124,0.0,0.0,0.0,3.1606,3.1889,3.1356,3.0394,3.0947,3.0758,3.0113,2.9895,2.9792,2.9854,0.0,0.0,0.0,0.0,0.0,0.0,0.0,0.0,0.0,0.0,1.9749,2.0319,2.0902,2.1639,2.211,0.0,0.0,0.0,0.0,2.778,2.8546,2.9719,2.9336,2.8858,2.8204,2.7874,2.729,2.6443,2.5258,2.3933,2.2589,2.0814,1.9744,1.9376,2.0352,2.1705,2.3335,2.502,2.6284,2.7284,2.8308,0.0,0.0,0.0,0.0,0.0,3.1805,3.1981,0.0,3.2475,3.3518,3.4761,0.0,0.0,0.0,0.0,3.6114,3.5719,3.543,3.4808,3.4072,3.337,3.3498,3.3703,3.3225,3.3202,3.3338,3.3505,3.3629,3.4086,3.517,3.5653,3.6288,3.7721,3.8692,3.9877,4.1511,4.3015,4.4287,4.5185,4.5933,4.6217,0.0,4.6112,4.5876,4.4915,0.0,4.3992,4.3334,4.3045,4.2731,4.241,4.2111,4.1361,4.0138,3.9313,3.7964,3.622,3.5508,3.4688,3.3839,3.3313,3.293,0.0,0.0,0.0,3.1065,3.1486,3.1145,3.0482,3.1007,3.0895,3.0381,2.9972,2.9792,2.9829,0.0,0.0,0.0,0.0,0.0,0.0,0.0,0.0,0.0,0.0,0.0,0.0,0.0,0.0,0.0,0.0,0.0,2.5183,2.7359,2.864,2.997,3.1449,3.1356,3.0631,2.9296,2.8695,2.8289,2.8068,2.6452,2.5058,2.383,2.2165,2.085,2.0039,2.2107,2.3405,2.4146,2.5342,2.6247,2.7057,2.8075,0.0,0.0,0.0,0.0,0.0,0.0,0.0,0.0,3.2636,3.4011,3.5615,3.5615,0.0,0.0,0.0,0.0,0.0,3.552,3.5788,3.5924,3.4734,3.4566,3.4546,3.4025,3.4016,3.4155,3.4328,3.4542,3.5001,3.5899,3.6924,3.7777,3.8326,4.0508,4.2475,4.3484,4.3329,4.3698,4.5125,4.5469,0.0,4.595,4.6112,4.5648,4.4407,0.0,4.3888,4.3319,4.2716,4.2351,4.2246,4.1512,4.0586,3.9584,3.9242,3.8435,3.72,3.5818,3.498,3.4532,3.3614,3.2786,3.2064,0.0,0.0,3.061,3.0957,3.1048,3.097,3.097,3.097,3.0895,3.0113,2.9792,2.9792,0.0,0.0,0.0,0.0,0.0,0.0,0.0,0.0,0.0,0.0,0.0,0.0,0.0,0.0,0.0,0.0,2.4287,2.5831,2.794,2.9738,3.1662,3.3765,3.1782,3.1113,3.2137,2.9423,2.8518,2.9568,2.7175,2.5406,2.4172,2.2715,2.159,2.0813,2.2466,2.3496,2.4214,2.5658,2.6173,2.6014,2.701,0.0,0.0,0.0,0.0,0.0,0.0,0.0,0.0,3.2667,3.4011,3.5615,3.5615,0.0,0.0,0.0,0.0,0.0,3.7019,3.8028,3.8212,3.5365,3.4697,3.4741,3.4784,3.4458,3.4221,3.4558,3.4655,3.5449,3.7864,3.7164,3.6995,3.9416,4.1241,4.297,4.4751,4.5888,4.6232,4.5394,0.0,4.6367,4.4781,4.5125,4.514,0.0,0.0,4.3409,4.3305,4.2716,4.2141,4.1587,4.0352,3.9599,3.9438,3.9921,3.931,3.7691,3.7438,3.6133,3.3939,3.3777,3.2894,3.1512,0.0,3.1097,3.0608,3.0666,3.0428,2.9998,2.9998,2.9998,2.9998,2.9856,2.9792,2.9792,0.0,0.0,0.0,0.0,0.0,0.0,0.0,0.0,0.0,0.0,0.0,0.0,0.0,0.0,0.0,0.0,2.4307,2.5355,2.7232,2.925,3.1278,3.329,3.2737,3.2721,3.341,3.1675,3.0667,3.0495,2.9126,2.7618,2.59,2.4375,2.3552,2.3352,2.4008,2.466,2.5353,2.5838,2.5918,2.5781,0.0,0.0,0.0,0.0,0.0,0.0,0.0,0.0,0.0,0.0,3.3776,3.5259,3.5666,0.0,0.0,0.0,0.0,0.0,3.5994,3.6687,3.7332,3.7025,3.778,3.8449,3.8044,3.7567,3.7128,3.6683,3.6596,3.6985,3.8332,3.9022,4.0435,4.3508,4.3095,4.3084,4.502,4.4601,4.4272,0.0,0.0,4.4945,4.4362,4.4586,0.0,0.0,0.0,0.0,4.2297,4.1654,4.116,4.0861,3.9559,3.9035,3.9388,3.899,3.8725,3.8671,3.8069,3.6711,3.4627,3.4073,3.2745,3.0972,0.0,3.067,3.0168,3.0168,3.0018,2.9792,2.9792,2.9792,2.9792,2.9792,2.9792,2.9792,0.0,0.0,0.0,0.0,0.0,0.0,0.0,0.0,0.0,0.0,0.0,0.0,0.0,0.0,0.0,0.0,2.4373,2.4987,2.6496,2.8741,3.0823,3.2606,3.3851,3.4466,3.4483,3.3503,3.2639,3.1802,3.1094,2.9679,2.7564,2.5834,2.5202,2.5567,2.54,2.5755,2.6367,2.6035,2.5781,2.5781,0.0,0.0,0.0,0.0,0.0,0.0,0.0,0.0,0.0,0.0,0.0,0.0,0.0,0.0,0.0,3.6228,3.5668,3.5205,3.5039,3.5575,3.6663,3.8574,3.972,4.0479,4.076,4.01,3.9306,3.8977,3.8894,3.8975,3.929,4.1153,4.3429,4.5768,4.4407,4.3668,4.5304,4.3808,4.303,4.4392,4.4092,4.3888,4.4287,4.4182,0.0,0.0,0.0,0.0,4.1452,4.0756,4.0397,4.0397,3.8945,3.8482,3.917,3.7853,3.7853,3.9134,3.815,3.6851,3.5292,3.4465,3.2959,3.1074,3.1074,3.0714,3.0139,3.0139,2.9998,2.9792,2.9792,2.9792,2.9792,2.9792,2.9792,2.9792,0.0,0.0,0.0,0.0,0.0,0.0,0.0,0.0,0.0,0.0,0.0,0.0,0.0,0.0,2.3926,2.4375,2.4785,2.5481,2.6599,2.915,3.1414,3.3171,3.4917,3.5833,3.586,3.3659,3.3061,3.415,3.2382,3.0462,2.8428,2.6333,2.5599,2.6037,2.589,2.6045,2.6387,2.6357,2.6113,2.5693,2.5781,0.0,0.0,0.0,0.0,0.0,0.0,0.0,0.0,0.0,0.0,0.0,0.0,0.0,3.5523,3.5479,3.5132,3.4921,3.5619,3.6887,3.824,3.9158,3.7822,3.7264,4.089,3.9799,3.8611,4.0486,4.088,4.115,4.1968,4.28,4.318,4.283,4.4047,4.5364,4.6142,0.0,4.5783,4.5289,4.5185,4.493,4.4362,0.0,0.0,0.0,0.0,0.0,4.1422,4.0756,4.0397,4.0397,3.8497,3.7793,3.8467,3.7195,3.7195,3.8452,3.7769,3.658,3.5037,3.4952,3.4002,3.2461,3.2461,3.1928,3.1106,3.1106,3.0595,2.9792,2.9792,2.9792,2.9792,2.9792,2.9792,2.9792,0.0,0.0,0.0,0.0,0.0,0.0,0.0,0.0,0.0,0.0,0.0,2.3025,2.4164,0.0,2.3644,2.4736,2.4727,2.4952,2.5678,2.7781,2.9665,3.1124,3.3196,3.4688,3.5481,3.5468,3.5199,3.4745,3.2909,3.1045,2.9212,2.8399,2.7685,2.7112,2.7031,2.691,2.6758,2.6494,2.6299,2.6113,2.5801,2.6284,0.0,0.0,0.0,0.0,0.0,0.0,0.0,0.0,3.2936,3.3612,3.526,3.558,3.5427,3.5668,3.5214,3.4721,3.4827,3.6175,3.7659,3.8073,3.7495,3.7972,4.2346,4.2257,4.1388,4.1831,4.2548,4.3071,4.3,4.3853,4.4347,4.3688,4.49,4.5873,4.5708,4.5678,4.5439,4.4766,4.4332,4.3947,4.3678,0.0,0.0,0.0,0.0,0.0,4.0187,3.9933,3.9589,3.9155,3.8018,3.7524,3.7778,3.6507,3.6327,3.721,3.7345,3.6552,3.4998,3.4998,3.4115,3.2593,3.2593,3.2393,3.2069,3.2069,3.1513,3.062,3.0037,3.0495,3.1415,3.0216,3.0177,3.0595,0.0,0.0,0.0,0.0,0.0,0.0,0.0,0.0,2.285,0.0,0.0,0.0,0.0,2.3742,0.0,0.0,2.4795,2.4746,2.5096,2.6927,2.8561,2.9853,3.1874,3.3636,3.5065,3.6208,3.6492,3.5821,3.3959,3.2142,3.0316,2.9852,2.9088,2.8047,2.7783,2.75,2.7178,2.6621,2.6387,2.6357,2.5869,2.61,0.0,0.0,0.0,0.0,0.0,0.0,0.0,0.0,3.2494,3.3042,3.4984,3.5419,3.5239,3.5497,3.555,3.5388,3.494,3.6038,3.7342,3.7639,3.7569,3.8571,4.3,4.3344,4.2955,4.3748,4.4137,4.4122,4.3409,4.4062,4.4466,4.3808,4.499,4.5753,4.508,4.499,4.4751,4.4077,4.3559,4.329,0.0,0.0,0.0,0.0,0.0,0.0,0.0,3.9215,3.8871,3.8407,3.7569,3.712,3.712,3.6043,3.5729,3.6178,3.6611,3.62,3.5166,3.5166,3.4562,3.3512,3.3512,3.3359,3.3031,3.3031,3.25,3.1573,3.0908,3.1476,3.2464,3.1169,3.1095,3.1499,0.0,0.0,0.0,0.0,0.0,0.0,0.0,0.0,2.3007,2.3261,2.3327,0.0,0.0,0.0,0.0,0.0,2.5116,2.5116,2.5106,2.6916,2.855,2.9842,3.1363,3.3007,3.475,3.561,3.6525,3.7593,3.5787,3.3886,3.1839,3.0306,2.9326,2.8867,2.8047,2.7718,2.766,2.6758,2.6396,2.6357,2.5869,2.5693,2.583,0.0,0.0,0.0,0.0,0.0,0.0,0.0,3.2424,3.2508,3.4854,3.518,3.4731,3.4868,3.5984,3.7045,3.6376,3.6775,3.7569,3.8212,3.7913,3.8482,4.2393,4.2327,4.2521,4.6486,4.5708,4.4107,4.3424,4.3305,4.312,4.2515,4.4043,4.5065,4.4392,4.4317,4.4062,4.3364,4.329,4.329,0.0,0.0,0.0,0.0,0.0,0.0,0.0,3.8766,3.8392,3.8377,3.715,3.6492,3.6477,3.5833,3.5504,3.5504,3.5504,3.5504,3.5504,3.5504,3.5504,3.5504,3.5504,3.4953,3.4027,3.3993,3.3449,3.2642,3.2593,3.2593,3.2642,3.2593,3.2593,3.25,0.0,0.0,0.0,0.0,0.0,0.0,0.0,0.0,2.4223,2.4154,2.3875,0.0,0.0,0.0,0.0,0.0,0.0,2.4941,2.4629,2.5717,2.7044,2.8545,3.0234,3.2051,3.3908,3.5688,3.6481,3.635,3.5607,3.3894,3.1268,3.0614,2.9521,2.8047,2.8086,2.7773,2.7197,2.6934,2.666,2.6357,2.5869,2.5693,2.5703,0.0,0.0,0.0,0.0,0.0,0.0,0.0,0.0,0.0,3.3858,3.4849,3.5472,3.5855,3.6207,3.6358,3.579,3.6839,3.7928,3.7225,3.8646,4.0756,4.2811,4.2686,4.298,4.5992,4.595,4.5137,4.4168,4.461,4.4541,4.2692,4.3629,4.4377,4.3678,4.4018,4.4062,4.3364,4.329,0.0,0.0,0.0,0.0,0.0,0.0,0.0,0.0,3.8766,3.8182,3.7719,3.6911,3.6267,3.5804,3.5609,3.5504,3.5504,3.5504,3.5504,3.5504,3.5504,3.5504,3.5504,3.5504,3.5326,3.4986,3.4279,3.4245,3.4491,3.3136,3.3429,3.4476,3.3101,3.3031,3.3345,0.0,0.0,0.0,0.0,0.0,0.0,2.4566,2.466,2.4725,2.4468,2.441,2.4641,0.0,0.0,0.0,2.5312,2.5332,2.5146,2.4707,2.5342,2.6418,2.8049,2.9278,3.1119,3.3686,3.575,3.653,3.6024,3.5503,3.3902,3.1366,3.0695,2.953,2.793,2.8174,2.791,2.7266,2.709,2.6768,2.6357,2.5869,2.5693,2.5664,0.0,0.0,0.0,0.0,0.0,0.0,0.0,0.0,0.0,3.3213,3.4275,3.5185,3.636,3.6905,3.7107,3.7342,3.8534,3.9669,3.9304,4.1085,4.3276,4.461,4.4694,4.4883,4.6208,4.6446,4.6093,4.5041,4.5479,0.0,4.3124,4.3744,4.424,4.3429,4.3633,4.3673,4.303,4.294,0.0,0.0,0.0,0.0,0.0,0.0,0.0,0.0,3.8616,3.7973,3.7075,3.6686,3.6178,3.5519,3.5504,3.5504,3.5504,3.5504,3.5504,3.5504,3.5504,3.5504,3.5504,3.5504,3.5504,3.5457,3.4839,3.4953,3.5392,3.4192,3.4225,3.4806,3.4056,3.3856,3.3842,0.0,0.0,2.5323,2.5815,0.0,0.0,2.4634,2.4729,2.4711,2.4447,2.4798,2.5248,0.0,0.0,0.0,2.5684,2.5693,2.5547,2.5145,2.5488,2.6418,2.8049,2.8782,3.0709,3.4084,3.5846,3.662,3.6405,3.5502,3.4128,3.2174,3.0833,2.9556,2.8495,2.8305,2.7998,2.763,2.7139,2.6709,2.6299,2.5849,2.5693,2.5684,2.5645,0.0,0.0,0.0,0.0,0.0,0.0,0.0,0.0,3.2599,3.3457,3.4218,3.6355,3.756,3.8552,3.9949,4.1024,4.1992,4.3077,4.4444,4.5784,4.7013,4.7549,4.7573,4.6889,4.7038,4.6961,4.5887,4.6013,4.5681,4.3732,4.4182,4.4488,4.3551,4.3369,4.312,4.256,4.2425,0.0,0.0,0.0,0.0,0.0,0.0,0.0,0.0,3.8362,3.7764,3.6611,3.6462,3.6118,3.5504,3.5504,3.5504,3.5504,3.5504,3.5504,3.5504,3.5504,3.5504,3.5504,3.5504,3.5504,3.5504,3.5504,3.5504,3.5504,3.5392,3.4806,3.4095,3.5019,3.4725,3.3876,0.0,0.0,2.5606,2.5742,0.0,0.0,2.5314,2.5138,2.5079,2.5201,2.505,2.5134,2.5645,2.5645,0.0,2.5684,2.5693,2.5547,2.5145,2.5488,2.6418,2.8049,3.0951,3.338,3.5239,3.5847,3.6258,3.6405,3.6007,3.5151,3.3822,3.185,3.0523,2.9797,2.8456,2.7559,2.7129,2.6709,2.6269,2.582,2.5723,2.5693,2.5654,2.5352,2.523,0.0,0.0,0.0,0.0,0.0,0.0,0.0,3.0279,3.1951,3.4031,3.5126,3.6144,3.7352,3.9388,4.0458,4.1489,4.3529,4.5396,4.6857,4.7161,4.7845,4.8149,4.7282,4.7606,4.7569,4.6003,4.646,4.6521,4.4776,4.4662,4.4737,4.451,4.381,4.3245,4.3135,4.2671,0.0,0.0,0.0,0.0,0.0,0.0,0.0,3.92,3.8197,3.7494,3.7225,3.6237,3.5654,3.5504,3.5504,3.5504,0.0,3.5504,3.5504,3.5504,3.5504,3.5504,3.5504,3.5504,3.5504,3.5504,3.5504,3.5504,3.5424,3.461,3.4211,3.4027,3.4245,3.3705,3.289,0.0,0.0,0.0,0.0,0.0,0.0,0.0,0.0,2.5629,2.5429,2.5465,2.546,2.544,2.542,0.0,0.0,2.5293,2.5234,2.4785,2.5371,2.6696,2.8879,3.1576,3.3819,3.538,3.5652,3.584,3.5968,3.5315,3.4787,3.4374,3.2931,3.1573,3.0245,2.9147,2.8063,2.6982,2.6562,2.6133,2.5693,2.5693,2.5693,2.5635,2.5244,2.4941,2.4715,2.4546,0.0,0.0,0.0,0.0,0.0,0.0,0.0,3.2376,3.4675,3.5539,3.6412,3.9305,4.1014,4.2784,4.6175,4.7451,4.8007,4.8472,4.868,4.8662,4.8165,4.8361,4.8202,4.6853,4.7436,4.7544,4.5769,4.585,4.583,4.4909,4.4373,4.3607,4.25,0.0,0.0,0.0,0.0,0.0,0.0,0.0,3.914,3.8497,3.8093,3.7449,3.6522,3.6163,3.5818,3.5504,3.5504,3.5504,3.5504,3.5504,3.5504,3.5504,3.5504,3.5504,3.5504,3.5504,3.5504,3.5504,3.5504,3.5213,3.4725,3.4211,3.3449,3.2713,3.3171,3.2749,3.1997,0.0,0.0,0.0,0.0,0.0,0.0,0.0,0.0,0.0,2.5379,2.5698,2.5748,2.5148,2.5116,2.4893,0.0,0.0,0.0,2.4443,2.5308,2.7017,2.9662,3.1425,3.3179,3.4997,3.5253,3.5357,3.5357,3.4487,3.4267,3.4715,3.3779,3.2471,3.0906,3.0168,2.8867,2.7217,2.6774,2.6202,2.5693,2.5693,2.5645,2.5528,2.5127,2.4727,2.4355,2.3857,2.4242,2.4938,2.46,0.0,0.0,0.0,0.0,3.0315,3.3659,3.4649,3.5396,3.8671,4.136,4.4216,4.8306,4.8907,4.8729,4.9689,4.9441,4.9001,4.9001,4.8861,4.8513,4.7737,4.8225,4.8257,4.6696,4.7088,4.707,4.5504,4.502,4.4064,4.2047,0.0,0.0,0.0,0.0,0.0,0.0,0.0,3.8751,3.7644,3.7883,3.733,3.5729,3.6088,3.6058,3.5504,3.5504,3.5504,3.5504,3.5504,3.5504,3.5504,3.5504,3.5504,3.5504,3.5504,3.5504,3.5504,3.5504,3.4905,3.3993,3.3808,3.2713,3.1278,3.2069,3.1742,3.1068,0.0,0.0,0.0,0.0,0.0,0.0,0.0,0.0,0.0,0.0,2.538,2.5343,2.5127,2.5116,2.4893,2.4453,2.4473,2.4482,2.4424,0.0,0.0,2.9231,3.0928,3.2618,3.4392,3.469,3.4826,3.4826,3.4675,3.5111,3.6083,3.3835,3.3041,3.338,3.1303,2.9648,2.8325,2.7462,2.6564,2.5693,2.5693,2.5508,2.5107,2.4668,2.4473,2.4307,2.3471,2.3746,2.4382,2.3575,2.4354,0.0,0.0,0.0,2.8887,3.0015,3.1749,3.3787,3.5722,3.9769,4.3896,4.573,4.7099,4.8206,4.897,4.9069,4.9001,4.9001,4.8353,4.777,4.7622,4.7688,4.7688,4.744,4.7523,4.7523,4.7273,4.583,4.448,4.3565,0.0,0.0,0.0,0.0,0.0,0.0,3.8871,3.8452,3.8272,3.7285,3.6626,3.6357,3.5893,3.5594,3.5504,3.5504,3.5504,3.5504,3.5504,3.5504,3.5504,3.5504,3.5504,3.5504,3.5504,3.5504,3.5504,3.5504,3.4905,3.391,3.3101,3.2141,3.1217,3.1352,3.0796,3.0101,0.0,0.0,0.0,0.0,0.0,0.0,0.0,0.0,0.0,0.0,0.0,2.5478,2.5146,2.4853,2.4531,2.4102,2.4062,2.417,2.4404,2.4997,2.649,2.9098,3.0045,3.171,3.4305,3.429,3.4261,3.4261,3.3633,3.4198,3.5881,3.4456,3.4146,3.4594,3.3021,3.1289,2.9628,2.8612,2.7421,2.6189,2.6189,2.5597,2.4658,2.4228,2.4062,2.3955,2.3096,2.334,2.3935,2.3076,2.3606,2.4787,2.5412,0.0,0.0,0.0,3.0252,3.1906,3.5687,3.9027,4.2091,4.4843,4.6339,4.7297,4.7693,4.8105,4.8392,4.8392,4.8051,4.7885,4.8303,4.837,4.8225,4.7704,4.7589,4.7239,4.617,4.5337,4.4238,4.2619,0.0,0.0,0.0,0.0,0.0,0.0,3.8556,3.8078,3.736,3.6791,3.6312,3.5953,3.5654,3.5504,3.5504,3.5504,3.5504,3.5504,3.5504,3.5504,3.5504,3.5504,3.5504,3.5504,3.5504,3.5504,3.5504,3.5504,3.4591,3.3171,3.2749,3.1719,3.0419,3.0419,3.0139,2.9869,0.0,0.0,0.0,0.0,0.0,0.0,0.0,0.0,0.0,0.0,0.0,2.5663,2.5146,0.0,0.0,0.0,2.3691,2.376,2.4072,2.4199,2.5559,2.8532,2.9139,3.0714,3.3486,3.3489,3.3407,3.3257,3.2554,3.3238,3.5282,3.5019,3.5192,3.5645,3.4727,3.3077,3.0926,2.9937,2.8611,2.7218,2.6975,2.598,2.4528,2.4292,2.3979,2.3545,2.29,2.3018,2.3389,2.2852,2.3036,2.3741,2.4764,2.5383,0.0,0.0,0.0,3.003,3.4681,3.704,3.9089,4.283,4.4667,4.5713,4.6331,4.7059,4.7631,4.7631,4.7631,4.7868,4.8595,4.8883,4.875,4.808,4.795,4.7389,4.5742,4.53,4.4322,4.2016,0.0,0.0,0.0,0.0,0.0,0.0,3.8093,3.7494,3.6537,3.6327,3.6013,3.5519,3.5504,3.5504,3.5504,3.5504,3.5504,3.5504,3.5504,3.5504,3.5504,3.5504,3.5504,3.5504,3.5504,3.5504,3.5504,3.5504,3.4476,3.2961,3.2961,3.1792,3.0139,3.0139,2.9998,2.9792,0.0,0.0,0.0,0.0,0.0,0.0,0.0,0.0,0.0,0.0,0.0,2.5538,2.5117,2.4678,2.4248,2.3828,2.3408,2.314,2.3159,2.3594,2.4825,2.7013,2.8219,0.0,3.1228,3.1926,3.2039,3.1524,3.1989,3.3093,3.4731,3.5219,3.6047,3.7052,3.6225,3.4602,3.2324,3.1246,3.009,2.8872,2.8022,2.6627,2.506,2.5249,2.4422,2.312,2.3081,2.2838,2.2637,2.2945,2.2607,2.2211,2.3346,2.4331,2.5118,0.0,0.0,0.0,3.0683,3.2547,3.4668,3.8102,4.0791,4.3135,4.5109,4.6226,4.6853,4.6853,4.6853,4.7073,4.7804,4.8545,4.897,4.894,4.894,4.8576,4.7589,4.6678,4.5274,4.2998,0.0,0.0,0.0,0.0,0.0,0.0,3.727,3.6552,3.6492,3.5893,3.5549,3.5504,3.5504,3.5504,3.5504,3.5504,3.5504,3.5504,3.5504,3.5504,3.5504,3.5504,3.5504,3.5504,3.5504,3.5504,3.5504,3.5504,3.4872,3.391,3.391,3.2784,3.1143,3.1143,3.0558,2.9792,0.0,0.0,0.0,0.0,0.0,0.0,0.0,0.0,0.0,0.0,0.0,0.0,0.0,2.4678,2.4248,2.3828,2.3344,2.3091,2.3091,2.3247,2.4215,2.622,2.7624,2.918,3.0917,3.1771,3.2114,3.1913,3.1424,3.2227,3.4186,3.4035,3.4738,3.6072,3.5825,3.4941,3.3601,3.2174,3.06,2.8982,2.7695,2.6614,2.5636,2.465,2.4246,2.4096,2.3335,2.2993,2.2847,2.273,2.2539,2.2436,2.3164,2.3924,2.4703,2.5765,2.6845,2.8067,2.9719,3.1007,3.2655,3.5827,3.8317,4.0341,4.1766,4.3737,4.5267,4.5363,4.5754,4.6329,4.7056,4.78,4.8242,4.811,4.8112,4.777,4.685,4.6419,4.5751,0.0,0.0,0.0,0.0,0.0,0.0,0.0,0.0,3.6716,3.5893,3.5624,3.5504,3.5504,3.5504,3.5504,3.5504,3.5504,3.5504,3.5504,3.5504,3.5504,3.5504,3.5504,3.5504,3.5504,3.5504,3.5504,3.5504,3.5504,3.4905,3.3993,3.3993,3.3206,3.2033,3.1426,3.097,3.062,0.0,0.0,0.0,3.14,0.0,2.8964,2.8136,2.699,2.6332,2.6658,0.0,0.0,0.0,0.0,2.4404,2.3838,2.3344,2.3091,2.3091,2.3091,2.3819,2.5357,2.7151,2.8754,3.0102,3.1289,3.1851,3.1675,3.1135,3.1725,3.3332,3.3345,3.4035,3.5207,3.4876,3.4635,3.4412,3.2928,3.1418,2.991,2.8449,2.7396,2.6562,2.5747,2.5472,2.5391,2.4493,2.3943,2.3541,2.3109,2.2656,2.2414,2.3093,2.3852,2.474,2.6089,2.6871,2.7553,2.8673,2.9403,3.0574,3.3452,3.5535,3.7342,3.9162,4.114,4.287,4.3939,4.438,4.4954,4.6215,4.6836,4.7299,4.7644,4.7898,4.7737,4.6815,4.6678,4.63,0.0,0.0,0.0,0.0,0.0,0.0,0.0,0.0,0.0,3.5878,3.5624,3.5504,3.5504,3.5504,3.5504,3.5504,3.5504,3.5504,3.5504,3.5504,3.5504,3.5504,3.5504,3.5504,3.5504,3.5504,3.5504,3.5504,3.5504,3.51,3.4509,3.4509,3.3925,3.2961,3.2033,3.1462,3.1068,3.4824,3.436,3.3648,3.3598,3.1901,3.0462,3.0182,2.8503,2.7605,2.8588,0.0,0.0,0.0,0.0,0.0,2.3896,2.3428,2.313,2.311,2.3101,2.3527,2.4476,2.6834,2.8285,2.8633,3.0446,3.1135,3.0633,3.111,3.1637,3.2215,3.3294,3.411,3.4625,3.3533,3.3646,3.4575,3.347,3.2577,3.1742,3.0338,2.9037,2.7985,2.8649,2.8094,2.6917,2.6482,2.5628,2.4571,2.3989,2.2983,2.2122,2.3122,2.4131,2.5194,2.6198,2.6499,2.6658,0.0,0.0,0.0,3.0849,3.2443,3.4224,3.7376,3.8542,3.9718,4.2534,4.266,4.2908,4.5159,4.5624,4.6131,4.7584,4.8477,4.8654,4.7737,4.7638,4.7044,0.0,0.0,0.0,0.0,0.0,0.0,0.0,3.7255,3.6522,3.6492,3.5863,3.5504,3.5504,3.5504,3.5504,3.5504,3.5504,3.5504,3.5504,3.5504,3.5504,3.5504,3.5504,3.5504,3.5504,3.5504,3.5504,3.5504,3.5504,3.5504,3.5504,3.5504,3.4905,3.391,3.2996,3.2069,3.1106,3.515,3.5114,3.4811,3.4042,3.2702,3.1447,3.0511,2.9208,2.8402,0.0,0.0,0.0,2.6838,2.5779,2.5018,2.4783,2.4316,2.3935,2.3633,2.3276,2.3656,2.4877,2.6966,2.8617,2.9648,3.0785,3.1323,3.1173,3.0545,3.0708,3.1625,3.1549,3.224,3.3508,3.278,3.2616,3.2842,3.175,3.1301,3.1191,2.9732,2.9582,3.0086,2.9111,2.8881,2.8796,2.7212,2.6497,2.6098,2.4345,2.377,2.3737,2.4024,2.4422,2.4969,2.598,2.6396,2.6521,2.6714,0.0,0.0,0.0,0.0,0.0,3.2908,3.5327,3.7467,3.8469,3.9714,4.1173,4.2941,4.3672,4.4549,4.6055,4.7394,4.8115,4.7835,4.8289,4.843,0.0,0.0,0.0,0.0,0.0,0.0,0.0,3.8347,3.7464,3.6537,3.5863,3.5504,3.5504,3.5504,3.5504,3.5504,3.5504,3.5504,3.5504,3.5504,3.5504,3.5504,3.5504,3.5504,3.5504,3.5504,3.5504,3.5504,3.5504,3.5504,3.5504,3.5504,3.5326,3.4953,3.3959,3.3031,3.2069,3.5475,3.5668,3.556,3.4945,3.4054,3.3208,3.2426,3.0982,3.0044,0.0,0.0,0.0,2.7562,2.6619,2.5956,2.5775,2.4891,2.4316,2.4072,2.3652,2.3904,2.5063,2.6791,2.8391,2.9773,3.0864,3.1386,3.1386,3.0997,3.0896,3.1072,3.1461,3.1901,3.2365,3.2014,3.175,3.1474,3.0382,3.029,3.0804,2.9959,3.0102,3.0842,3.0355,3.0391,3.0477,2.9152,2.8685,2.8313,2.5743,2.466,2.4447,2.4434,2.4866,2.543,2.6015,2.6339,2.6499,2.6499,2.6499,2.6674,2.7357,0.0,0.0,3.099,3.2782,3.4559,3.6163,3.7542,3.892,4.0468,4.1956,4.326,4.4135,4.5786,4.7208,4.7804,4.8545,4.9001,0.0,0.0,0.0,0.0,4.3639,4.1838,3.9961,3.8931,3.7704,3.6163,3.5714,3.5504,3.5504,3.5504,3.5504,3.5504,3.5504,3.5504,3.5504,3.5504,3.5504,3.5504,3.5504,3.5504,3.5504,3.5504,3.5504,3.5504,3.5504,3.5504,3.5504,3.5504,3.5504,3.5392,3.4361,3.3671,3.2996,0.0,3.6015,3.6063,3.6063,3.5578,3.5112,3.4903,3.321,3.2172,0.0,3.0824,2.9285,2.919,2.8267,2.7521,2.7019,2.5607,2.465,2.4552,2.4069,2.4197,2.5132,2.6539,2.7965,2.942,3.0708,3.1361,3.1298,3.18,3.1574,3.0733,3.2077,3.224,3.1386,3.1198,3.0859,3.0317,2.9314,2.9465,3.0432,3.0495,3.0633,3.0896,3.1851,3.2101,3.1881,3.1352,3.1151,3.0626,2.7613,2.5844,0.0,2.4754,0.0,0.0,2.6238,2.6427,2.665,2.6524,2.6537,2.6688,2.7092,2.7366,0.0,3.0286,3.067,3.1437,3.4495,3.5443,3.6192,3.7741,3.9871,4.1471,4.1658,4.366,4.5753,4.7432,4.8376,4.8883,0.0,0.0,0.0,4.5619,4.4551,4.305,4.0835,3.9257,3.7599,3.5818,3.5654,3.5579,3.5504,3.5504,3.5504,3.5504,3.5504,3.5504,3.5504,3.5504,3.5504,3.5504,3.5504,3.5504,3.5504,3.5504,3.5504,3.5504,3.5504,3.5504,3.5504,3.5504,3.5504,3.5392,3.4509,3.4095,3.3774,3.5991,3.6193,3.6323,3.6323,3.5719,3.5205,3.5112,3.4219,3.3607,3.3756,3.2497,3.1701,3.1949,3.0563,2.9526,2.9429,2.773,2.6341,2.5659,2.4456,2.4368,2.5603,2.6576,2.7943,2.9845,3.0737,3.1035,3.0771,3.0871,3.1035,3.1223,3.0683,3.0783,3.1336,3.0005,2.9314,2.9201,2.8988,2.9013,2.9264,2.9767,3.0733,3.1926,3.2139,3.2173,3.2067,3.144,3.1146,3.0834,2.9193,2.7995,2.7032,0.0,0.0,0.0,2.6462,0.0,0.0,0.0,0.0,0.0,0.0,2.6575,0.0,2.7268,2.8286,2.9335,3.0174,3.1269,3.2497,3.3971,3.5118,3.6291,3.7654,4.0103,4.2837,4.5715,4.7293,4.8091,0.0,0.0,0.0,4.7259,4.5814,4.4208,4.2469,3.991,3.7988,3.709,3.6567,3.6058,3.5519,3.5504,3.5504,3.5504,3.5504,3.5504,3.5504,3.5504,3.5504,3.5504,3.5504,3.5504,3.5504,3.5504,3.5504,3.5504,3.5504,3.5504,3.5504,3.5504,3.5504,3.5472,3.5279,3.4691,3.3959,3.6228,3.6323,3.6405,3.6405,3.6085,3.5803,3.5803,3.5189,3.469,3.4598,3.3961,3.348,3.3409,3.2073,3.1058,3.0751,2.9142,2.7775,2.6934,2.6144,2.602,2.6761,2.7103,2.8257,3.0335,3.0604,3.0807,3.0997,3.0997,3.0859,3.0595,3.0714,3.0687,3.057,3.0122,2.9555,2.9013,2.8674,2.8561,2.8761,3.0069,3.1072,3.1838,3.2102,3.2215,3.2131,3.1503,3.0723,2.9975,2.9626,2.8623,0.0,2.7014,2.7347,2.7788,0.0,2.7313,2.7871,0.0,0.0,0.0,2.6499,0.0,0.0,0.0,2.7218,2.78,2.8196,2.9275,3.0358,3.0979,3.2565,3.4012,3.4798,3.7421,3.981,4.1069,4.4718,4.7252,0.0,0.0,0.0,4.7688,4.6878,4.5241,4.2494,4.0178,3.8332,3.7015,3.6656,3.6178,3.5534,3.5504,3.5504,3.5504,3.5504,3.5504,3.5504,3.5504,3.5504,3.5504,3.5504,3.5504,3.5504,3.5504,3.5504,3.5504,3.5504,3.5504,3.5504,3.5504,3.5504,3.5504,3.5504,3.518,3.4691,3.6405,3.6405,3.6405,3.6405,3.6405,3.6405,3.6405,3.5994,3.5612,3.5447,3.5192,3.4891,3.4422,3.3298,3.2476,3.2217,3.0468,2.9147,2.871,2.8088,2.7774,2.7773,2.7647,2.8474,3.0297,3.0285,3.0518,3.1085,3.1185,3.0836,3.0045,3.1118,3.1146,3.0278,3.0843,3.047,2.9471,2.8804,2.8662,2.8999,3.0813,3.1362,3.1148,3.17,3.1901,3.1851,3.1399,3.0458,2.9453,2.9802,2.9056,2.787,2.7484,2.7834,0.0,0.0,0.0,0.0,0.0,0.0,0.0,0.0,0.0,2.6348,0.0,0.0,0.0,2.7127,0.0,0.0,0.0,0.0,0.0,0.0,0.0,0.0,0.0,4.1103,0.0,4.5693,0.0,0.0,0.0,4.6995,4.5438,4.2217,4.0395,3.8607,3.6746,3.6656,3.6312,3.5534,3.5504,3.5504,3.5504,3.5504,3.5504,3.5504,3.5504,3.5504,3.5504,3.5504,3.5504,3.5504,3.5504,3.5504,3.5504,3.5504,3.5504,3.5504,3.5504,3.5504,3.5504,3.5504,3.5504,3.5392,3.6405,3.6405,3.6405,3.6405,3.6405,3.6405,3.6405,3.6355,3.6317,3.627,3.6046,3.5844,3.5782,3.4576,3.4157,3.5072,3.241,3.0919,3.1397,2.95,2.8088,2.7644,2.7838,2.8178,2.8645,2.9561,3.001,2.998,3.047,3.0712,3.0771,3.1097,3.1527,3.2021,3.1802,3.1251,3.0493,3.0247,3.0256,3.0519,3.1516,3.1151,0.0,3.0583,3.0796,3.0783,3.0721,3.0879,3.106,0.0,3.0371,3.0034,0.0,2.9113,2.939,2.8286,0.0,0.0,0.0,0.0,0.0,0.0,2.6699,0.0,0.0,0.0,2.6208,2.6117,0.0,0.0,0.0,0.0,0.0,0.0,0.0,0.0,3.3128,3.6231,3.9444,4.2343,0.0,0.0,0.0,4.4804,4.3363,4.2712,4.0651,3.8777,3.7379,3.73,3.6761,3.5549,3.5504,3.5504,3.5504,3.5504,3.5504,3.5504,3.5504,3.5504,3.5504,3.5504,3.5504,3.5504,3.5504,3.5504,3.5504,3.5504,3.5504,3.5504,3.5504,3.5504,3.5504,3.5504,3.5504,3.5472,3.6405,3.6405,3.6304,3.5943,3.5893,3.5893,3.5893,3.6157,3.6405,3.6405,3.6323,3.6228,3.6228,3.5295,3.4858,3.5303,3.386,3.271,3.2241,3.1284,3.0272,2.9277,2.891,2.9,2.9564,2.95,2.9695,3.0099,3.0142,3.0072,2.9923,3.0906,3.1362,3.1329,3.2077,3.2076,3.1521,3.17,3.104,2.9973,3.1744,3.1399,0.0,3.1008,3.0879,3.0143,3.0143,3.0281,3.0432,0.0,3.0143,0.0,0.0,0.0,0.0,0.0,0.0,0.0,0.0,0.0,0.0,0.0,0.0,0.0,2.6054,0.0,2.5793,0.0,0.0,0.0,0.0,0.0,0.0,0.0,2.8434,0.0,0.0,0.0,3.5337,0.0,0.0,0.0,0.0,0.0,0.0,0.0,4.0842,3.94,3.8068,3.7614,3.7,3.6103,3.5699,3.5504,3.5504,3.5504,3.5504,3.5504,3.5504,3.5504,3.5504,3.5504,3.5504,3.5504,3.5504,3.5504,3.5504,3.5504,3.5504,3.5504,3.5504,3.5504,3.5504,3.5504,3.5504,3.5504,3.6405,3.6292,3.5968,3.537,3.527,3.532,3.547,3.5881,3.6194,3.6392,3.6405,3.6468,3.6619,3.5953,3.5697,3.6158,3.531,3.4371,3.3553,3.2995,3.1925,3.0195,2.9947,2.9726,2.9593,2.9403,2.9554,3.004,2.9902,2.9796,2.9877,3.1193,3.1708,3.1691,3.3009,3.3391,3.2992,3.3269,3.2521,3.1288,3.28,3.2423,3.1019,3.1853,3.1337,3.0177,3.0177,2.9998,2.9792,2.9792,2.9792,0.0,2.9792,0.0,0.0,0.0,0.0,0.0,2.831,0.0,0.0,0.0,0.0,0.0,0.0,0.0,0.0,0.0,0.0,0.0,0.0,0.0,0.0,0.0,0.0,2.8815,0.0,2.9939,0.0,0.0,0.0,0.0,0.0,0.0,0.0,0.0,0.0,3.9444,3.8457,3.7599,3.6941,3.6492,3.5848,3.5504,3.5504,3.5504,3.5504,3.5504,3.5504,3.5504,3.5504,3.5504,3.5504,3.5504,3.5504,3.5504,3.5504,3.5504,3.5504,3.5504,3.5504,3.5504,3.5504,3.5504,3.5504,3.5504,3.6405,3.5931,3.5357,3.4806,3.4751,3.4881,3.542,3.552,3.5768,3.6329,3.6405,3.6619,3.7098,3.6671,3.6985,3.8617,3.6724,3.5696,3.6223,3.4491,3.2264,2.9567,3.0513,3.0016,2.7568,2.9041,2.9739,2.9443,2.9663,3.0355,3.1439,3.2213,3.3122,3.4216,3.5052,3.5311,3.5198,3.5004,3.5385,3.6019,3.5249,3.4511,3.3765,0.0,3.1974,3.1143,3.1143,0.0,0.0,2.9792,2.9792,0.0,0.0,0.0,0.0,0.0,0.0,0.0,0.0,0.0,0.0,2.8059,0.0,0.0,0.0,0.0,2.6613,0.0,0.0,0.0,0.0,0.0,0.0,0.0,0.0,0.0,0.0,0.0,0.0,0.0,0.0,0.0,0.0,0.0,0.0,0.0,0.0,0.0,3.8397,3.7195,3.6507,3.6492,3.5848,3.5504,3.5504,3.5504,3.5504,3.5504,3.5504,3.5504,3.5504,3.5504,3.5504,3.5504,3.5504,3.5504,3.5504,3.5504,3.5504,3.5504,3.5504,3.5504,3.5504,3.5504,3.5504,3.5504,3.687,3.7108,3.7016,3.5779,3.5757,3.6092,3.666,3.6238,3.6315,3.7702,3.75,3.7394,3.7723,3.7563,3.7676,3.8253,3.7613,3.6948,3.6408,3.5609,3.4401,3.2765,3.2119,3.1387,3.0528,3.0114,2.9843,2.9739,3.0394,3.0786,3.0939,3.2271,3.2992,3.3176,3.4305,3.4793,3.4866,3.6073,0.0,0.0,0.0,3.4781,3.4887,0.0,0.0,3.2141,3.2141,3.1924,0.0,3.1659,3.123,3.0733,3.0733,3.0317,2.9792,2.9792,2.9792,0.0,0.0,0.0,2.895,2.7846,0.0,0.0,0.0,0.0,0.0,0.0,0.0,0.0,0.0,0.0,0.0,0.0,0.0,0.0,0.0,0.0,0.0,0.0,0.0,0.0,0.0,0.0,0.0,0.0,3.8262,0.0,0.0,3.718,3.6492,3.6492,3.5848,3.5504,3.5504,3.5504,3.5504,3.5504,3.5504,3.5504,3.5504,3.5504,3.5504,3.5504,3.5504,3.5504,3.5504,3.5504,3.5504,3.5504,3.5504,3.5504,3.5504,3.5504,3.5504,3.5504,3.7558,3.8114,3.8182,3.6495,3.6167,3.6379,3.697,3.6516,3.6798,3.8681,3.8563,3.8667,3.9568,3.9287,3.9084,3.9288,3.8703,3.7839,3.6769,3.6503,3.5633,3.3943,3.3449,3.254,3.1048,3.0937,3.0384,2.9378,3.1035,3.1652,3.1356,3.2992,3.3554,3.325,3.4358,3.4846,3.4936,3.6447,3.648,0.0,0.0,3.5322,0.0,0.0,3.3925,3.3101,0.0,3.289,3.2593,3.2593,3.2213,3.1706,3.1706,3.1267,3.0822,3.0822,3.0822,3.0693,3.0303,3.0379,0.0,2.9187,2.903,0.0,2.7993,0.0,0.0,0.0,0.0,0.0,0.0,0.0,0.0,0.0,0.0,0.0,0.0,2.8677,0.0,0.0,0.0,0.0,0.0,0.0,0.0,3.7355,3.7193,0.0,0.0,0.0,3.6237,3.6477,3.5848,3.5504,3.5504,3.5504,3.5504,3.5504,3.5504,3.5651,3.5894,3.5619,3.5636,3.5863,3.5619,3.5504,3.5504,3.5504,3.5504,3.5504,3.5504,3.5504,3.5504,3.5504,3.5504,3.5504,3.852,3.8946,3.8878,3.714,3.6218,3.5929,3.6512,3.6523,3.7202,3.9352,3.9664,4.0443,4.2509,4.1673,4.1143,4.165,4.0066,3.8579,3.7434,3.731,3.6031,3.324,3.4492,3.3423,2.9495,0.0,0.0,0.0,3.1556,3.2874,3.2648,3.4255,3.48,3.4533,3.516,3.5459,3.5504,3.6193,3.6821,3.7315,3.6731,3.6088,3.5504,3.5504,3.4905,3.4061,3.4061,3.3484,3.2749,3.2749,3.2713,3.2664,3.2664,3.2629,3.2593,3.2593,3.2593,3.2593,3.2593,3.2214,3.1841,3.1813,0.0,0.0,0.0,0.0,3.0975,0.0,0.0,0.0,0.0,0.0,0.0,0.0,0.0,0.0,0.0,0.0,0.0,0.0,0.0,0.0,0.0,0.0,3.5962,3.5892,3.6217,3.6668,0.0,0.0,3.5789,3.6417,3.5833,3.5504,3.5504,3.5504,3.5504,3.5504,3.5537,3.5926,3.6584,3.5926,3.5975,3.6554,3.5863,3.5537,3.5504,3.5504,3.5504,3.5504,3.5504,3.5504,3.5504,3.5504,3.5504,3.5504,4.0546,4.0832,4.0956,4.0463,3.8922,3.8192,3.9459,3.912,3.9313,4.1205,4.1866,4.2474,4.3225,4.2985,4.2863,4.3013,4.1705,4.0598,3.9916,3.9,3.7766,3.6154,3.5891,3.5122,3.3671,3.301,3.2327,3.1583,3.2725,3.3256,3.322,3.4177,3.4579,3.4518,3.4698,3.4773,3.4816,3.5983,3.6582,3.6716,3.6552,3.6088,0.0,0.0,3.5359,3.51,3.51,3.4953,3.4739,3.4739,3.4259,3.3636,3.3636,3.3171,3.2593,3.2593,3.2593,3.2593,3.2593,3.2483,3.2297,3.191,3.1688,3.1487,0.0,0.0,0.0,0.0,0.0,0.0,0.0,0.0,0.0,0.0,0.0,0.0,0.0,0.0,0.0,2.9148,0.0,0.0,0.0,3.3353,3.4009,3.576,3.5122,3.5253,0.0,0.0,0.0,3.5744,3.5594,3.5504,3.5504,3.5504,3.5504,3.5504,3.6054,3.6415,3.66,3.7025,3.6995,3.6584,3.6384,3.6006,3.5504,3.5504,3.5504,3.5504,3.5504,3.5504,3.5504,3.5504,3.5504,3.5504,4.1535,4.1919,4.2199,4.205,4.1239,4.0719,4.1127,4.0253,4.0258,4.2237,4.2797,4.3386,4.4215,4.4302,4.4303,4.4303,4.317,4.2205,4.1659,0.0,0.0,3.8084,3.7535,3.631,3.423,3.3801,0.0,3.1711,3.3317,3.3843,3.3418,3.4646,3.4812,3.4099,3.4666,3.4607,3.4159,3.5489,3.6058,3.6058,3.6058,0.0,0.0,3.5504,3.5504,3.5504,3.5504,3.5504,3.5504,3.5504,3.5133,3.4658,3.4658,3.4293,3.3871,3.3871,3.3871,3.3871,3.3871,3.3871,3.3785,3.3494,3.3408,3.3322,3.293,3.3083,3.3036,0.0,0.0,0.0,0.0,0.0,0.0,0.0,0.0,0.0,0.0,0.0,0.0,0.0,2.9278,0.0,0.0,3.2478,3.3119,3.5033,3.4436,0.0,0.0,0.0,0.0,3.5055,3.5355,3.5504,3.5504,3.5504,3.5504,3.5504,3.6244,3.6783,3.7144,3.7602,3.7544,3.7084,3.6752,3.6165,3.5504,3.5504,3.5504,3.5504,3.5504,3.5504,3.5504,3.5504,3.5504,3.5504,4.2038,4.257,4.3041,4.2596,4.303,4.3159,4.2306,4.1109,4.1068,4.3046,4.3463,4.4053,4.5415,4.561,4.5644,4.5644,4.4503,4.3565,4.3083,4.2694,4.1573,3.9541,3.9097,3.7248,3.3637,3.4309,3.3484,0.0,3.3605,3.4426,3.3555,3.529,3.5252,3.3814,3.4981,0.0,0.0,3.4921,3.5429,3.5504,3.5504,3.5504,3.5504,3.5504,3.5504,3.5504,3.5504,3.5504,3.5504,3.5504,3.5504,3.5504,3.5504,3.5504,3.5504,3.5504,3.5504,3.5504,3.5504,3.5504,3.5504,3.5504,3.5504,3.5439,3.5294,3.5261,3.4968,3.4036,3.3115,3.2285,0.0,0.0,0.0,0.0,0.0,0.0,0.0,0.0,0.0,0.0,0.0,0.0,0.0,0.0,3.2842,3.4236,3.4117,0.0,0.0,0.0,0.0,3.4653,3.519,0.0,3.5504,0.0,3.5504,3.5504,3.6337,3.7114,3.7822,3.8007,3.8035,3.7892,3.7114,3.6337,3.5651,3.5537,3.5504,3.5504,3.5504,3.5504,3.5504,3.5504,3.5504,3.5504,4.3025,4.3603,4.3888,4.323,4.3703,4.4236,4.4608,4.4454,4.4454,4.4831,4.5871,4.6644,4.6935,4.6971,4.6975,4.6975,4.5779,0.0,0.0,0.0,0.0,4.1297,3.9726,3.8378,3.7215,3.5549,3.444,3.3948,3.4085,3.4159,3.4152,3.4975,3.5279,3.516,3.54,0.0,3.513,3.4801,0.0,3.5504,3.5504,3.5504,3.5504,3.5504,3.5504,3.5504,3.5504,3.5504,3.5504,3.5504,3.5504,3.5504,3.5504,3.5504,3.5504,3.5504,3.5504,3.5504,3.5504,3.5504,3.5504,3.5504,3.5504,3.5504,3.5472,3.5439,3.518,3.4177,3.3808,3.3415,3.2522,0.0,0.0,0.0,0.0,0.0,0.0,0.0,0.0,0.0,0.0,2.9804,0.0,0.0,0.0,0.0,0.0,0.0,0.0,0.0,0.0,0.0,3.5444,0.0,0.0,0.0,3.5504,3.5504,3.692,3.7661,3.7835,3.9119,3.9332,3.8663,3.7905,3.713,3.6353,3.575,3.5504,3.5504,3.5504,3.5504,3.5504,3.5504,3.5504,3.5504,4.4212,4.4062,4.3888,4.4287,4.4601,4.505,4.5723,4.6112,4.6082,4.5394,4.5858,4.6262,4.6262,4.689,4.7309,4.7309,4.6726,4.6403,4.6403,4.4864,4.3585,4.2711,4.1151,3.9747,3.8577,3.6652,3.5695,3.5815,3.4928,3.4685,3.5003,3.5487,3.546,3.4966,0.0,3.4966,0.0,0.0,0.0,3.5504,3.5504,3.5504,3.5504,3.5504,3.5504,3.5504,3.5504,3.5504,3.5504,3.5504,3.5504,3.5504,3.5504,3.5504,3.5504,3.5504,3.5504,3.5504,3.5504,3.5504,3.5504,3.5504,3.5504,3.5504,3.5504,3.5504,3.5359,3.4872,3.4361,3.3856,3.3339,3.2288,0.0,0.0,0.0,0.0,0.0,0.0,0.0,0.0,0.0,0.0,0.0,0.0,0.0,0.0,0.0,0.0,0.0,0.0,0.0,0.0,0.0,0.0,0.0,0.0,0.0,3.6086,3.7265,3.8007,3.8414,3.9558,3.9662,3.8854,3.8121,3.7338,3.6554,3.5814,3.5504,3.5504,3.5504,3.5504,3.5504,3.5504,3.5504,3.5504,4.4915,4.4601,4.4366,4.517,4.5529,4.5858,4.6262,4.689,4.692,4.5858,4.5723,4.5723,4.5723,4.6666,4.7309,4.7309,4.7309,4.7309,4.7309,4.6037,4.4899,4.4006,4.2447,4.0968,3.9578,3.7758,3.6897,3.6947,3.5871,3.54,0.0,3.5957,0.0,0.0,0.0,0.0,0.0,0.0,3.537,3.5504,3.5504,3.5504,3.5504,3.5504,3.5504,3.5504,3.5504,3.5504,3.5504,3.5504,3.5504,3.5504,3.5504,3.5504,3.5504,3.5504,3.5504,3.5504,3.5504,3.5504,3.5504,3.5504,3.5504,3.5504,3.5504,3.5504,3.5504,3.5504,3.4872,3.425,3.3917,3.2982,0.0,0.0,0.0,0.0,0.0,0.0,0.0,0.0,0.0,0.0,3.1946,0.0,0.0,0.0,0.0,3.3572,3.4379,3.4959,0.0,0.0,0.0,3.5344,3.549,0.0,3.6038,0.0,3.7557,3.833,3.8935,3.9731,3.9756,3.9113,3.8206,3.7249,3.6337,3.5718,3.5504,3.5504,3.5504,3.5504,3.5504,3.5504,3.5504,3.5504,4.4496,4.5768,4.6591,4.5484,4.6307,4.6935,4.6369,4.689,4.7249,4.713,4.7115,4.7115,4.7115,4.7234,4.7309,4.7309,4.7309,4.7309,4.7309,4.6037,4.5248,4.5165,4.2879,4.1517,4.1376,3.9103,3.7662,0.0,3.6648,3.5931,0.0,0.0,0.0,0.0,0.0,0.0,0.0,3.4801,3.4936,3.5504,3.5504,3.5504,3.5504,3.5504,3.5504,3.5504,3.5504,3.5504,3.5504,3.5504,3.5504,3.5504,3.5504,3.5504,3.5504,3.5504,3.5504,3.5504,3.5504,3.5504,3.5504,3.5504,3.5504,3.5504,3.5504,3.5504,3.5504,3.5504,3.5439,3.51,3.43,3.3977,3.3751,0.0,0.0,0.0,0.0,0.0,3.2738,3.1174,0.0,0.0,0.0,3.2478,0.0,0.0,3.4493,3.4832,3.5091,3.4765,3.4831,3.5399,0.0,3.4892,3.5491,3.6168,3.6523,3.66,3.8072,3.8827,3.8935,3.9731,4.0045,3.9901,3.8446,3.6981,3.5587,3.5537,3.5504,3.5504,3.5504,3.5504,3.5504,3.5504,3.5504,3.5504,4.6007,4.6097,4.6187,0.0,0.0,0.0,0.0,4.713,4.7309,4.7309,4.7309,4.7309,4.7309,4.7309,4.7309,4.7309,4.7309,4.7309,4.7309,4.6037,4.5289,4.5289,4.3597,4.2629,4.2629,4.0308,3.9267,0.0,0.0,0.0,0.0,0.0,0.0,0.0,0.0,3.5026,3.4906,3.504,3.525,3.5504,3.5504,3.5504,3.5504,3.5504,3.5504,3.5504,3.5504,3.5504,3.5504,3.5504,3.5504,3.5504,3.5504,3.5504,3.5504,3.5504,3.5504,3.5504,3.5504,3.5504,3.5504,3.5504,3.5504,3.5504,3.5504,3.5504,3.5504,3.5504,3.5504,3.5382,3.5034,3.4955,3.479,0.0,0.0,0.0,0.0,0.0,0.0,0.0,0.0,3.2374,0.0,0.0,0.0,0.0,0.0,3.5418,3.4825,3.5352,0.0,3.5564,0.0,3.6136,3.6868,3.7166,3.7557,3.7987,3.8619,3.9139,3.9636,3.9952,3.9833,3.9315,3.8262,3.7175,3.6149,3.5668,3.5504,3.5504,3.5504,3.5504,3.5504,3.5504,3.5504,3.5504,4.683,0.0,4.6471,0.0,4.7204,4.7055,4.7519,4.7429,4.7309,4.7309,4.7309,4.7309,4.7309,4.7309,4.7309,4.7309,4.7309,4.7219,4.704,4.5948,4.5214,4.5005,4.3888,0.0,4.329,4.1514,4.0646,4.0873,3.9331,0.0,0.0,0.0,0.0,0.0,3.5579,3.5519,3.5117,3.5385,3.5729,3.6043,3.5863,3.5789,3.5821,3.6036,3.5866,3.5537,3.5765,3.5799,3.5799,3.5799,3.599,3.6116,3.5651,3.5504,3.5504,3.5504,3.5504,3.5504,3.5504,3.5504,3.5504,3.5504,3.5504,3.5504,3.5504,3.5504,3.5504,3.5504,3.5504,3.5504,3.5504,3.5504,3.5469,3.5385,0.0,0.0,0.0,0.0,0.0,0.0,3.2688,3.2843,3.3888,3.3523,0.0,0.0,0.0,0.0,0.0,0.0,0.0,0.0,0.0,0.0,0.0,3.8024,3.8386,3.8908,3.9139,3.9542,4.0096,4.0096,3.9662,3.8854,3.8121,3.7338,3.6554,3.5814,3.5504,3.5504,3.5504,3.5504,3.5504,3.5504,3.5504,3.5504,4.6294,4.7369,4.8252,4.8282,4.8267,4.8267,4.8282,4.7728,4.7309,4.7309,4.7309,4.7309,4.7309,4.7309,4.7309,4.7309,4.7309,4.704,4.6381,4.5678,4.5005,0.0,0.0,4.329,4.329,4.2686,4.1713,4.0412,0.0,0.0,3.7419,0.0,3.7075,3.6462,3.6477,3.6477,3.6417,3.5774,3.6237,3.733,3.6716,3.6477,3.6562,3.7304,3.6714,3.5587,3.6337,3.6584,3.6584,3.6584,3.7114,3.7501,3.5973,3.5504,3.5504,3.5504,3.5504,3.5504,3.5504,3.5504,3.5504,3.5504,3.5504,3.5504,3.5504,3.5504,3.5504,3.5504,3.5504,3.5504,3.5504,3.5504,3.5729,3.6372,0.0,0.0,0.0,0.0,0.0,0.0,3.3945,3.4132,3.4452,3.4182,0.0,0.0,0.0,0.0,0.0,0.0,0.0,3.6665,3.6762,0.0,3.7791,3.8535,3.8881,3.8908,3.9705,4.0096,4.0096,4.0096,3.9662,3.8854,3.8121,3.7338,3.6554,3.5814,3.5504,3.5504,3.5504,3.5504,3.5504,3.5504,3.5504,3.5504,4.7085,4.7339,4.7623,4.7623,4.7623,4.7623,4.7623,4.7444,4.7309,4.7309,4.7309,4.7309,4.7309,4.7309,4.7309,0.0,4.7309,4.7025,0.0,4.5678,4.5005,4.4347,4.3648,4.329,4.329,4.2701,4.2186,4.1767,0.0,0.0,0.0,3.8078,3.7734,3.712,3.712,3.712,3.7105,3.6896,3.7045,3.7389,3.7195,3.712,3.7162,3.7473,3.7309,3.6967,3.7303,3.7427,3.7427,3.7427,3.7602,3.769,3.7205,3.6707,3.6134,3.5636,3.5504,3.5504,3.5504,3.5863,3.6244,3.6244,3.6244,3.6244,3.6244,3.5863,3.5504,3.5504,3.5504,3.5504,3.5504,3.5504,3.5579,3.5789,3.5525,0.0,0.0,0.0,0.0,0.0,3.5019,3.5044,0.0,3.508,0.0,0.0,0.0,0.0,0.0,0.0,0.0,0.0,3.773,0.0,3.9353,3.9613,3.9731,3.9731,3.9978,4.0096,4.0096,4.0096,3.9952,3.9636,3.8346,3.7661,3.7308,3.6022,3.5504,3.5504,3.5504,3.5504,3.5504,3.5504,3.5504,3.5504,4.7967,4.7876,4.784,4.771,4.7474,4.7384,4.7638,4.7459,4.7309,4.7309,4.7309,4.7309,4.7309,4.7309,0.0,4.7309,4.7309,4.692,4.5992,4.5529,4.4885,4.3947,4.3514,4.329,4.329,0.0,0.0,4.2396,4.1055,3.9843,3.8781,3.8781,3.8422,3.7778,3.7778,3.7778,3.7764,3.7524,3.7704,3.8172,3.8232,3.8058,3.7891,3.892,3.8779,3.8075,3.8504,3.8845,3.8991,3.8412,3.8609,3.8972,3.8399,3.786,3.7336,3.6569,3.6368,3.6368,3.6368,3.6707,3.7054,3.7054,3.7054,3.6964,3.6676,3.6023,3.5504,3.5504,3.5504,3.5504,3.5504,3.5504,3.5504,3.5504,3.5504,3.5504,3.5504,0.0,0.0,0.0,0.0,0.0,0.0,3.5292,3.5366,0.0,0.0,0.0,0.0,0.0,0.0,3.7582,3.8731,0.0,4.0113,4.0096,4.0096,4.0096,4.0096,4.0096,4.0096,4.0096,4.0096,4.002,3.8761,3.8064,3.7706,3.6446,3.575,3.5504,3.5504,3.5504,3.5504,3.5504,3.5504,3.5504,4.8907,4.8907,4.8795,0.0,4.7829,0.0,4.8161,4.7698,4.7309,4.7309,4.7309,4.7309,4.7309,4.7309,4.7309,4.7309,0.0,0.0,0.0,4.5259,4.4661,4.3349,4.329,4.329,4.329,4.329,4.3015,4.2396,4.1085,4.0127,3.9484,3.9403,3.908,3.8467,3.8467,3.8467,3.8422,3.7808,3.8307,3.9529,3.9687,3.9324,3.8895,4.1299,4.0849,3.9062,3.9944,4.0695,4.1059,3.9616,4.0081,4.1032,3.9534,3.9071,3.8892,3.8051,3.7793,3.7793,3.7793,3.7835,3.7863,3.7863,3.7863,3.7661,3.6798,3.6054,3.5554,3.5504,3.5504,3.5504,3.5504,3.5504,3.5504,3.5504,3.5504,3.5504,3.5504,0.0,0.0,0.0,0.0,0.0,0.0,3.5141,3.5261,0.0,0.0,0.0,0.0,0.0,3.821,3.8891,3.9688,4.0096,4.0096,4.0096,4.0096,4.0096,4.0096,4.0096,4.0096,4.0096,4.0096,4.0045,3.9262,3.8469,3.7719,3.6934,3.6165,3.5504,3.5504,3.5504,3.5504,3.5504,3.5504,3.5504,0.0,0.0,4.9757,4.8852,4.8552,4.8229,4.7634,4.7399,4.7309,4.7309,4.7309,4.7309,4.7309,4.7309,4.7309,4.7309,4.6845,4.6202,4.5349,4.4825,4.4182,4.3334,4.329,4.329,4.329,4.329,4.3015,4.2396,4.1587,4.0816,4.0157,3.9649,3.9334,3.917,3.917,3.917,3.917,3.9005,3.9506,4.0382,4.0452,4.0745,4.1227,4.1936,4.1852,4.1412,4.1666,4.1876,4.1977,4.1607,4.1731,4.1871,4.0954,4.0666,4.0267,3.8367,3.7793,3.7793,3.7793,3.8218,3.8635,3.8635,3.8635,3.8286,3.6904,3.6461,3.6165,3.5619,3.5504,3.5504,3.5504,3.5504,3.5504,3.5504,3.5504,3.5504,3.5504,3.5975,0.0,0.0,3.6759,3.7101,3.7261,3.713,3.7001,0.0,0.0,0.0,0.0,3.8496,3.878,3.8891,3.9688,4.0096,4.0096,4.0096,4.0096,4.0096,4.0096,4.0096,4.0096,4.0096,4.0096,4.0045,3.9262,3.8469,3.7719,3.6934,3.6165,3.5504,3.5504,3.5504,3.5504,3.5504,3.5504,3.5504,5.1161,5.108,5.0779,4.9734,4.9536,4.9191,4.8141,4.7988,4.7834,4.7337,4.7309,4.7309,4.7309,4.7309,4.7309,4.7309,4.698,4.6352,4.5364,4.496,4.4332,4.3334,4.329,4.329,4.329,4.329,4.3015,4.2396,4.1737,4.1055,4.0382,3.9723,3.9388,3.9388,3.9388,3.9388,3.9424,3.9829,4.0274,4.0777,4.1576,4.1933,4.2077,4.298,4.3053,4.2703,4.2774,4.3031,4.3244,4.2523,4.2523,4.2625,4.1542,4.1204,4.0879,3.9307,3.8859,3.8859,3.8859,3.9129,3.9463,3.9463,3.9166,3.8674,3.7844,3.7098,3.6508,3.6086,3.5718,3.5504,3.5504,3.5504,3.5504,3.5504,3.5235,3.529,3.5897,3.6091,0.0,3.7523,3.7732,3.7921,3.8274,3.8007,3.7817,3.7872,0.0,0.0,3.9041,3.9337,3.9497,3.9447,3.9859,4.0096,4.0096,4.0096,4.0096,4.0096,4.0096,4.0096,4.0096,4.0096,4.0096,4.007,3.9636,3.8816,3.7764,3.7338,3.6508,3.5504,3.5504,3.5504,3.5504,3.5504,3.5504,3.5504,5.2153,5.2153,5.1813,5.0817,5.0627,5.0281,4.9215,4.9029,4.8718,4.7892,4.7779,4.7779,4.7779,4.7779,4.7734,4.7628,4.7613,4.693,4.5421,4.511,4.4496,4.3349,4.329,4.329,4.329,4.329,4.306,4.2545,4.1886,4.119,4.0531,3.9873,3.9514,3.9388,3.9388,3.9388,3.9445,4.0343,4.0792,4.1046,4.2645,4.2939,4.2536,4.4035,4.4138,4.3509,4.3558,4.4012,4.4412,4.3081,4.3064,4.3352,4.1982,4.1542,4.139,4.0654,4.035,4.0248,4.013,4.0096,4.0096,4.0096,3.9584,3.9059,3.8935,3.7901,3.6934,3.6813,3.618,3.5668,3.5668,3.5587,3.5504,3.5537,3.5123,3.5244,3.6476,0.0,3.6816,3.8663,3.8442,3.8402,3.9032,3.8513,3.8402,3.9032,3.9086,3.9368,0.0,4.0096,4.0096,4.0096,4.0096,4.0096,4.0096,4.0096,4.0096,4.0096,4.0096,4.0096,4.0096,4.0096,4.0096,4.0096,4.0096,3.9226,3.7793,3.7793,3.689,3.5504,3.5504,3.5504,3.5504,3.5504,3.5504,3.5519,5.3264,5.3264,5.2921,5.1849,5.1651,5.1303,5.032,5.0165,5.0087,4.9947,4.9907,4.9907,4.9907,4.9907,4.9654,4.9029,4.8966,4.7949,4.5458,4.4257,4.3499,4.3305,4.329,4.329,4.329,4.329,4.3245,4.314,4.2536,4.1916,4.1205,4.0561,3.9948,3.9388,3.9388,3.9388,3.9445,4.0343,4.1113,4.1901,4.2878,4.3651,4.4224,4.4514,4.4514,4.4395,4.4406,4.4496,4.4564,4.4327,4.4327,4.4276,4.3352,4.3054,4.2902,4.2168,4.1508,4.0882,4.0282,4.0096,4.0096,4.0096,4.002,3.9731,3.9043,3.8701,3.837,3.7748,3.698,3.6446,3.6446,3.5926,3.5522,3.5638,3.6011,3.6415,3.6814,0.0,3.8532,3.8864,3.9411,3.9799,3.9901,3.9808,3.9782,3.9901,3.9927,3.9969,4.0096,4.0096,4.0096,4.0096,4.0096,4.0096,4.0096,4.0096,4.0096,4.0096,4.0096,4.0096,4.0096,4.0096,4.0096,4.0096,4.0096,3.9226,3.7793,3.7793,3.689,3.5504,3.5504,3.5504,3.5504,3.5504,3.5504,3.5579,5.3501,5.3501,5.3348,5.2835,5.2749,5.24,5.1357,5.1208,5.1005,5.0474,5.0397,5.0397,5.0397,5.0397,5.0109,4.9351,4.8952,4.8066,4.6416,4.5741,4.5017,4.4159,4.4105,4.3849,4.3329,4.329,4.329,4.329,4.2686,4.2066,4.1407,4.0711,4.0053,3.9388,3.9388,3.9666,4.0165,4.1437,4.2269,4.2818,4.4082,4.4829,4.5145,4.4767,4.4869,4.5179,4.5179,4.4953,4.4666,4.5043,4.4925,4.4479,4.3656,4.3392,4.324,4.2523,4.1779,4.1035,4.0316,4.0096,4.0096,4.0096,4.0096,3.9995,3.9636,3.9193,3.8799,3.8469,3.779,3.7249,3.7249,3.6965,3.6768,3.6814,3.677,0.0,0.0,3.8242,3.8699,3.9456,3.9859,4.0096,4.0096,4.0096,4.0096,4.0096,4.0096,4.0096,4.0096,4.0096,4.0096,4.0096,4.0096,4.0096,4.0096,4.0096,4.0096,4.0096,4.0096,4.0096,4.0096,4.0096,4.0096,4.0096,4.0096,3.9226,3.7793,3.7793,3.689,3.5504,3.5504,3.5504,3.5549,3.5908,3.6028,3.6133,5.3501,5.3501,5.3501,5.3501,5.3501,5.323,5.24,5.2277,5.201,5.1208,5.1096,5.1096,5.1096,5.1096,5.0804,5.0058,4.9361,4.8648,4.7915,4.7705,4.6872,4.5221,4.5116,4.4743,4.4013,4.3771,4.3669,4.3669,4.2938,4.2252,4.1632,4.0935,4.0367,3.9873,3.9947,4.0416,4.1289,4.2972,4.3715,4.3941,4.5366,4.5957,4.5889,4.5314,4.5449,4.5957,4.5957,4.5585,4.5207,4.5754,4.5568,4.4987,4.4198,4.3916,4.3809,4.3047,4.2168,4.1288,4.0544,4.0231,4.0096,4.0096,4.0096,4.0096,4.0096,3.961,3.9166,3.9166,3.858,3.8064,3.8064,3.7921,3.7806,3.7835,0.0,0.0,0.0,3.8692,3.8905,3.9978,4.0096,4.0096,4.0096,4.0096,4.0096,4.0096,4.0096,4.0096,4.0096,4.0096,4.0096,4.0096,4.0096,4.0096,4.0096,4.0096,4.0096,4.0096,4.0096,4.0096,4.0096,4.0096,4.0096,4.0096,4.0096,3.9332,3.8035,3.7863,3.7086,3.599,3.5651,3.5709,3.6019,3.6349,3.6582,3.6791,5.3501,5.3501,5.3501,5.3501,5.3501,5.3467,5.3382,5.3382,5.3348,5.328,5.3264,5.3264,5.3264,5.3264,5.296,5.2151,5.141,5.0669,4.9927,4.9253,4.8032,4.6189,4.6103,4.6067,4.5996,4.5138,4.4699,4.4699,4.3726,4.2925,4.2306,4.1647,4.128,4.1242,4.152,4.1992,4.2758,4.4577,4.5331,4.5423,4.6354,4.6718,4.6701,4.665,4.6667,4.6718,4.6718,4.6667,4.6633,4.6684,4.6667,4.6498,4.5771,4.5534,4.5399,4.4666,4.3396,4.2049,4.1322,4.0612,4.0096,4.0096,4.0096,4.0096,4.0096,4.0045,4.002,4.002,3.9385,3.8827,3.8827,3.8246,3.7835,3.7975,0.0,0.0,3.9135,3.962,3.9978,4.0096,4.0096,4.0096,4.0096,4.0096,4.0096,4.0096,4.0096,4.0096,4.0096,4.0096,4.0096,4.0096,4.0096,4.0096,4.0096,4.0096,4.0096,4.0096,4.0096,4.0096,4.0096,4.0096,4.0096,4.0096,4.0096,3.961,3.8772,3.8092,3.7735,3.7501,3.6053,3.6305,3.7354,3.673,3.6851,3.7434,5.3501,5.3501,5.3501,5.3501,5.3501,5.3501,5.3501,5.3501,5.3501,5.3501,5.3501,5.3501,5.3501,5.3501,5.3179,5.2367,5.164,5.0896,5.0135,4.9407,4.8401,4.7122,4.6488,4.6208,4.6208,4.5834,4.5395,4.4812,4.4412,4.3593,4.2396,4.2141,4.1811,4.1445,4.2093,4.286,4.3717,4.5457,4.6238,4.6381,4.7157,4.7479,4.7445,4.6972,4.7073,4.7479,4.7479,4.7192,4.6853,4.7344,4.7175,4.6667,4.594,4.6007,4.6244,4.55,4.4198,4.2828,4.2083,4.1001,4.0096,4.0096,4.0096,4.0096,4.0096,4.0096,4.0096,4.0096,3.9876,3.9636,3.9636,3.9428,3.9252,3.9289,0.0,3.9662,3.9747,3.9969,4.0096,4.0096,4.0096,4.0096,4.0096,4.0096,4.0096,4.0096,4.0096,4.0096,4.0096,4.0096,4.0096,4.0096,4.0096,4.0096,4.0096,4.0096,4.0333,4.0781,4.0333,4.0587,4.1424,4.0519,4.0367,4.0747,4.0316,3.9636,3.8881,3.8608,3.7917,3.7041,3.6861,3.6863,3.6985,3.7496,3.7808,3.8123,5.3501,5.3501,5.3501,5.3501,5.3501,5.3501,5.3501,5.3501,5.3501,5.3501,5.3501,5.3501,5.3501,5.3501,5.3281,5.2723,5.1775,5.0997,5.0473,4.9543,4.8719,4.808,4.7406,4.7088,4.7088,4.6781,4.633,4.5685,4.5395,4.4682,4.3577,4.3363,4.3133,4.2947,4.3659,4.4439,4.5304,4.6747,4.7395,4.753,4.8054,4.8257,4.8206,4.7682,4.78,4.8257,4.8257,4.7919,4.7564,4.8088,4.7919,4.7361,4.6633,4.643,4.6312,4.5568,4.4434,4.3223,4.2489,4.1373,4.04,4.0163,4.0096,4.0096,4.0096,4.0096,4.0096,4.0096,4.0096,4.0096,4.0096,4.0096,4.0096,4.0096,4.0096,4.0096,4.0096,4.0096,4.0096,4.0096,4.0096,4.0096,4.0096,4.0096,4.0096,4.0096,4.0096,4.0096,4.0096,4.0096,4.0214,4.0426,4.0468,4.057,4.0807,4.057,4.0815,4.1542,4.1018,4.1331,4.2252,4.1264,4.0933,4.117,4.0663,3.9854,3.8897,3.8881,3.8255,3.7294,3.7462,3.7519,3.7537,3.8167,3.8527,3.8781,5.3501,5.3501,5.3501,5.3501,5.3501,5.3501,5.3501,5.3501,5.3501,5.3501,5.3501,5.3501,5.3501,5.3501,5.3501,5.3501,5.2114,5.1185,5.12,4.983,4.9001,4.9001,4.9001,4.9001,4.9001,4.808,4.7622,4.7589,4.6678,4.6208,4.6208,4.5539,4.5571,4.6212,4.6487,4.6979,4.7655,4.8608,4.9001,4.9001,4.9001,4.9001,4.9001,4.9001,4.9001,4.9001,4.9001,4.9001,4.9001,4.9001,4.9001,4.8883,4.8125,4.6904,4.5568,4.4852,4.4045,4.3267,4.2506,4.1762,4.1035,4.0299,4.0096,4.0096,4.0096,4.0096,4.0096,4.0096,4.0096,4.0096,4.0096,4.0096,4.0096,4.0096,4.0096,4.0096,4.0096,4.0096,4.0096,4.0096,4.0096,4.0096,4.0096,4.0096,4.0096,4.0113,4.0113,4.0113,4.0113,4.0113,4.0468,4.1187,4.1221,4.1559,4.2286,4.1576,4.1576,4.2303,4.2286,4.2303,4.2303,4.2303,4.1897,4.1221,4.1195,4.034,3.8892,3.8837,3.8802,3.8702,3.7791,3.8292,3.9498,3.8691,3.8841,3.9388,5.3501,5.3501,5.3501,5.3501,5.3501,5.3501,5.3501,5.3501,5.3501,5.3501,5.3501,5.3501,5.3501,5.3501,5.3501,5.3501,5.257,5.1539,5.049,4.9526,4.9001,4.9001,4.9001,4.9001,4.9001,4.8719,4.8257,4.7589,4.7306,4.685,4.6208,4.6,4.6016,4.6228,4.6977,4.7424,4.7655,4.8608,4.9001,4.9001,4.9001,4.9001,4.9001,4.9001,4.9001,4.9001,4.9001,4.9001,4.9001,4.9001,4.9001,4.8968,4.8748,4.731,4.5771,4.6058,4.5229,4.4062,4.3284,4.254,4.166,4.0417,4.0096,4.0096,4.0096,4.0096,4.0096,4.0096,4.0096,4.0096,4.0096,4.0096,4.0096,4.0096,4.0096,4.0096,4.0096,4.0096,4.0096,4.0096,4.0096,4.0096,4.0096,4.0096,4.0316,4.0832,4.1339,4.1407,4.0899,4.1356,4.1508,4.1221,4.1694,4.2337,4.3064,4.2337,4.2337,4.3081,4.254,4.2861,4.3887,4.2777,4.2169,4.1858,4.1299,4.0467,3.9516,3.9502,3.917,3.8684,3.8877,3.8872,3.8771,3.9037,3.9245,3.9484,5.3501,5.3501,5.3501,5.3501,5.3501,5.3501,5.3501,5.3501,5.3501,5.3501,5.3501,5.3501,5.3501,5.3501,5.3501,5.3501,5.2503,5.1369,5.0168,4.9407,4.9137,4.9424,4.9441,4.9306,4.9018,4.9289,4.9005,4.8144,4.8444,4.815,4.7306,4.7306,4.7306,4.734,4.7901,4.8144,4.8193,4.875,4.9001,4.9001,4.9001,4.9001,4.9001,4.9001,4.9001,4.9001,4.9001,4.9001,4.9001,4.9001,4.9001,4.8951,4.8663,4.7462,4.616,4.6312,4.5517,4.4429,4.3639,4.3081,4.2455,4.128,4.0536,4.0096,4.0096,4.0096,4.0096,4.0096,4.0096,4.0096,4.0096,4.0096,4.0096,4.0096,4.0096,4.0096,4.0096,4.0096,4.0096,4.0096,4.0096,4.0214,4.0493,4.0527,4.0832,4.1576,4.2049,4.21,4.166,4.2049,4.2219,4.2083,4.2506,4.3098,4.3876,4.342,4.342,4.3876,4.342,4.3718,4.4581,4.3633,4.3003,4.2637,4.2171,4.1144,3.9856,4.0129,3.9548,3.8574,3.9261,3.9223,3.8841,3.9275,3.9589,3.9858,5.3501,5.3501,5.3501,5.3501,5.3501,5.3501,5.3501,5.3501,5.3501,5.3501,5.3501,5.3501,5.3501,5.3501,5.3501,5.3501,5.2164,5.0997,5.0236,4.9576,4.9475,5.0067,5.0152,4.9881,4.9221,4.9847,4.983,4.9103,4.983,4.9779,4.9001,4.9069,4.9069,4.9001,4.9001,4.9001,4.9001,4.9001,4.9001,4.9001,4.9001,4.9001,4.9001,4.9001,4.9001,4.9001,4.9001,4.9001,4.9001,4.9001,4.9001,4.8883,4.8125,4.7445,4.6735,4.594,4.5213,4.453,4.3724,4.3443,4.3223,4.2574,4.1348,4.0282,4.0214,4.0197,4.018,4.0113,4.0096,4.0096,4.0096,4.0096,4.0096,4.0096,4.0096,4.0096,4.0096,4.0096,4.0096,4.0096,4.0096,4.04,4.1136,4.1322,4.1677,4.2337,4.2455,4.2455,4.2388,4.2455,4.2777,4.3375,4.346,4.3859,4.4598,4.4615,4.4615,4.4615,4.4615,4.4615,4.4615,4.4615,4.4153,4.3394,4.3311,4.2022,4.0003,4.0547,3.9876,3.8542,3.917,3.9388,3.9388,3.9388,3.9828,4.0412,5.3501,5.3501,5.3501,5.3501,5.3501,5.3501,5.3501,5.3501,5.3501,5.3501,5.3501,5.3501,5.3501,5.3501,5.3501,5.3501,5.2621,5.1758,5.1014,5.0828,5.0541,5.0101,5.0659,5.0896,5.0744,5.0896,5.0608,4.9847,5.0608,5.0304,4.9018,4.9593,4.9543,4.9001,4.9001,4.9001,4.9001,4.9001,4.9001,4.9001,4.9001,4.9001,4.9001,4.9001,4.9001,4.9001,4.9001,4.9001,4.9001,4.9001,4.9001,4.8883,4.8125,4.777,4.7411,4.6092,4.5602,4.5297,4.4536,4.3876,4.3358,4.3217,4.2489,4.166,4.1085,4.0967,4.0798,4.0231,4.0096,4.0096,4.0096,4.0096,4.0096,4.0096,4.0096,4.0096,4.0096,4.0096,4.0096,4.0096,4.0096,4.04,4.1136,4.2269,4.2997,4.3166,4.3741,4.3826,4.3217,4.3758,4.3876,4.3409,4.4012,4.4429,4.4615,4.4615,4.4615,4.4615,4.4615,4.4615,4.4615,4.4615,4.414,4.3284,4.2602,4.1646,4.0475,3.9944,3.9526,3.9215,3.9328,3.9388,3.9388,3.9388,3.9828,4.0472,5.3501,5.3501,5.3501,5.3501,5.3501,5.3501,5.3501,5.3501,5.3501,5.3501,5.3501,5.3501,5.3501,5.3501,5.3501,5.3501,5.2756,5.2147,5.1758,5.142,5.12,5.115,5.1522,5.1911,5.23,5.2317,5.1758,5.0625,5.1369,5.115,5.0067,5.0084,4.9881,4.9509,4.9171,4.9001,4.9001,4.9001,4.9204,4.9492,4.9137,4.9424,4.9982,4.9272,4.9221,4.9475,4.9137,4.9001,4.9001,4.9001,4.9001,4.8934,4.8562,4.7953,4.7293,4.6887,4.6261,4.5618,4.5229,4.4823,4.4418,4.4062,4.3673,4.3081,4.1982,4.1728,4.161,4.1247,4.1162,4.1162,4.1162,4.0874,4.0612,4.0612,4.0612,4.0493,4.0146,4.0722,4.1027,4.0663,4.0942,4.1424,4.2185,4.3301,4.3978,4.3978,4.435,4.4429,4.3995,4.435,4.4429,4.3995,4.4395,4.4615,4.4615,4.4615,4.4615,4.4615,4.4615,4.4615,4.4615,4.4615,4.4355,4.3902,4.3456,4.2504,4.128,4.0842,4.0165,3.9388,3.9388,3.9388,3.9454,3.9768,4.0502,4.1422,5.3501,5.3501,5.3501,5.3501,5.3501,5.3501,5.3501,5.3501,5.3501,5.3501,5.3501,5.3501,5.3501,5.3501,5.3501,5.3501,5.2892,5.2452,5.2317,5.186,5.1809,5.2283,5.2435,5.2824,5.3501,5.3501,5.2824,5.1403,5.2147,5.1995,5.1014,5.0642,5.027,4.9898,4.9543,4.9238,4.9018,4.9137,4.9475,4.9864,4.9373,4.9932,5.0896,4.9796,4.9678,5.0016,4.9407,4.912,4.9001,4.9001,4.9001,4.8984,4.8849,4.8054,4.7242,4.7614,4.6955,4.6058,4.5923,4.5889,4.5703,4.4987,4.4801,4.4429,4.2997,4.2574,4.2439,4.232,4.2286,4.2286,4.2286,4.1796,4.139,4.139,4.139,4.117,4.057,4.1534,4.2066,4.1457,4.2033,4.2726,4.3325,4.413,4.4615,4.4615,4.4615,4.4615,4.4615,4.4615,4.4615,4.4615,4.4615,4.4615,4.4615,4.4733,4.4733,4.4615,4.4733,4.4733,4.4615,4.4615,4.4615,4.4598,4.444,4.3469,4.1997,4.1836,4.0842,3.9388,3.9388,3.9388,3.9514,4.0292,4.1324,4.241,5.3501,5.3501,5.3501,5.3501,5.3501,5.3501,5.3501,5.3501,5.3501,5.3501,5.3501,5.3501,5.3501,5.3501,5.3501,5.3501,5.3399,5.3044,5.235,5.2858,5.2926,5.2334,5.2976,5.3399,5.3501,5.3501,5.3061,5.2147,5.2959,5.2283,5.027,5.1454,5.098,4.9204,5.0388,5.0202,4.9035,4.9678,4.9644,4.9204,4.9729,5.0067,5.0287,5.0744,5.0574,5.0084,4.9982,4.9543,4.9001,4.9001,4.9001,4.89,4.8257,4.8359,4.8477,4.7293,4.7259,4.7449,4.6819,4.665,4.6464,4.5737,4.5551,4.5331,4.4496,4.3758,4.3081,4.2422,4.2286,4.2286,4.2286,4.2219,4.2151,4.2151,4.2151,4.2117,4.1999,4.2168,4.2252,4.2151,4.2811,4.3274,4.3375,4.413,4.4615,4.4615,4.4615,4.4615,4.4615,4.4615,4.4615,4.4615,4.4615,4.4615,4.4615,4.5229,4.5229,4.4615,4.5246,4.5213,4.4615,4.4615,4.4615,4.4542,4.3814,4.2909,4.1933,4.118,4.0274,3.9388,3.9388,3.9388,3.9574,4.0786,4.1767,4.247,5.3501,5.3501,5.3501,5.3501,5.3501,5.3501,5.3501,5.3501,5.3501,5.3501,5.3501,5.3501,5.3501,5.3501,5.3501,5.3501,5.3501,5.3348,5.2993,5.3298,5.3348,5.2993,5.3315,5.3501,5.3501,5.3501,5.3331,5.2976,5.3331,5.2756,5.1336,5.1995,5.1572,5.027,5.0898,5.083,5.027,5.0591,5.076,5.0845,5.076,5.1234,5.1944,5.142,5.1251,5.1268,5.0862,5.0236,4.961,4.961,4.934,4.8951,4.8629,4.8477,4.8342,4.8105,4.797,4.7821,4.7513,4.7411,4.7242,4.6498,4.6007,4.5618,4.528,4.4621,4.3978,4.3639,4.3572,4.3572,4.3572,4.3217,4.2912,4.2912,4.2912,4.2777,4.2354,4.3031,4.3572,4.3572,4.3859,4.4062,4.4062,4.4384,4.4615,4.4615,4.4615,4.4615,4.4615,4.4615,4.4801,4.5196,4.5213,4.5399,4.5833,4.6143,4.6143,4.5821,4.5737,4.5314,4.4615,4.4615,4.4615,4.4542,4.3697,4.2816,4.1965,4.145,4.0537,3.9448,4.0232,4.0741,4.116,4.1906,4.2478,4.2974]}]]